[[{"header":{"parameterUnit":"m.s-1","parameterCategory":1,"la1":30.6,"la2":29.2853,"lo1":-89.7004,"lo2":-87.6739,"dy":0.0162,"dx":0.0183,"nx":112,"ny":82,"refTime":"2024-07-06T06:00:00:Z","depth":0,"parameterNumber":2,"parameterNumberName":"U-component_of_WINDS"},"data":[0.0,0.0,0.0,0.0,0.0,0.0,0.0,0.0,0.0,0.0,0.0,0.0,0.0,0.0,0.0,0.0,0.0,0.0,0.0,0.0,0.0,0.0,0.0,0.0,0.0,0.0,0.0,0.0,0.0,0.0,0.0,0.0,0.0,0.0,0.0,0.0,0.0,0.0,0.0,0.0,0.0,0.0,0.0,0.0,0.0,0.0,0.0,0.0,0.0,0.0,0.0,0.0,0.0,0.0,0.0,0.0,0.0,0.0,0.0,0.0,0.0,0.0,0.0,0.0,0.0,0.0,0.0,0.0,0.0,0.0,0.0,0.0,0.0,0.0,0.0,0.0,0.0,0.0,0.0,0.0,0.0,0.0,0.0,0.0,0.0,0.0,0.0,0.0,0.0,0.0,-2.7782,-3.0878,-3.3786,-3.5265,-3.4713,-3.4474,-3.2766,-2.8981,0.0,0.0,0.0,0.0,0.0,0.0,0.0,0.0,0.0,0.0,0.0,0.0,0.0,0.0,0.0,0.0,0.0,0.0,0.0,0.0,0.0,0.0,0.0,0.0,0.0,0.0,0.0,0.0,0.0,0.0,0.0,0.0,0.0,0.0,0.0,0.0,0.0,0.0,0.0,0.0,0.0,0.0,0.0,0.0,0.0,0.0,0.0,0.0,0.0,0.0,0.0,0.0,0.0,0.0,0.0,0.0,0.0,0.0,0.0,0.0,0.0,0.0,0.0,0.0,0.0,0.0,0.0,0.0,0.0,0.0,0.0,0.0,0.0,0.0,0.0,0.0,0.0,0.0,0.0,0.0,0.0,0.0,0.0,0.0,0.0,0.0,0.0,0.0,0.0,0.0,0.0,0.0,0.0,0.0,0.0,0.0,0.0,0.0,0.0,0.0,0.0,0.0,0.0,0.0,-2.854,-3.3403,-3.4842,-3.5459,-3.5355,-3.4307,-3.2437,-2.9636,0.0,0.0,0.0,0.0,0.0,0.0,0.0,0.0,0.0,0.0,0.0,0.0,0.0,0.0,0.0,0.0,0.0,0.0,0.0,0.0,0.0,0.0,0.0,0.0,0.0,0.0,0.0,0.0,0.0,0.0,0.0,0.0,0.0,0.0,0.0,0.0,0.0,0.0,0.0,0.0,0.0,0.0,0.0,0.0,0.0,0.0,0.0,0.0,0.0,0.0,0.0,0.0,0.0,0.0,0.0,0.0,0.0,0.0,0.0,0.0,0.0,0.0,0.0,0.0,0.0,0.0,0.0,0.0,0.0,0.0,0.0,0.0,0.0,0.0,0.0,0.0,0.0,0.0,0.0,0.0,0.0,0.0,0.0,0.0,0.0,0.0,0.0,0.0,0.0,0.0,0.0,0.0,0.0,0.0,0.0,0.0,0.0,0.0,0.0,0.0,0.0,0.0,0.0,-2.7595,-3.0363,-3.4443,-3.5245,-3.5504,-3.5504,-3.4277,-3.2377,-2.9771,-2.8633,0.0,0.0,0.0,0.0,0.0,0.0,0.0,0.0,0.0,0.0,0.0,0.0,0.0,0.0,0.0,0.0,0.0,0.0,0.0,0.0,0.0,0.0,0.0,0.0,0.0,0.0,0.0,0.0,0.0,0.0,0.0,0.0,0.0,0.0,0.0,0.0,0.0,0.0,0.0,0.0,0.0,0.0,0.0,0.0,0.0,0.0,0.0,0.0,0.0,0.0,0.0,0.0,0.0,0.0,0.0,0.0,0.0,0.0,0.0,0.0,0.0,0.0,0.0,0.0,0.0,0.0,0.0,0.0,0.0,0.0,0.0,0.0,0.0,0.0,0.0,0.0,0.0,0.0,0.0,0.0,0.0,0.0,0.0,0.0,0.0,0.0,0.0,0.0,0.0,0.0,0.0,0.0,0.0,0.0,0.0,0.0,0.0,0.0,0.0,0.0,0.0,0.0,-3.0379,-3.2408,-3.491,-3.5359,-3.5504,-3.5504,-3.3978,-3.2048,-2.9756,-2.7946,0.0,0.0,0.0,0.0,0.0,0.0,0.0,0.0,0.0,0.0,0.0,0.0,0.0,0.0,0.0,0.0,0.0,0.0,0.0,0.0,0.0,0.0,0.0,0.0,0.0,0.0,0.0,0.0,0.0,0.0,0.0,0.0,0.0,0.0,0.0,0.0,0.0,0.0,0.0,0.0,0.0,0.0,0.0,0.0,0.0,0.0,0.0,0.0,0.0,0.0,0.0,0.0,0.0,0.0,0.0,0.0,0.0,0.0,0.0,0.0,0.0,0.0,0.0,0.0,0.0,0.0,0.0,0.0,0.0,0.0,0.0,0.0,0.0,0.0,0.0,0.0,0.0,0.0,0.0,0.0,0.0,0.0,0.0,0.0,0.0,0.0,0.0,0.0,0.0,0.0,0.0,0.0,0.0,0.0,0.0,0.0,0.0,0.0,0.0,0.0,0.0,0.0,-3.1306,-3.4275,-3.5091,-3.5359,-3.5504,-3.5504,-3.3125,-3.1076,-2.9696,-2.6754,0.0,0.0,0.0,0.0,0.0,0.0,0.0,0.0,0.0,0.0,0.0,0.0,0.0,0.0,0.0,0.0,0.0,0.0,0.0,0.0,0.0,0.0,0.0,0.0,0.0,0.0,0.0,0.0,0.0,0.0,0.0,0.0,0.0,0.0,0.0,0.0,0.0,0.0,0.0,0.0,0.0,0.0,0.0,0.0,0.0,0.0,0.0,0.0,0.0,0.0,0.0,0.0,0.0,0.0,0.0,0.0,0.0,0.0,0.0,0.0,0.0,0.0,0.0,0.0,0.0,0.0,0.0,0.0,0.0,0.0,0.0,0.0,0.0,0.0,0.0,0.0,0.0,0.0,0.0,0.0,0.0,0.0,0.0,0.0,0.0,0.0,0.0,0.0,0.0,0.0,0.0,0.0,0.0,0.0,0.0,0.0,0.0,0.0,0.0,0.0,0.0,0.0,-3.0319,-3.3111,-3.4984,-3.5359,-3.5504,-3.5504,-3.3814,-3.1854,-2.9741,0.0,0.0,0.0,0.0,0.0,0.0,0.0,0.0,0.0,0.0,0.0,0.0,0.0,0.0,0.0,0.0,0.0,0.0,0.0,0.0,0.0,0.0,0.0,0.0,0.0,0.0,0.0,0.0,0.0,0.0,0.0,0.0,0.0,0.0,0.0,0.0,0.0,0.0,0.0,0.0,0.0,0.0,0.0,0.0,0.0,0.0,0.0,0.0,0.0,0.0,0.0,0.0,0.0,0.0,0.0,0.0,0.0,0.0,0.0,0.0,0.0,0.0,0.0,0.0,0.0,0.0,0.0,0.0,0.0,0.0,0.0,0.0,0.0,0.0,0.0,0.0,0.0,0.0,0.0,0.0,0.0,0.0,0.0,0.0,0.0,0.0,0.0,0.0,0.0,0.0,0.0,0.0,0.0,0.0,0.0,0.0,0.0,0.0,0.0,0.0,0.0,0.0,-2.7041,-3.0125,-3.2858,-3.4901,-3.5326,-3.5504,-3.5504,-3.3888,-3.187,-2.9508,0.0,0.0,0.0,0.0,0.0,0.0,0.0,0.0,0.0,0.0,0.0,0.0,0.0,0.0,0.0,0.0,0.0,0.0,0.0,0.0,0.0,0.0,0.0,0.0,0.0,0.0,0.0,0.0,0.0,0.0,0.0,0.0,0.0,0.0,0.0,0.0,0.0,0.0,0.0,0.0,0.0,0.0,0.0,0.0,0.0,0.0,0.0,0.0,0.0,0.0,0.0,0.0,0.0,0.0,0.0,0.0,0.0,0.0,0.0,0.0,0.0,0.0,0.0,0.0,0.0,0.0,0.0,0.0,0.0,0.0,0.0,0.0,0.0,0.0,0.0,0.0,0.0,0.0,0.0,0.0,0.0,0.0,0.0,0.0,0.0,0.0,0.0,0.0,0.0,0.0,0.0,0.0,0.0,0.0,0.0,0.0,0.0,0.0,0.0,0.0,0.0,0.0,-2.7028,-3.1021,-3.407,-3.482,-3.5261,-3.5504,-3.5504,-3.305,-3.0743,0.0,0.0,0.0,0.0,0.0,0.0,0.0,0.0,0.0,0.0,0.0,0.0,0.0,0.0,0.0,0.0,0.0,0.0,0.0,0.0,0.0,0.0,0.0,0.0,0.0,0.0,0.0,0.0,0.0,0.0,0.0,0.0,0.0,0.0,0.0,0.0,0.0,0.0,0.0,0.0,0.0,0.0,0.0,0.0,0.0,0.0,0.0,0.0,0.0,0.0,0.0,0.0,0.0,0.0,0.0,0.0,0.0,0.0,0.0,0.0,0.0,0.0,0.0,0.0,0.0,0.0,0.0,0.0,0.0,0.0,0.0,0.0,0.0,0.0,0.0,0.0,0.0,0.0,0.0,0.0,0.0,0.0,0.0,0.0,0.0,0.0,0.0,0.0,0.0,0.0,0.0,0.0,0.0,0.0,0.0,0.0,0.0,0.0,0.0,0.0,0.0,0.0,0.0,-2.7237,-3.1215,-3.4288,-3.5034,-3.5326,-3.5504,-3.5504,-3.3918,-3.1738,-2.8965,0.0,0.0,0.0,0.0,0.0,0.0,0.0,0.0,0.0,0.0,0.0,0.0,0.0,0.0,0.0,0.0,0.0,0.0,0.0,0.0,0.0,0.0,0.0,0.0,0.0,0.0,0.0,0.0,0.0,0.0,0.0,0.0,0.0,0.0,0.0,0.0,0.0,0.0,0.0,0.0,0.0,0.0,0.0,0.0,0.0,0.0,0.0,0.0,0.0,0.0,0.0,0.0,0.0,0.0,0.0,0.0,0.0,0.0,0.0,0.0,0.0,0.0,0.0,0.0,0.0,0.0,0.0,0.0,0.0,0.0,0.0,0.0,0.0,0.0,0.0,0.0,0.0,0.0,0.0,0.0,0.0,0.0,0.0,0.0,0.0,0.0,0.0,0.0,0.0,0.0,0.0,0.0,0.0,0.0,0.0,0.0,0.0,0.0,0.0,0.0,0.0,0.0,-2.7023,-3.0853,-3.3782,-3.4572,-3.5148,-3.5359,-3.5052,-3.3839,-3.1866,-2.8929,0.0,0.0,0.0,0.0,0.0,0.0,0.0,0.0,0.0,0.0,0.0,0.0,0.0,0.0,0.0,0.0,0.0,0.0,0.0,0.0,0.0,0.0,0.0,0.0,0.0,0.0,0.0,0.0,0.0,0.0,0.0,0.0,0.0,0.0,0.0,0.0,0.0,0.0,0.0,0.0,0.0,0.0,0.0,0.0,0.0,0.0,0.0,0.0,0.0,0.0,0.0,0.0,0.0,0.0,0.0,0.0,0.0,0.0,0.0,0.0,0.0,0.0,0.0,0.0,0.0,0.0,0.0,0.0,0.0,0.0,0.0,0.0,0.0,0.0,0.0,0.0,0.0,0.0,0.0,0.0,0.0,0.0,0.0,0.0,0.0,0.0,0.0,0.0,0.0,0.0,0.0,0.0,0.0,0.0,0.0,0.0,0.0,0.0,0.0,0.0,0.0,0.0,-2.6652,-3.0235,-3.2904,-3.3659,-3.4654,-3.4986,-3.4245,-3.3129,-3.1372,-2.8874,0.0,0.0,0.0,0.0,0.0,0.0,0.0,0.0,0.0,0.0,0.0,0.0,0.0,0.0,0.0,0.0,0.0,0.0,0.0,0.0,0.0,0.0,0.0,0.0,0.0,0.0,0.0,0.0,0.0,0.0,0.0,0.0,0.0,0.0,0.0,0.0,0.0,0.0,0.0,0.0,0.0,0.0,0.0,0.0,0.0,0.0,0.0,0.0,0.0,0.0,0.0,0.0,0.0,0.0,0.0,0.0,0.0,0.0,0.0,0.0,-2.3536,-2.2435,0.0,0.0,0.0,0.0,0.0,0.0,0.0,0.0,0.0,0.0,0.0,0.0,0.0,0.0,0.0,0.0,0.0,0.0,0.0,0.0,0.0,0.0,0.0,0.0,0.0,0.0,0.0,0.0,0.0,0.0,0.0,0.0,0.0,0.0,0.0,0.0,0.0,0.0,0.0,0.0,-2.6921,-3.046,-3.296,-3.315,-3.3485,-3.361,-3.3457,-3.2744,-3.125,-2.8848,-2.6761,0.0,0.0,0.0,0.0,0.0,0.0,0.0,0.0,0.0,0.0,0.0,0.0,0.0,0.0,0.0,0.0,0.0,0.0,0.0,0.0,0.0,0.0,0.0,0.0,0.0,0.0,0.0,0.0,0.0,0.0,0.0,0.0,0.0,0.0,0.0,0.0,0.0,0.0,0.0,0.0,0.0,0.0,0.0,0.0,0.0,0.0,0.0,0.0,0.0,0.0,0.0,0.0,0.0,0.0,0.0,0.0,0.0,0.0,0.0,-2.5338,-2.462,0.0,0.0,0.0,0.0,0.0,0.0,0.0,0.0,0.0,0.0,0.0,0.0,0.0,0.0,0.0,0.0,0.0,0.0,0.0,0.0,0.0,0.0,0.0,0.0,0.0,0.0,0.0,0.0,0.0,0.0,0.0,0.0,0.0,0.0,0.0,0.0,0.0,0.0,0.0,0.0,-2.7207,-3.0226,-3.2318,-3.2426,-3.2875,-3.3073,-3.2684,-3.2096,-3.1055,-2.9469,-2.7449,0.0,0.0,0.0,0.0,0.0,0.0,0.0,0.0,0.0,0.0,0.0,0.0,0.0,0.0,0.0,0.0,0.0,0.0,0.0,0.0,0.0,0.0,0.0,0.0,0.0,0.0,0.0,0.0,0.0,0.0,0.0,0.0,0.0,0.0,0.0,0.0,0.0,0.0,0.0,0.0,0.0,0.0,0.0,0.0,0.0,0.0,0.0,0.0,0.0,0.0,0.0,0.0,0.0,-2.6399,-2.665,-2.6628,-2.7211,-2.7677,-2.8031,-2.7506,-2.7301,-2.7211,-2.5975,0.0,0.0,0.0,0.0,0.0,0.0,0.0,0.0,0.0,0.0,0.0,0.0,0.0,0.0,0.0,0.0,0.0,0.0,0.0,0.0,0.0,0.0,-2.8888,-2.884,-2.9854,-3.0317,-2.8379,0.0,0.0,0.0,0.0,0.0,0.0,0.0,0.0,0.0,0.0,0.0,-2.7545,-2.9951,-3.1539,-3.1663,-3.234,-3.2555,-3.1942,-3.146,-3.0863,-3.0145,-2.8258,-2.6601,0.0,0.0,0.0,0.0,0.0,0.0,0.0,0.0,0.0,0.0,0.0,0.0,0.0,0.0,0.0,0.0,0.0,0.0,0.0,0.0,0.0,0.0,0.0,0.0,0.0,0.0,0.0,0.0,0.0,0.0,0.0,0.0,-2.1292,-2.2518,0.0,0.0,0.0,0.0,0.0,0.0,0.0,0.0,0.0,0.0,0.0,0.0,0.0,-2.7419,-2.8336,-2.9327,-2.9854,-2.9854,-3.0552,-3.0804,-3.0673,-3.1066,-3.1234,-3.1139,-3.1473,0.0,-2.7261,-2.7087,0.0,0.0,0.0,0.0,0.0,0.0,0.0,0.0,0.0,0.0,0.0,0.0,0.0,0.0,0.0,0.0,0.0,0.0,0.0,0.0,0.0,0.0,-3.2097,-3.2083,-3.259,-3.3082,-3.3039,-3.0056,-2.7171,-2.6536,-2.6038,-2.5412,0.0,0.0,0.0,0.0,0.0,0.0,-2.8392,-3.0286,-3.1418,-3.1123,-3.1235,-3.1272,-3.1161,-3.1057,-3.0769,-3.0155,-2.9375,-2.8219,-2.6527,-2.5738,0.0,0.0,0.0,0.0,0.0,0.0,0.0,0.0,0.0,0.0,0.0,0.0,0.0,0.0,0.0,0.0,0.0,0.0,0.0,0.0,0.0,0.0,0.0,0.0,0.0,0.0,0.0,0.0,0.0,-2.0903,-2.2711,-2.3496,-2.386,-2.3747,0.0,0.0,0.0,0.0,0.0,0.0,0.0,0.0,0.0,-2.875,-2.9026,-2.9528,-3.0306,-3.0796,-3.1047,-3.1047,-3.1367,-3.148,-3.1399,-3.159,-3.1602,-3.1521,-3.1764,-3.0987,-2.9579,-2.9188,-2.8456,-2.7464,0.0,0.0,0.0,0.0,-2.6,-2.5925,-2.718,-2.7406,-2.6944,-2.605,0.0,0.0,0.0,0.0,0.0,0.0,0.0,-2.7439,-2.8812,-3.052,-3.2073,-3.2806,-3.3596,-3.4177,-3.4218,-3.2796,-3.0988,-2.9227,-2.8832,-2.8047,-2.5651,-2.5038,0.0,0.0,0.0,-2.7588,-2.8984,-3.0141,-3.091,-3.0986,-3.0986,-3.0986,-3.0986,-3.0986,-3.0882,-3.062,-3.0072,-2.9274,-2.8224,-2.6961,-2.555,0.0,0.0,0.0,0.0,0.0,0.0,0.0,0.0,0.0,0.0,0.0,0.0,0.0,0.0,0.0,0.0,0.0,0.0,0.0,0.0,0.0,0.0,0.0,0.0,0.0,0.0,0.0,0.0,-2.2811,-2.3998,-2.4757,-2.5322,-2.5335,0.0,0.0,0.0,0.0,0.0,0.0,-2.8273,-2.8863,-2.9867,-3.1411,-3.1461,-3.1712,-3.224,-3.224,-3.224,-3.224,-3.224,-3.224,-3.224,-3.224,-3.224,-3.224,-3.2336,-3.2336,-3.2264,-3.1104,-3.0266,-2.9558,-2.8265,-2.7324,-2.6848,-2.7956,-2.8108,-2.7995,-2.9628,-2.9917,-2.934,-2.7971,-2.7542,-2.7205,-2.5711,0.0,0.0,0.0,0.0,-2.8403,-3.0428,-3.1437,-3.2244,-3.3401,-3.4262,-3.4824,-3.4893,-3.4824,-3.411,-3.1789,-3.1427,-3.0521,-2.7426,-2.689,0.0,-2.6476,-2.7042,-2.8028,-2.9525,-3.0099,-3.0558,-3.0949,-3.0986,-3.0986,-3.0986,-3.0986,-3.0986,-3.0986,-3.0594,-3.0098,-2.9523,-2.8255,-2.7079,-2.6059,0.0,0.0,0.0,0.0,0.0,0.0,0.0,0.0,0.0,0.0,0.0,0.0,0.0,0.0,0.0,0.0,0.0,0.0,0.0,0.0,0.0,0.0,0.0,0.0,0.0,0.0,0.0,0.0,0.0,-2.6992,-2.7607,0.0,0.0,0.0,0.0,-2.7118,-2.8649,-3.0055,-3.1135,-3.17,-3.2541,-3.3696,-3.3734,-3.3997,-3.455,-3.4505,-3.4505,-3.4505,-3.4505,-3.4505,-3.4505,-3.4505,-3.4505,-3.4562,-3.4786,-3.4933,-3.4711,-3.234,-3.1314,-3.1263,-3.1201,-3.111,-3.1113,-3.1148,-3.116,-3.116,-3.1273,-3.1286,-3.1173,-3.0595,-2.9352,-2.8134,-2.8512,-2.8439,0.0,0.0,-3.0714,-3.1927,-3.2357,-3.3114,-3.3946,-3.4734,-3.5057,-3.5342,-3.6057,-3.5546,-3.4844,-3.4288,-3.3761,-3.2868,-3.1295,0.0,-2.9179,-2.8772,-2.836,-2.8609,-3.0176,-3.0381,-3.0558,-3.0949,-3.0986,-3.0986,-3.0986,-3.0986,-3.0986,-3.0986,-3.096,-3.0686,-3.0074,-2.997,-2.8908,-2.6706,-2.5955,0.0,0.0,0.0,0.0,0.0,0.0,0.0,0.0,0.0,0.0,0.0,0.0,0.0,0.0,0.0,0.0,0.0,0.0,0.0,0.0,0.0,0.0,0.0,0.0,0.0,0.0,0.0,0.0,-2.8247,-2.9164,0.0,-2.8386,-2.9277,-2.993,-2.993,-3.116,-3.2227,-3.2968,-3.3194,-3.3646,-3.4399,-3.4424,-3.4525,-3.468,-3.468,-3.468,-3.468,-3.468,-3.468,-3.468,-3.468,-3.468,-3.4726,-3.4816,-3.4861,-3.4753,-3.3916,-3.3278,-3.2835,-3.2176,-3.1795,-3.1655,-3.2061,-3.186,-3.1549,-3.2699,-3.2355,-3.1361,-3.1173,-3.1093,-3.0971,-3.0602,-3.0842,-3.1235,-3.1526,-3.2032,-3.2497,-3.2581,-3.2843,-3.3144,-3.3403,-3.3851,-3.4321,-3.4584,-3.4382,-3.4132,-3.3979,-3.4239,-3.4243,-3.355,-3.2825,-3.1988,-3.0993,-3.0495,-3.0527,-3.138,-3.1137,-3.1061,-3.1459,-3.1209,-3.0986,-3.0986,-3.0986,-3.0986,-3.0986,-3.0986,-3.0895,-3.0699,-3.0296,-2.9575,-2.8407,-2.7053,-2.5132,0.0,0.0,0.0,0.0,0.0,0.0,0.0,0.0,0.0,0.0,0.0,0.0,0.0,0.0,0.0,0.0,0.0,0.0,0.0,0.0,0.0,0.0,0.0,0.0,0.0,-2.7344,-2.8624,-2.9377,-3.0482,-3.0934,-3.0382,-3.1486,-3.224,-3.224,-3.3106,-3.3872,-3.4424,-3.4449,-3.4713,-3.5265,-3.5278,-3.5278,-3.5278,-3.5278,-3.5278,-3.5278,-3.5278,-3.5278,-3.5278,-3.5278,-3.5278,-3.5278,-3.5631,-3.5754,-3.5754,-3.6103,-3.5833,-3.5168,-3.396,-3.3608,-3.3727,-3.4204,-3.3828,-3.3279,-3.4203,-3.3647,-3.256,-3.256,-3.283,-3.3013,-3.2462,-3.2673,-3.3158,-3.3304,-3.3357,-3.3331,-3.3222,-3.3422,-3.3529,-3.3275,-3.3807,-3.4331,-3.4331,-3.4149,-3.4005,-3.4292,-3.4468,-3.4432,-3.3993,-3.3683,-3.3063,-3.1902,-3.1538,-3.1521,-3.1911,-3.1699,-3.1627,-3.198,-3.1575,-3.1274,-3.1274,-3.1091,-3.0986,-3.0986,-3.0986,-3.0986,-3.0986,-3.0438,-2.9862,-2.9323,-2.7596,-2.5824,-2.4057,0.0,0.0,0.0,0.0,0.0,0.0,0.0,0.0,0.0,0.0,0.0,0.0,0.0,0.0,0.0,0.0,0.0,0.0,0.0,0.0,0.0,0.0,0.0,-2.8134,-2.8612,-2.9402,-3.0557,-3.1625,-3.2106,-3.1578,-3.3066,-3.4035,-3.4035,-3.4507,-3.5014,-3.5567,-3.5545,-3.5855,-3.6443,-3.6455,-3.6455,-3.6455,-3.6443,-3.643,-3.643,-3.6417,-3.6405,-3.6405,-3.6405,-3.6405,-3.6452,-3.7407,-3.7808,-3.7854,-3.881,-3.8901,-3.8331,-3.6773,-3.6764,-3.7602,-3.7644,-3.7247,-3.6606,-3.5927,-3.5315,-3.4944,-3.4866,-3.451,-3.4096,-3.4058,-3.4009,-3.4106,-3.465,-3.4748,-3.4673,-3.4406,-3.4924,-3.5305,-3.4551,-3.4965,-3.5534,-3.5534,-3.4924,-3.4592,-3.5386,-3.4535,-3.3495,-3.2804,-3.2659,-3.238,-3.1599,-3.149,0.0,-3.1706,-3.1949,-3.2191,-3.2419,-3.2058,-3.1823,-3.1797,-3.1326,-3.0999,-3.0986,-3.0986,-3.0986,-3.0986,-3.0451,-2.9889,-2.9349,-2.7622,-2.6438,-2.5845,0.0,0.0,0.0,0.0,0.0,0.0,0.0,0.0,0.0,0.0,0.0,0.0,0.0,0.0,0.0,0.0,0.0,0.0,0.0,0.0,0.0,-2.8638,-2.9387,-2.8774,-3.0167,-3.1574,-3.2315,-3.3606,-3.4532,-3.4791,-3.623,-3.715,-3.715,-3.7043,-3.7188,-3.771,-3.7089,-3.6985,-3.7538,-3.755,-3.755,-3.755,-3.7161,-3.696,-3.7008,-3.6606,-3.6405,-3.6405,-3.6405,-3.6405,-3.6452,-3.7407,-3.7808,-3.7854,-3.881,-3.9497,-3.9853,-3.8344,-3.7684,-3.7686,-3.8297,-3.8815,-3.8939,-3.7538,-3.7449,-3.7763,-3.6534,-3.6082,-3.5978,-3.5324,-3.5588,-3.5878,-3.482,-3.4928,-3.5076,-3.3814,-3.3598,-3.3713,-3.3526,-3.3641,-3.3797,-3.3797,-3.3598,-3.3526,-3.3755,-3.3498,-3.3612,-3.458,-3.4296,-3.3832,-3.3597,-3.3026,-3.2701,-3.29,-3.2765,-3.277,-3.2961,-3.2644,-3.2293,-3.1836,-3.1654,-3.1431,-3.1013,-3.0986,-3.0986,-3.0986,-3.083,-3.049,-2.9879,-2.819,-2.7157,0.0,0.0,0.0,0.0,0.0,0.0,0.0,0.0,0.0,0.0,0.0,0.0,0.0,0.0,0.0,0.0,0.0,0.0,0.0,0.0,0.0,0.0,-3.0791,-3.1651,-3.1759,-3.2892,-3.3905,-3.4504,-3.5772,-3.6737,-3.7027,-3.8354,-3.9163,-3.9163,-3.9181,-3.9111,-3.8998,-3.8514,-3.8138,-3.799,-3.8002,-3.8002,-3.8002,-3.7688,-3.7525,-3.7525,-3.7199,-3.7048,-3.7048,-3.7048,-3.7162,-3.7382,-3.8333,-3.8826,-3.9033,-4.0014,-4.0731,-4.1085,0.0,0.0,0.0,0.0,-4.011,-4.0347,-3.9065,-3.9036,-3.9411,-3.8404,-3.798,-3.7774,-3.7276,-3.7015,-3.678,-3.6136,-3.6056,-3.5909,-3.4924,-3.4441,-3.4079,-3.3725,-3.3368,-3.3124,-3.3124,-3.3124,-3.3124,-3.3124,-3.3124,0.0,-3.4387,-3.4163,-3.3865,-3.3865,-3.3411,-3.3154,-3.3356,-3.3288,-3.3335,-3.3542,-3.3283,-3.2934,-3.2567,-3.2084,0.0,0.0,0.0,-3.0882,-3.0634,-3.062,0.0,0.0,0.0,0.0,0.0,0.0,0.0,0.0,-2.7201,-2.7007,0.0,0.0,0.0,0.0,0.0,0.0,0.0,0.0,0.0,0.0,0.0,0.0,0.0,0.0,0.0,0.0,-3.3051,-3.4459,-3.6046,-3.6371,-3.6483,-3.6769,-3.7847,-3.8585,-3.8765,-3.9806,-4.0566,-4.0635,-4.0918,-4.0829,-4.0076,-3.9838,0.0,0.0,0.0,-3.8389,-3.8389,-3.8177,-3.8152,-3.8288,-3.8225,-3.8236,-3.8334,-3.8334,-3.8528,-3.8937,-3.9801,-4.0374,-4.0787,-4.1704,-4.2092,-4.2009,-4.1113,-4.1296,-4.2034,-4.1424,-4.1207,-4.112,-4.0525,0.0,0.0,-4.0205,-3.9799,-3.9305,-3.9305,-3.837,-3.7406,-3.8016,-3.7648,-3.7041,-3.6691,-3.6138,-3.5452,-3.4531,-3.3743,-3.3212,-3.3212,-3.3162,-3.3124,-3.3124,-3.3124,-3.3124,-3.3124,-3.3124,-3.3124,-3.3124,-3.3124,-3.3154,-3.3356,-3.3598,-3.381,-3.4076,-3.3843,0.0,-3.36,-3.2633,-3.1967,-3.1902,-3.1457,-3.0947,-3.0414,-3.0388,-3.0388,-3.0388,-3.0388,-3.0673,-3.1169,-3.1169,-3.1444,-3.1823,-2.8222,-2.7726,0.0,0.0,0.0,0.0,0.0,0.0,0.0,0.0,0.0,0.0,0.0,0.0,0.0,0.0,0.0,-3.4808,-3.5917,-3.7055,-3.8989,-3.9725,-3.9555,-3.8218,-3.8933,-3.99,-4.0878,-4.1866,-4.2668,-4.3213,-4.2057,-4.1727,-4.2625,-4.1355,-4.0958,-4.1847,-4.1041,-4.0595,-4.0595,-3.9347,-3.9118,-3.9907,-3.9501,0.0,-4.0509,-4.0509,-4.0535,-4.0646,-4.109,-4.1343,-4.1435,-4.1891,-4.2092,-4.2092,-4.1912,-4.1912,-4.2078,-4.1947,-4.1903,-4.1889,-4.1758,-4.1352,-4.0902,-4.0902,-4.0466,-3.9929,-3.9929,-3.971,0.0,-3.8257,-3.822,-3.7972,-3.5519,-3.5418,-3.5656,-3.4303,-3.3865,-3.3746,-3.3746,-3.3395,-3.3124,-3.3124,-3.3124,-3.3124,-3.3124,-3.3124,-3.3124,-3.3124,-3.3124,-3.3154,-3.3356,-3.3598,-3.381,-3.4076,-3.4194,-3.4071,-3.3626,-3.3378,-3.3038,-3.2555,-3.2424,-3.2306,-3.2202,-3.2202,-3.2202,-3.2202,-3.2202,-3.2254,-3.2359,-3.2359,-3.2411,-3.2502,-3.1251,-3.0996,0.0,0.0,0.0,0.0,0.0,0.0,0.0,0.0,0.0,0.0,0.0,-3.0611,-3.179,0.0,-3.4841,-3.6859,-3.7664,-3.8601,-4.0387,-4.0887,-4.0752,-3.9843,-4.0744,-4.168,-4.2438,-4.3387,-4.4167,-4.4603,-4.404,-4.3691,-4.3835,-4.2535,-4.1865,-4.1999,-4.0995,-4.0453,-4.0453,-4.0184,-4.0043,-4.008,-4.0843,-4.1168,-4.1154,-4.1693,-4.2049,-4.2256,-4.2418,-4.2628,-4.2811,-4.2635,-4.2368,-4.2092,-4.2092,-4.2092,-4.2092,-4.2092,-4.2092,-4.2092,-4.2092,-4.1874,-4.1599,-4.1599,-4.1215,-4.0742,-4.0637,-4.0459,-4.0139,-3.9265,-3.925,-3.9136,-3.7642,-3.7359,-3.7196,-3.5933,-3.5318,-3.4893,-3.4388,-3.4098,-3.3941,-3.4085,-3.3846,-3.37,-3.383,-3.3589,-3.3356,-3.3283,-3.3356,-3.3484,-3.3738,-3.3865,-3.3979,-3.4243,-3.4356,-3.4293,-3.4018,-3.3744,-3.3326,-3.2725,-3.2685,-3.2685,-3.2685,-3.2685,-3.2685,-3.2685,-3.2685,-3.2685,-3.2685,-3.2685,-3.2842,-3.313,-3.2842,-3.2669,0.0,0.0,0.0,0.0,0.0,0.0,0.0,0.0,-2.9259,-3.0688,-3.2331,-3.3821,-3.4875,-3.6325,-3.767,-3.8596,-3.9075,-3.98,-4.1111,-4.1279,-4.1279,-4.1279,-4.2295,-4.3177,-4.3602,-4.4384,-4.5084,-4.5522,-4.562,-4.5384,-4.4684,-4.3735,-4.2827,-4.2146,-4.1132,-4.0516,-4.0275,-4.0895,-4.0794,-4.0032,-4.1914,-4.2439,-4.1851,-4.2923,-4.3579,-4.3856,-4.3729,-4.381,-4.3935,-4.3268,-4.2744,-4.2308,-4.2218,-4.2175,-4.2216,-4.2133,-4.2092,-4.2092,-4.2092,-4.2092,-4.2092,-4.2092,-4.1837,-4.1507,-4.132,-4.1106,-4.0787,-4.0454,-4.0444,-4.0488,-4.0029,-3.9639,-3.9004,-3.7848,-3.704,-3.6315,-3.5392,-3.5136,-3.5073,-3.5098,-3.4762,-3.4488,-3.4676,-3.4276,-3.3811,-3.3496,-3.3598,-3.381,-3.4076,-3.4118,-3.4202,-3.4397,-3.4397,-3.4397,-3.4397,-3.3992,-3.3535,-3.3051,-3.3025,-3.3025,-3.3025,-3.3025,-3.3025,-3.3025,-3.3025,-3.3025,-3.3025,-3.3025,-3.3273,-3.3744,-3.3703,-3.3539,-2.359,-2.5175,-2.7116,-2.9024,-2.9126,-2.9793,0.0,0.0,-3.2887,-3.5093,-3.633,-3.7186,-3.7664,-3.8422,-3.9334,-4.0597,-4.0807,-4.114,-4.1889,-4.199,-4.199,-4.199,-4.2586,-4.3379,-4.4373,-4.4734,-4.5347,-4.6403,-4.5463,-4.5173,-4.5927,-4.5021,-4.4745,-4.5353,-4.4326,-4.3355,-4.2452,-4.1617,-4.1119,-4.1032,-4.2244,-4.3211,-4.397,-4.5049,-4.5551,-4.56,-4.5007,-4.4457,-4.3935,-4.3268,-4.3089,-4.3098,-4.2585,-4.2474,-4.2581,-4.2242,-4.2092,-4.2092,-4.2092,-4.2092,-4.2092,-4.2092,-4.2034,-4.2017,-4.1976,-4.2082,-4.2056,-4.1441,-4.181,-4.1946,-3.9845,-4.0021,-4.0337,-3.8701,-3.822,-3.7916,-3.7153,-3.6626,-3.6053,-3.5264,-3.5258,-3.5296,-3.5099,-3.4866,-3.453,-3.379,-3.367,-3.381,-3.4076,-3.4118,-3.4202,-3.4397,-3.4397,-3.4397,-3.4397,-3.4345,-3.428,-3.4201,-3.4201,-3.4201,-3.4201,-3.4201,-3.4201,-3.4201,-3.4201,-3.4201,-3.4201,-3.4201,-3.4241,-3.4306,-3.4152,-3.3888,-2.7007,-2.8099,-2.9219,0.0,-3.2487,-3.3493,-3.5233,-3.5305,-3.543,-3.6921,-3.7754,-3.8362,-3.8879,-3.9789,-4.0625,0.0,-4.1424,-4.1814,-4.2199,-4.2175,-4.2216,-4.2433,-4.3242,-4.4001,-4.4619,-4.5142,-4.5799,-4.6521,-4.5972,-4.5732,-4.6165,-4.5264,-4.4837,-4.5187,-4.4031,-4.2923,-4.1851,-4.2048,-4.1815,-4.1219,-4.2875,-4.3876,-4.4359,-4.5398,-4.588,-4.5866,-4.559,-4.5111,-4.4531,-4.4384,-4.3931,-4.3272,-4.3201,-4.2986,-4.2688,-4.25,-4.2474,-4.2474,-4.2474,-4.2474,-4.2474,-4.2474,-4.2541,-4.2622,-4.2459,-4.2581,-4.267,-4.2283,-4.2441,-4.2475,-4.1514,-4.1599,-4.1684,-4.0407,-3.9655,-3.9049,-3.818,-3.7395,-3.6755,-3.6566,-3.6283,-3.6141,-3.6199,-3.5885,-3.5492,-3.5172,-3.4519,-3.4147,-3.4285,-3.4285,-3.4314,-3.4397,-3.4397,-3.4397,-3.4397,-3.4397,-3.4397,-3.4397,-3.4397,-3.4397,-3.4397,-3.4397,-3.4397,-3.4397,-3.4397,-3.4397,-3.4397,-3.4397,-3.4397,-3.4397,-3.4314,-3.4063,-2.9324,-3.0329,0.0,-3.329,-3.5062,-3.6251,-3.6258,-3.6662,-3.7231,-3.7842,-3.8502,-3.9096,-3.9574,-4.0558,-4.1336,-4.1378,-4.1773,-4.2133,-4.2284,-4.2242,-4.2284,-4.2581,-4.3539,-4.4288,-4.4733,-4.5581,-4.6284,-4.6771,-4.6447,-4.621,-4.6314,-4.5551,-4.4929,-4.4591,-4.4031,-4.3054,-4.1667,-4.2682,-4.2682,-4.1667,-4.345,-4.4312,-4.4359,-4.5475,-4.597,-4.597,-4.606,-4.5828,-4.5361,-4.5376,-4.4847,-4.4038,-4.4042,-4.3693,-4.3156,-4.3156,-4.2972,-4.2688,-4.2688,-4.2688,-4.2688,-4.2688,-4.2809,-4.2875,-4.2729,-4.2835,-4.2996,-4.2795,-4.2809,-4.285,-4.2809,-4.2769,-4.2537,-4.1561,-4.0986,-4.0289,-3.8912,-3.8264,-3.788,-3.7539,-3.7202,-3.7007,-3.7111,-3.6705,-3.6358,-3.6358,-3.5495,-3.4816,-3.4672,-3.4502,-3.4397,-3.4397,-3.4397,-3.4397,-3.4397,-3.4397,-3.4397,-3.4397,-3.4397,-3.4397,-3.4397,-3.4397,-3.4397,-3.4397,-3.4397,-3.4397,-3.4397,-3.4397,-3.4434,-3.4562,-3.4478,-3.4301,0.0,0.0,-3.3108,-3.4725,-3.6164,-3.7258,-3.7647,-3.7952,-3.8144,-3.8192,-3.9036,-3.9847,-4.0037,-4.0626,-4.1308,-4.1961,-4.2092,-4.2092,-4.2092,-4.2284,-4.2392,-4.2392,-4.3199,-4.4054,-4.4926,-4.5958,-4.6771,-4.7251,-4.6624,-4.6314,-4.655,-4.6314,-4.5597,-4.4359,-4.5446,-4.5021,-4.2778,-4.3735,-4.3735,-4.2744,-4.3782,-4.4312,-4.4359,-4.5597,-4.621,-4.6225,-4.6462,-4.658,-4.6521,-4.5857,-4.5721,-4.5834,-4.5208,-4.4664,-4.4246,-4.4246,-4.36,-4.2688,-4.2688,-4.2688,-4.2688,-4.2688,-4.2688,-4.2688,-4.2688,-4.2835,-4.2981,-4.2981,-4.3115,-4.325,-4.3036,-4.2981,-4.2699,-4.1589,-4.199,-4.1908,-3.9428,-3.9604,-3.9692,-3.7861,-3.769,-3.7782,-3.7526,-3.7183,-3.6972,-3.6972,-3.6449,-3.5861,-3.5338,-3.4763,-3.4397,-3.4397,-3.4397,-3.4397,-3.4397,-3.4397,-3.4397,-3.4397,-3.4397,-3.4397,-3.4397,-3.4397,-3.4397,-3.4397,-3.4397,-3.4397,-3.4397,-3.4397,-3.4559,-3.4861,-3.4688,-3.4734,-3.1284,0.0,-3.3473,-3.6283,-3.7416,-3.794,-3.8506,-3.8618,-3.8641,-3.8752,-3.9342,-3.9782,-3.9721,-4.0602,-4.131,-4.1436,-4.2315,-4.2848,-4.2518,-4.3331,-4.3649,-4.2872,-4.4252,-4.5181,-4.5,-4.5574,0.0,-4.6989,-4.6785,-4.6697,-4.68,-4.6697,-4.6432,-4.5822,-4.6076,-4.5446,-4.3782,-4.4125,-4.4125,-4.3782,-4.4865,-4.5429,-4.5597,-4.6016,-4.6314,-4.6447,-4.655,-4.6594,-4.658,-4.6504,-4.6266,-4.5981,-4.5913,-4.5475,-4.496,-4.496,-4.4743,-4.4307,-4.3388,-4.309,-4.309,-4.309,-4.309,-4.309,-4.309,-4.313,-4.321,-4.321,-4.325,-4.329,-4.321,-4.321,-4.2955,-4.1976,-4.1505,-4.0901,-3.9431,-3.8908,-3.8498,-3.7887,-3.7854,-3.7854,-3.7762,-3.7684,-3.7599,-3.7599,-3.6737,-3.6031,-3.5848,-3.5652,-3.5391,-3.5038,-3.4999,-3.4829,-3.4437,-3.4397,-3.4397,-3.4397,-3.4397,-3.4397,-3.4397,-3.4397,-3.4397,-3.4397,-3.4397,-3.4593,-3.4999,-3.4999,-3.5171,-3.5481,-3.5437,-3.5276,-3.2136,-3.317,-3.4066,-3.7098,-3.8159,-3.8513,-3.8818,-3.8907,-3.8811,-3.8517,-3.8738,-3.8958,-3.8771,-3.9618,-4.0441,-4.0695,-4.2021,-4.3001,-4.2949,-4.3929,-4.4423,-4.3797,-4.4906,-4.5662,0.0,0.0,0.0,-4.6974,-4.6975,-4.6916,-4.6916,-4.6916,-4.6653,-4.6061,-4.6284,-4.5822,-4.4452,-4.4791,-4.4975,-4.4975,-4.5671,-4.615,-4.6358,-4.6447,-4.6521,-4.6712,-4.6815,-4.6858,-4.6858,-4.699,-4.6824,-4.6481,-4.6595,-4.6262,-4.5663,-4.5663,-4.5514,-4.514,-4.4062,-4.3648,-4.3604,-4.3364,-4.329,-4.329,-4.329,-4.329,-4.329,-4.329,-4.329,-4.329,-4.329,-4.329,-4.309,-4.2211,-4.1561,-4.0774,-3.9461,-3.876,-3.8272,-3.7946,-3.79,-3.79,-3.79,-3.79,-3.79,-3.79,-3.7246,-3.6671,-3.6449,-3.624,-3.5966,-3.5626,-3.5587,-3.543,-3.5038,-3.5012,-3.5012,-3.5012,-3.5012,-3.5012,-3.5012,-3.5012,-3.5012,-3.5012,-3.5012,-3.5165,-3.5483,-3.5483,-3.5595,-3.5852,-3.5852,-3.573,-3.2123,-3.3519,-3.4975,-3.7281,-3.8485,-3.898,-3.8546,-3.8767,-3.87,-3.7499,-3.7427,-3.7485,-3.7295,0.0,-3.8879,-3.9896,-4.1408,-4.2655,-4.3353,-4.4196,-4.482,0.0,0.0,0.0,0.0,0.0,0.0,-4.7249,0.0,-4.6916,-4.6916,-4.6916,-4.6358,-4.5161,-4.6255,-4.6225,-4.4837,-4.5732,-4.621,-4.621,-4.621,-4.6358,-4.6639,-4.68,-4.6916,-4.6931,-4.7207,-4.7309,-4.7309,-4.7309,-4.7309,-4.7309,-4.7309,-4.692,-4.6324,-4.6324,-4.5963,-4.5304,-4.4646,-4.4377,-4.4212,-4.3544,-4.3319,-4.329,-4.329,-4.329,-4.329,-4.329,-4.329,-4.329,-4.329,-4.329,-4.309,-4.2211,-4.199,-4.1505,-3.9681,-3.9241,-3.8957,-3.8148,-3.7946,-3.79,-3.79,-3.79,-3.79,-3.79,-3.79,-3.7691,-3.7116,-3.6554,-3.6188,-3.6149,-3.6149,-3.6136,-3.6109,-3.6109,-3.6109,-3.6109,-3.6109,-3.6109,-3.6109,-3.6109,-3.6109,-3.6109,-3.6109,-3.6004,-3.5862,-3.5862,-3.5878,-3.5973,-3.5927,-3.6113,-3.3778,-3.5226,-3.6496,-3.8135,-3.8701,-3.8752,-3.8186,-3.8032,-3.7732,-3.6959,-3.6934,-3.6969,-3.6634,-3.8031,0.0,-3.9594,-4.2148,0.0,-4.3885,-4.5459,0.0,-4.5326,0.0,-4.6666,-4.6309,-4.677,0.0,0.0,-4.7251,-4.7207,-4.7207,-4.7207,-4.6975,-4.6447,-4.6726,-4.6653,-4.6121,-4.6358,-4.6506,-4.6506,-4.6506,-4.6624,-4.6844,-4.6887,-4.7019,-4.7207,-4.7266,-4.7309,-4.7309,-4.7309,-4.7309,-4.7309,-4.7309,-4.7204,-4.7055,-4.7055,-4.695,-4.6696,-4.6037,-4.5155,-4.4287,-4.4122,-4.3693,-4.329,-4.329,-4.329,-4.329,-4.329,-4.329,-4.329,-4.329,-4.329,-4.309,-4.2211,-4.199,-4.1686,-4.0504,-3.9681,-3.9121,-3.8912,-3.8349,-3.79,-3.79,-3.79,-3.79,-3.79,-3.79,-3.7848,-3.7691,-3.7547,-3.7273,-3.6828,-3.6776,-3.6593,-3.6136,-3.6109,-3.6109,-3.6109,-3.6109,-3.6109,-3.6109,-3.6109,-3.6109,-3.6109,-3.6109,-3.6288,-3.67,-3.6508,-3.6521,-3.6811,-3.6697,-3.6539,-3.4578,-3.5948,-3.7096,-3.8458,-3.8539,-3.8208,-3.7927,-3.7561,-3.6998,-3.597,-3.6138,-3.6099,-3.4962,-3.6802,0.0,0.0,0.0,0.0,-4.4406,-4.6005,-4.6881,0.0,-4.6845,0.0,-4.68,-4.7085,-4.7309,0.0,-4.7309,-4.7309,-4.7309,-4.7309,-4.7207,-4.7062,-4.7062,-4.6975,-4.6712,-4.6639,-4.6639,-4.6712,-4.6712,-4.6844,-4.7062,-4.7062,-4.7164,-4.7309,-4.7309,-4.7309,-4.7309,-4.7309,-4.7309,-4.7309,-4.7309,-4.7309,-4.7309,-4.7309,-4.7309,-4.7249,-4.689,-4.6067,-4.514,-4.484,-4.4302,-4.3723,-4.3723,-4.3529,-4.329,-4.329,-4.329,-4.329,-4.329,-4.329,-4.317,-4.2699,-4.2293,-4.1867,-4.1338,-4.0461,-3.9681,-3.9285,-3.8517,-3.79,-3.79,-3.79,-3.79,-3.79,-3.79,-3.79,-3.79,-3.79,-3.7782,-3.7429,-3.7403,-3.726,-3.692,-3.6894,-3.6894,-3.6894,-3.6894,-3.6894,-3.6894,-3.6894,-3.6894,-3.6894,-3.6791,-3.6812,-3.7059,-3.6759,-3.6695,-3.6781,-3.6713,-3.6572,-3.5102,-3.6231,-3.74,-3.8523,-3.8216,-3.7608,-3.7649,-3.7125,-3.6237,-3.4882,0.0,-3.499,-3.3179,-3.5145,-3.7238,-3.786,0.0,-4.3356,-4.4819,-4.6068,-4.6929,-4.7251,-4.7309,-4.7309,-4.7309,-4.7309,-4.7309,-4.7309,-4.7309,-4.7309,-4.7309,-4.7309,-4.7309,-4.7309,-4.7309,-4.7207,-4.6975,-4.6771,-4.6771,-4.6975,-4.6975,-4.7062,-4.7309,-4.7309,-4.7309,-4.7309,-4.7309,-4.7309,-4.7309,-4.7309,-4.7309,-4.7309,-4.7309,-4.7309,-4.7309,-4.7309,-4.7309,-4.7309,-4.7309,-4.6935,-4.6337,-4.5648,-4.499,-4.4421,-4.4347,-4.3873,-4.3409,-4.3319,-4.329,-4.329,-4.329,-4.329,-4.329,-4.329,-4.2699,-4.2184,-4.2313,-4.1592,-4.0559,-3.9431,-3.8594,-3.8024,-3.79,-3.79,-3.79,-3.79,-3.79,-3.79,-3.79,-3.79,-3.79,-3.79,-3.79,-3.79,-3.79,-3.79,-3.79,-3.79,-3.79,-3.79,-3.79,-3.79,-3.79,-3.79,-3.7657,-3.7413,-3.7155,-3.6862,-3.6628,-3.6465,-3.6417,-3.6405,-3.6638,-3.7506,-3.8315,-3.8708,-3.8216,-3.7505,-3.7155,-3.5991,0.0,0.0,-3.3881,-3.3708,-3.3755,-3.5067,-3.6729,-3.8572,0.0,0.0,0.0,0.0,-4.661,0.0,0.0,0.0,-4.7309,-4.7309,0.0,0.0,-4.7309,-4.7309,-4.7309,-4.7309,-4.7309,-4.7309,-4.7309,-4.7266,-4.7207,-4.7222,-4.7222,-4.7207,-4.7207,-4.7251,-4.7309,-4.7309,-4.7309,-4.7309,-4.7309,-4.7309,-4.7309,-4.7309,-4.7309,-4.7309,-4.7309,-4.7309,-4.7309,-4.7309,-4.7309,-4.7309,-4.7309,-4.7234,-4.7025,-4.6352,-4.5678,-4.502,-4.4481,-4.4242,-4.3992,-4.3439,-4.329,-4.329,-4.329,-4.329,-4.329,-4.329,-4.317,-4.3224,-4.3775,-4.3206,-4.191,-3.9645,-3.9077,-3.876,-3.8024,-3.79,-3.79,-3.79,-3.79,-3.79,-3.79,-3.79,-3.79,-3.79,-3.79,-3.79,-3.79,-3.79,-3.79,-3.79,-3.79,-3.79,-3.79,-3.79,-3.79,-3.79,-3.7657,-3.7459,-3.7413,-3.6956,-3.6747,-3.6785,-3.6512,-3.6405,-3.6995,-3.7857,-3.8553,-3.876,-3.7915,-3.6963,-3.6611,0.0,0.0,0.0,-3.2971,-3.2779,-3.2612,0.0,0.0,0.0,0.0,0.0,0.0,0.0,0.0,0.0,0.0,0.0,0.0,-4.7309,-4.7309,-4.7309,-4.7309,-4.7309,-4.7309,-4.7309,-4.7309,-4.7309,-4.7309,-4.7309,-4.7309,-4.7309,-4.7309,-4.7309,-4.7309,-4.7309,-4.7309,-4.7309,-4.7309,-4.7309,-4.7309,-4.7309,-4.7309,-4.7309,-4.7309,-4.7309,-4.7309,-4.7309,-4.7309,-4.7309,-4.7309,-4.7309,-4.7309,-4.7309,-4.7249,-4.6935,-4.6381,-4.5768,-4.5454,-4.487,-4.4242,-4.3888,-4.3559,-4.3364,-4.3708,-4.3798,-4.3888,-4.4272,-4.4347,-4.4436,-4.4751,-4.3867,-4.2621,-4.1396,-4.012,-3.9077,-3.8639,-3.8181,-3.79,-3.79,-3.79,-3.79,-3.79,-3.79,-3.79,-3.79,-3.79,-3.79,-3.79,-3.79,-3.79,-3.79,-3.79,-3.79,-3.79,-3.79,-3.79,-3.79,-3.7505,-3.7307,-3.7307,-3.6781,-3.6606,-3.6631,-3.6465,-3.6405,-3.7082,-3.7884,-3.8523,-3.8561,-3.7556,-3.6479,-3.6029,-3.4295,0.0,0.0,-3.2214,-3.1989,-3.1633,0.0,0.0,0.0,0.0,0.0,0.0,0.0,0.0,0.0,0.0,0.0,0.0,-4.7309,0.0,-4.7309,-4.7309,-4.7309,-4.7309,-4.7309,-4.7309,-4.7309,-4.7309,-4.7309,-4.7309,-4.7309,-4.7309,-4.7309,-4.7309,-4.7309,-4.7309,-4.7309,-4.7309,-4.7309,-4.7309,-4.7309,-4.7309,-4.7309,-4.7309,-4.7309,-4.7309,-4.7309,-4.7309,-4.7309,-4.7309,-4.7309,-4.7309,-4.7309,-4.7309,-4.7309,-4.695,-4.6516,-4.6324,-4.5574,-4.4721,-4.4571,-4.4152,-4.3828,-4.4392,-4.4526,-4.4661,-4.517,-4.5409,-4.5469,-4.5334,-4.4477,-4.3579,-4.3076,-4.121,-3.9612,-3.9268,-3.8472,-3.79,-3.79,-3.79,-3.79,-3.79,-3.79,-3.79,-3.79,-3.79,-3.79,-3.79,-3.79,-3.79,-3.79,-3.79,-3.79,-3.79,-3.79,-3.7854,-3.7808,-3.7353,-3.7074,-3.7087,-3.6593,-3.6405,-3.6405,-3.6405,-3.6405,-3.7478,-3.804,-3.8369,-3.7835,-3.7162,-3.6312,-3.527,0.0,0.0,-3.2437,-3.1511,-3.1046,-3.2183,-3.2452,0.0,0.0,0.0,0.0,0.0,0.0,0.0,0.0,0.0,0.0,0.0,-4.7309,-4.7309,-4.7309,-4.7309,-4.7309,-4.7309,-4.7309,-4.7309,-4.7309,-4.7309,-4.7309,-4.7309,-4.7309,-4.7309,-4.7309,-4.7309,-4.7309,-4.7309,-4.7309,-4.7309,-4.7309,-4.7309,-4.7309,-4.7309,-4.7309,-4.7309,-4.7309,-4.7309,-4.7309,-4.7309,-4.7309,-4.7309,-4.7309,-4.7309,-4.7309,-4.7309,-4.7309,-4.7264,-4.71,-4.6459,-4.619,-4.6007,-4.5379,-4.5155,-4.5125,-4.5185,-4.5214,-4.5214,-4.5289,-4.5783,-4.6052,-4.5424,-4.5654,-4.5374,-4.3392,-4.2138,-4.09,-3.9469,-3.8472,-3.79,-3.79,-3.79,-3.79,-3.79,-3.79,-3.79,-3.79,-3.79,-3.79,-3.79,-3.79,-3.79,-3.79,-3.79,-3.79,-3.79,-3.79,-3.7808,-3.7551,-3.7261,-3.7041,-3.6939,-3.6572,-3.6405,-3.6405,-3.6405,-3.6405,-3.7426,-3.8033,-3.8355,-3.7856,-3.726,-3.6384,-3.4824,0.0,-3.2094,-3.1945,-3.1137,-3.0791,-3.172,-3.2154,-3.29,0.0,-3.5203,-3.6828,-4.0435,0.0,0.0,0.0,0.0,0.0,0.0,0.0,-4.7309,-4.7309,-4.7309,-4.7309,-4.7309,-4.7309,-4.7309,-4.7309,-4.7309,-4.7309,-4.7309,-4.7309,-4.7309,-4.7309,-4.7309,-4.7309,-4.7309,-4.7309,-4.7309,-4.7309,-4.7309,-4.7309,-4.7309,-4.7309,-4.7309,-4.7309,-4.7309,-4.7309,-4.7309,-4.7309,-4.7309,-4.7309,-4.7309,-4.7309,-4.7309,-4.7309,-4.7309,-4.7249,-4.6995,-4.6636,-4.6219,-4.5992,-4.5618,-4.5394,-4.5813,-4.6202,-4.6501,-4.6501,-4.6711,-4.6845,-4.6561,-4.6411,-4.603,-4.5141,-4.3474,-4.192,-4.1282,-3.9629,-3.8514,-3.888,-3.8619,-3.8514,-3.888,-3.8932,-3.8789,-3.8423,-3.8096,-3.79,-3.79,-3.79,-3.79,-3.79,-3.79,-3.79,-3.79,-3.79,-3.7749,-3.7505,-3.7261,-3.7041,-3.6892,-3.6572,-3.6405,-3.6405,-3.6405,-3.6405,-3.689,-3.7571,-3.7944,-3.7376,-3.696,-3.6202,0.0,-3.3029,-3.2065,-3.1601,-3.0957,-3.0717,-3.1376,-3.1884,-3.2497,0.0,-3.4218,-3.5938,-3.9245,0.0,0.0,0.0,0.0,-4.6277,0.0,-4.7189,-4.7309,-4.7309,-4.7309,-4.7309,-4.7309,-4.7309,-4.7309,-4.7309,-4.7309,-4.7309,-4.7309,-4.7309,-4.7309,-4.7309,-4.7309,-4.7309,-4.7309,-4.7309,-4.7309,-4.7309,-4.7309,-4.7309,-4.7309,-4.7309,-4.7309,-4.7309,-4.7309,-4.7309,-4.7309,-4.7309,-4.7309,-4.7309,-4.7309,-4.7309,-4.7309,-4.7309,-4.7309,-4.7309,-4.7309,-4.698,-4.6621,-4.6621,-4.6262,-4.6007,-4.6486,-4.6965,-4.7309,-4.7309,-4.7309,-4.7309,-4.7309,-4.6935,-4.6561,-4.6324,-4.4399,-4.2728,-4.2514,-4.0551,-3.9115,-3.9547,-3.9246,-3.9128,-3.956,-3.9612,-3.9455,-3.9024,-3.8645,-3.8279,-3.7926,-3.79,-3.79,-3.79,-3.79,-3.79,-3.79,-3.79,-3.7749,-3.7505,-3.7286,-3.7041,-3.6734,-3.6499,-3.6405,-3.6405,-3.6405,-3.6405,-3.5745,-3.6497,-3.6907,-3.6119,-3.6058,-3.5674,0.0,-3.2688,-3.2065,-3.1601,-3.0957,-3.0717,-3.1376,-3.1511,-3.1944,-3.3275,-3.4622,-3.6641,-3.9933,-4.1557,0.0,0.0,0.0,-4.5574,-4.6277,-4.692,-4.7309,-4.7309,-4.7309,0.0,-4.7309,-4.7309,-4.7309,-4.7309,-4.7309,-4.7309,-4.7309,-4.7309,-4.7309,-4.7309,-4.7309,-4.7309,-4.7309,-4.7309,-4.7309,-4.7309,-4.7309,-4.7309,-4.7309,-4.7309,-4.7309,-4.7309,-4.7309,-4.7309,-4.7309,-4.7309,-4.7309,-4.7309,-4.7309,-4.7309,-4.7309,-4.7309,-4.7309,-4.7309,-4.7309,-4.7309,-4.7294,-4.7294,-4.7294,-4.7279,-4.7294,-4.7294,-4.7309,-4.7309,-4.7309,-4.7309,-4.7309,-4.7294,-4.71,-4.6456,-4.4733,-4.3192,-4.2615,-4.0856,-3.9599,-3.9612,-3.9599,-3.9599,-3.9612,-3.9612,-3.9612,-3.9599,-3.9599,-3.9141,-3.8004,-3.79,-3.79,-3.79,-3.79,-3.79,-3.79,-3.79,-3.7749,-3.7505,-3.7431,-3.7053,-3.6407,-3.6402,-3.6405,-3.6405,-3.6405,-3.6405,-3.4638,-3.5477,-3.6069,-3.5175,-3.5216,-3.5038,-3.3153,-3.2915,-3.2781,-3.1735,-3.1331,-3.1241,-3.1466,-3.1511,-3.2243,-3.4502,-3.522,0.0,0.0,0.0,0.0,0.0,-4.5828,-4.6756,0.0,0.0,-4.7309,-4.7309,-4.7309,-4.7309,-4.7309,-4.7309,-4.7309,-4.7309,-4.7309,-4.7309,-4.7309,-4.7309,-4.7309,-4.7309,-4.7309,-4.7309,-4.7309,-4.7309,-4.7309,-4.7309,-4.7309,-4.7309,-4.7309,-4.7309,-4.7309,-4.7309,-4.7309,-4.7309,-4.7309,-4.7309,-4.7309,-4.7309,-4.7309,-4.7309,-4.7309,-4.7309,-4.7309,-4.7309,-4.7309,-4.7309,-4.7309,-4.7309,-4.7309,-4.7309,-4.7309,-4.7309,-4.7309,-4.7309,-4.7309,-4.7309,-4.7309,-4.7309,-4.7249,-4.704,-4.5947,-4.4772,-4.3902,-4.232,-4.1088,-4.0808,-4.0422,-4.0305,-4.0723,-4.0775,-4.0618,-4.02,-4.0161,-3.9703,-3.8553,-3.8462,-3.8292,-3.7926,-3.79,-3.79,-3.79,-3.79,-3.7729,-3.7444,-3.741,-3.7441,-3.7483,-3.6751,-3.6405,-3.6405,-3.6405,-3.6619,0.0,-3.4263,-3.4854,-3.4291,-3.4349,-3.418,-3.2826,-3.2826,-3.2826,-3.172,-3.1511,-3.1511,-3.1511,-3.1511,-3.2213,-3.4397,-3.5175,0.0,0.0,0.0,0.0,-4.4496,0.0,0.0,0.0,-4.716,-4.7309,-4.7309,-4.7309,-4.7309,-4.7309,-4.7309,-4.7309,-4.7309,-4.7309,-4.7309,-4.7309,-4.7309,-4.7309,-4.7309,-4.7309,-4.7309,-4.7309,-4.7309,-4.7309,-4.7309,-4.7309,-4.7309,0.0,-4.7309,-4.7309,-4.7309,-4.7309,-4.7309,-4.7309,-4.7309,-4.7309,-4.7309,-4.7309,-4.7309,-4.7309,-4.7309,-4.7309,-4.7309,-4.7309,-4.7309,-4.7309,-4.7309,-4.7309,-4.7309,-4.7309,-4.7309,-4.7309,-4.7309,-4.7309,-4.7309,-4.7309,-4.7309,-4.7309,-4.7309,-4.6491,-4.5463,-4.4452,-4.3147,-4.2049,-4.1395,-4.0997,-4.0893,-4.1272,-4.1311,-4.1167,-4.0788,-4.0762,-4.037,-3.9429,-3.8958,-3.8475,-3.7939,-3.79,-3.79,-3.79,-3.79,-3.7807,-3.7582,-3.7587,-3.7864,-3.8301,-3.7301,-3.6691,-3.6417,-3.6619,-3.6908,0.0,-3.2736,-3.3275,-3.323,-3.3245,-3.3125,-3.2512,-3.2378,0.0,-3.163,-3.1511,-3.1525,-3.163,-3.16,-3.2049,-3.3544,-3.4816,0.0,0.0,-4.1294,0.0,0.0,-4.6007,0.0,-4.6354,-4.695,-4.7309,-4.7309,-4.7309,-4.7309,-4.7309,-4.7309,-4.7309,-4.7309,-4.7309,-4.7309,-4.7309,-4.7309,-4.7309,-4.7309,-4.7309,-4.7309,-4.7309,-4.7309,-4.7309,-4.7309,-4.7309,-4.7309,-4.7309,-4.7309,-4.7309,-4.7309,-4.7309,-4.7309,-4.7309,-4.7309,-4.7309,-4.7309,-4.7309,-4.7309,-4.7309,-4.7309,-4.7309,-4.7309,-4.7309,-4.7309,-4.7309,-4.7309,-4.7309,-4.7309,-4.7309,-4.7309,-4.7309,-4.7309,-4.7309,-4.7309,-4.7309,-4.7309,-4.7309,-4.7309,-4.6535,-4.5553,-4.4499,-4.3545,-4.2563,-4.1448,-4.1311,-4.1311,-4.1311,-4.1311,-4.1311,-4.1311,-4.1311,-4.1076,-4.0461,-3.9442,-3.8606,-3.8057,-3.7978,-3.7965,-3.7965,-3.7939,-3.7904,-3.7955,-3.8079,-3.8293,-3.8719,-3.7893,-3.7119,-3.648,-3.6996,-3.7224,-2.94,0.0,-3.1091,-3.0627,-3.0851,-3.1165,0.0,-3.1361,-3.169,-3.154,-3.1511,-3.1809,-3.2841,-3.2617,-3.32,-3.6028,0.0,0.0,-4.0546,0.0,0.0,-4.6651,-4.698,-4.707,-4.707,-4.7219,-4.7309,-4.7309,-4.7309,-4.7309,-4.7309,-4.7309,-4.7309,-4.7309,-4.7309,-4.7309,-4.7309,-4.7309,-4.7309,-4.7309,-4.7309,-4.7309,-4.7309,-4.7309,-4.7309,-4.7309,-4.7309,-4.7309,-4.7309,-4.7309,-4.7309,-4.7309,-4.7309,-4.7309,-4.7309,-4.7309,-4.7309,-4.7309,-4.7309,-4.7309,-4.7309,-4.7309,-4.7309,-4.7309,-4.7309,-4.7309,-4.7309,-4.7309,-4.7309,-4.7309,-4.7309,-4.7309,-4.7309,-4.7309,-4.7309,-4.7309,-4.7309,-4.7309,-4.7309,-4.7309,-4.7121,-4.6358,-4.4591,-4.4125,-4.3321,-4.1547,-4.1311,-4.1311,-4.1311,-4.1311,-4.1311,-4.1311,-4.1311,-4.1076,-4.0461,-4.0174,-3.9782,-3.9246,-3.8776,-3.8514,-3.8514,-3.8111,-3.8015,-3.8346,-3.8958,-3.8825,-3.7817,-3.7577,-3.7352,-3.6998,-3.7123,-3.7651,-2.8128,-2.952,-3.0896,-3.0552,-3.0956,-3.1435,-3.1435,0.0,0.0,0.0,0.0,-3.1809,-3.2856,-3.3006,-3.3754,0.0,-3.7285,0.0,0.0,0.0,-4.5798,-4.7145,-4.7309,-4.7309,0.0,-4.7309,-4.7309,-4.7309,-4.7309,-4.7309,-4.7309,-4.7309,-4.7309,-4.7309,-4.7309,-4.7309,-4.7309,-4.7309,-4.7309,-4.7309,-4.7309,-4.7309,-4.7309,-4.7309,-4.7309,-4.7309,-4.7309,-4.7309,-4.7309,-4.7309,-4.7309,-4.7309,-4.7309,-4.7309,-4.7309,-4.7309,-4.7309,-4.7309,-4.7309,-4.7309,-4.7309,-4.7309,-4.7309,-4.7309,-4.7309,-4.7309,-4.7309,-4.7309,-4.7309,-4.7309,-4.7309,-4.7309,-4.7309,-4.7309,-4.7309,-4.7309,-4.7309,-4.7309,-4.7309,-4.7309,-4.7309,-4.6653,-4.4638,-4.4312,-4.3606,-4.1597,-4.1311,-4.1311,-4.1311,-4.1311,-4.1311,-4.1311,-4.1311,-4.118,-4.0853,-4.0827,-4.0488,-3.9664,-3.9298,-3.9115,-3.9115,-3.8713,-3.8617,-3.8815,-3.9081,-3.8692,-3.7723,-3.7703,-3.7553,-3.7199,-3.7713,-3.8291,-2.7824,-2.9669,-3.1436,-3.1137,-3.1705,-3.2333,-3.2333,0.0,0.0,0.0,0.0,0.0,-3.2811,-3.3514,0.0,0.0,0.0,0.0,-4.3793,-4.4885,-4.5798,-4.7145,-4.7309,0.0,-4.7309,-4.7309,-4.7309,-4.7309,-4.7309,-4.7309,-4.7309,-4.7309,-4.7309,-4.7309,-4.7309,-4.7309,-4.7309,-4.7309,-4.7309,-4.7309,-4.7309,-4.7309,-4.7309,-4.7309,-4.7309,-4.7309,-4.7309,-4.7309,-4.7309,-4.7309,-4.7309,-4.7309,-4.7309,-4.7309,-4.7309,-4.7309,-4.7309,-4.7309,-4.7309,-4.7309,-4.7309,-4.7309,-4.7309,-4.7309,-4.7309,-4.7309,-4.7309,-4.7309,-4.7309,-4.7309,-4.7309,-4.7309,-4.7309,-4.7309,-4.7309,-4.7309,-4.7309,-4.7309,-4.7309,-4.7309,-4.7309,-4.6697,-4.4869,-4.4406,-4.3654,-4.1832,-4.1411,-4.1311,-4.1311,-4.1311,-4.1311,-4.1311,-4.1311,-4.1311,-4.1311,-4.1311,-4.0906,-3.9926,-3.9782,-3.9681,-3.9607,-3.9291,-3.9094,-3.9019,-3.868,-3.8329,-3.8002,-3.794,-3.774,-3.7462,-3.8479,-3.8957,-2.8843,-3.0372,-3.1107,-2.9475,-3.0345,-3.1645,-3.1645,0.0,0.0,0.0,0.0,0.0,0.0,-3.5579,-3.6447,0.0,0.0,-4.1713,0.0,0.0,-4.5798,-4.7145,0.0,-4.7309,-4.7309,-4.7309,-4.7309,-4.7309,-4.7309,-4.7309,-4.7309,-4.7309,-4.7309,-4.7309,-4.7309,-4.7309,-4.7309,-4.7309,-4.7309,-4.7309,-4.7309,-4.7309,-4.7309,-4.7309,-4.7309,-4.7309,-4.7309,-4.7309,-4.7309,-4.7309,-4.7309,-4.7309,-4.7309,-4.7309,-4.7309,-4.7309,-4.7309,-4.7309,-4.7309,-4.7309,-4.7309,-4.7309,-4.7309,-4.7309,-4.7309,-4.7309,-4.7309,-4.7309,-4.7309,-4.7309,-4.7309,-4.7309,-4.7309,-4.7309,-4.7309,-4.7309,-4.7309,-4.7309,-4.7309,-4.7309,-4.7309,-4.6931,-4.5779,-4.4854,-4.389,-4.2744,-4.1868,-4.1311,-4.1311,-4.1311,-4.1311,-4.1311,-4.1311,-4.1311,-4.1311,-4.1311,-4.1246,-4.1063,-4.0579,-4.0057,-3.9623,-3.9113,-3.8666,-3.8179,-3.8102,-3.8066,-3.8002,-3.7741,-3.7954,-3.8617,-3.8844,-3.912,-2.7735,-2.9714,-3.1197,-2.9953,-3.139,-3.3125,-3.3125,-3.308,0.0,0.0,0.0,0.0,0.0,0.0,-3.7764,-4.0179,0.0,-4.2635,-4.4571,-4.511,-4.5798,0.0,0.0,-4.7309,-4.7309,-4.7309,-4.7309,-4.7309,-4.7309,-4.7309,-4.7309,-4.7309,-4.7309,-4.7309,-4.7309,-4.7309,-4.7309,-4.7309,-4.7309,-4.7309,-4.7309,-4.7309,-4.7309,-4.7309,-4.7309,-4.7309,-4.7309,-4.7309,-4.7309,-4.7309,-4.7309,-4.7309,-4.7309,-4.7309,-4.7309,-4.7309,-4.7309,-4.7309,-4.7309,-4.7309,-4.7309,-4.7309,-4.7309,-4.7309,-4.7309,-4.7309,-4.7309,-4.7309,-4.7309,-4.7309,-4.7309,-4.7309,-4.7309,-4.7309,-4.7309,-4.7309,-4.7309,-4.7309,-4.7309,-4.7309,-4.7309,-4.6975,-4.5973,-4.5417,-4.4563,-4.3019,-4.2431,-4.1904,-4.1361,-4.1311,-4.1311,-4.1311,-4.1311,-4.1311,-4.1311,-4.1311,-4.1311,-4.1311,-4.1052,-4.0709,-4.0257,-3.9803,-3.9373,-3.8929,-3.8629,-3.8479,-3.8479,-3.8304,-3.8504,-3.8932,-3.9182,-3.9446,-2.7156,-2.925,-3.1212,-3.1031,-3.2736,-3.4548,-3.4713,-3.4322,-3.4053,0.0,0.0,0.0,0.0,-3.7135,0.0,-4.1931,-4.253,-4.3204,-4.4825,-4.52,-4.5738,-4.6935,-4.7204,-4.7309,-4.7309,-4.7309,-4.7309,-4.7309,-4.7309,-4.7309,-4.7309,-4.7309,-4.7309,-4.7309,-4.7309,-4.7309,-4.7309,-4.7309,-4.7309,-4.7309,-4.7309,-4.7309,-4.7309,-4.7309,-4.7309,-4.7309,-4.7309,-4.7309,-4.7309,-4.7309,-4.7309,-4.7309,-4.7309,-4.7309,-4.7309,-4.7309,-4.7309,-4.7309,-4.7309,-4.7309,-4.7309,-4.7309,-4.7309,-4.7309,-4.7309,-4.7309,-4.7309,-4.7309,-4.7309,-4.7309,-4.7309,-4.7309,-4.7309,-4.7309,-4.7309,-4.7309,-4.7309,-4.7309,-4.7309,-4.7309,-4.7309,-4.7062,-4.6299,-4.5973,-4.5175,-4.3402,-4.2937,-4.2417,-4.1461,-4.1311,-4.1311,-4.1311,-4.1311,-4.1311,-4.1311,-4.1311,-4.1261,-4.1211,-4.1252,-4.1165,-4.0938,-4.0389,-3.9943,-3.9738,-3.9145,-3.8856,-3.8919,-3.8919,-3.8931,-3.9082,-3.9496,-3.9697,-2.8888,-2.9968,-3.0866,-3.2063,-3.344,-3.4668,-3.5295,-3.54,0.0,-3.6881,0.0,0.0,0.0,-3.8871,-4.0666,-4.2171,-4.2865,-4.3484,-4.4272,0.0,-4.5574,-4.6307,-4.6935,-4.7309,-4.7309,-4.7309,-4.7309,-4.7309,-4.7309,-4.7309,-4.7309,-4.7309,-4.7309,-4.7309,-4.7309,-4.7309,-4.7309,-4.7309,-4.7309,-4.7309,-4.7309,-4.7309,-4.7309,-4.7309,-4.7309,-4.7309,-4.7309,-4.7309,-4.7309,-4.7309,-4.7309,-4.7309,-4.7309,-4.7309,-4.7309,-4.7309,-4.7309,-4.7309,-4.7309,-4.7309,-4.7309,-4.7309,-4.7309,-4.7309,-4.7309,-4.7309,-4.7309,-4.7309,-4.7309,-4.7309,-4.7309,-4.7309,-4.7309,-4.7309,-4.7309,-4.7309,-4.7309,-4.7309,-4.7309,-4.7309,-4.7309,-4.7266,-4.7207,-4.6403,-4.5417,-4.4359,-4.3402,-4.2417,-4.1461,-4.1311,-4.1311,-4.1311,-4.1311,-4.1311,-4.1311,-4.1311,-4.1211,-4.0933,-4.1151,-4.1268,-4.1296,-4.03,-3.9728,-3.9702,-3.8969,-3.8692,-3.8919,-3.8919,-3.9132,-3.9634,-3.9672,-3.9697,-2.754,-2.94,-3.1241,-3.175,-3.32,0.0,0.0,-3.6118,-3.6941,-3.7838,-3.8018,0.0,0.0,0.0,-4.1309,-4.2246,-4.291,-4.3529,-4.4227,-4.4526,-4.5095,-4.6145,-4.6503,-4.686,-4.7264,-4.7309,-4.7309,-4.7309,-4.7309,-4.7309,-4.7309,-4.7309,-4.7309,-4.7309,-4.7309,-4.7309,-4.7309,-4.7309,-4.7309,-4.7309,-4.7309,-4.7309,-4.7309,-4.7309,-4.7309,-4.7309,-4.7309,-4.7309,-4.7309,-4.7309,-4.7309,-4.7309,-4.7309,-4.7309,-4.7309,-4.7309,-4.7309,-4.7309,-4.7309,-4.7309,-4.7309,-4.7309,-4.7309,-4.7309,-4.7309,-4.7309,-4.7309,-4.7309,-4.7309,-4.7309,-4.7309,-4.7309,-4.7309,-4.7309,-4.7309,-4.7309,-4.7309,-4.7309,-4.7309,-4.7309,-4.7309,-4.7309,-4.7309,-4.6447,-4.5463,-4.4452,-4.345,-4.2417,-4.1461,-4.1311,-4.1311,-4.1311,-4.1311,-4.1311,-4.1311,-4.1311,-4.1237,-4.1151,-4.1217,-4.1091,-4.0645,-4.0057,-3.9687,-3.9714,-3.9447,-3.9294,-3.9383,-3.9383,-3.9484,-3.9697,-3.9697,-3.9697,-2.7275,-2.949,-3.1809,-3.1809,0.0,0.0,-3.5908,-3.6776,-3.7719,-3.8796,-3.902,-3.923,-3.9918,0.0,0.0,0.0,-4.291,-4.3454,-4.3902,-4.4182,-4.4661,-4.5574,-4.5873,-4.6262,-4.6935,-4.6995,-4.7085,-4.7294,-4.7309,-4.7309,-4.7309,-4.7309,-4.7309,-4.7309,-4.7309,-4.7309,-4.7309,-4.7309,-4.7309,-4.7309,-4.7309,-4.7309,-4.7309,-4.7309,-4.7309,-4.7309,-4.7309,-4.7309,-4.7309,-4.7309,-4.7309,-4.7309,-4.7309,-4.7309,-4.7309,-4.7309,-4.7309,-4.7309,-4.7309,-4.7309,-4.7309,-4.7309,-4.7309,-4.7309,-4.7309,-4.7309,-4.7309,-4.7309,-4.7309,-4.7309,-4.7309,-4.7309,-4.7309,-4.7309,-4.7309,-4.7309,-4.7309,-4.7309,-4.7309,-4.7309,-4.7309,-4.7309,-4.7309,-4.6447,-4.5463,-4.4452,-4.345,-4.2417,-4.1461,-4.1311,-4.1311,-4.1311,-4.1311,-4.1311,-4.1311,-4.13,-4.1226,-4.1063,-4.1027,-4.0747,-4.0058,-3.9826,-3.9697,-3.9697,-3.9697,-3.9697,-3.9697,-3.9697,-3.9697,-3.9697,-3.9697,-3.9697,-2.8786,-3.0522,-3.2512,-3.2512,0.0,0.0,-3.712,-3.7434,-3.8003,-4.0008,-4.0427,-4.0621,-4.1265,-4.1422,0.0,-4.2291,-4.291,-4.329,-4.329,-4.3858,-4.4302,-4.4317,-4.4885,-4.5559,-4.6247,-4.6279,-4.6591,-4.7249,-4.7309,-4.7309,-4.7309,-4.7309,-4.7309,-4.7309,-4.7309,-4.7309,-4.7309,-4.7309,-4.7309,-4.7309,-4.7309,-4.7309,-4.7309,-4.7309,-4.7309,-4.7309,-4.7309,-4.7309,-4.7309,-4.7309,-4.7309,-4.7309,-4.7309,-4.7309,-4.7309,-4.7309,-4.7309,-4.7309,-4.7309,-4.7309,-4.7309,-4.7309,-4.7309,-4.7309,-4.7309,-4.7309,-4.7309,-4.7309,-4.7309,-4.7309,-4.7309,-4.7309,-4.7309,-4.7309,-4.7309,-4.7309,-4.7309,-4.7309,-4.7309,-4.7309,-4.7309,-4.7309,-4.7309,-4.6447,-4.5463,-4.4452,-4.345,-4.2431,-4.1461,-4.1311,-4.1311,-4.1311,-4.1311,-4.1311,-4.1311,-4.1302,-4.1063,-4.0504,-4.0492,-4.0249,-3.9714,-3.9673,-3.9697,-3.9697,-3.9697,-3.9697,-3.9697,-3.9697,-3.9697,-3.9697,-3.9697,-3.9697,-2.8906,-3.0522,0.0,-3.2512,0.0,0.0,0.0,-3.8826,0.0,0.0,-4.1826,-4.1737,-4.1467,-4.1796,0.0,-4.2366,-4.291,-4.329,-4.329,-4.3469,-4.3753,-4.4257,-4.4481,-4.487,-4.5529,-4.6037,-4.6369,-4.6563,-4.704,-4.7309,-4.7309,-4.7309,-4.7309,-4.7309,-4.7309,-4.7309,-4.7309,-4.7309,-4.7309,-4.7309,-4.7309,-4.7309,-4.7309,-4.7309,-4.7309,-4.7309,-4.7309,-4.7309,-4.7309,-4.7309,-4.7309,-4.7309,-4.7309,-4.7309,-4.7309,-4.7309,-4.7309,-4.7309,-4.7309,-4.7309,-4.7309,-4.7309,-4.7309,-4.7309,-4.7309,-4.7309,-4.7309,-4.7309,-4.7309,-4.7309,-4.7309,-4.7309,-4.7309,-4.7309,-4.7309,-4.7309,-4.7309,-4.7309,-4.7309,-4.7309,-4.7309,-4.7309,-4.7309,-4.5898,-4.4624,-4.4359,-4.2854,-4.1634,-4.1361,-4.1311,-4.1311,-4.1311,-4.1311,-4.1311,-4.1311,-4.1302,-4.1063,-4.0504,-4.0389,-4.0121,-3.9737,-3.9724,-3.9697,-3.9697,-3.9697,-3.9697,-3.9697,-3.9697,-3.9697,-3.9697,-3.9697,-3.9697,-3.0208,-3.1884,0.0,-3.4023,-3.5474,-3.733,-3.9155,0.0,0.0,0.0,-4.259,-4.2351,-4.2177,-4.2306,0.0,-4.2701,-4.3075,-4.329,-4.329,-4.329,-4.3439,-4.3828,-4.3888,-4.4182,-4.484,-4.5274,-4.5753,-4.6249,-4.6696,-4.704,-4.7294,-4.7309,-4.7309,-4.7309,-4.7309,-4.7309,-4.7309,-4.7309,-4.7309,-4.7309,-4.7309,-4.7309,-4.7309,-4.7309,-4.7309,-4.7309,-4.7309,-4.7309,-4.7309,-4.7309,-4.7309,-4.7309,-4.7309,-4.7309,-4.7309,-4.7309,-4.7309,-4.7309,-4.7309,-4.7309,-4.7309,-4.7309,-4.7309,-4.7309,-4.7309,-4.7309,-4.7309,-4.7309,-4.7309,-4.7309,-4.7309,-4.7309,-4.7309,-4.7309,-4.7309,-4.7309,-4.7309,-4.7309,-4.7309,-4.7309,-4.7309,-4.7309,-4.7309,-4.5613,-4.4312,-4.4312,-4.295,-4.1733,-4.1361,-4.1634,-4.1918,-4.1918,-4.1547,-4.15,-4.2027,-4.1607,-4.1026,-4.0415,-4.016,-3.9903,-3.9697,-3.9697,-3.9697,-3.9697,-3.9697,-3.9697,-3.9697,-3.9697,-3.9697,-3.9697,-3.9697,-3.9697,-3.2018,-3.3844,0.0,-3.6237,-3.7045,0.0,-4.0816,-4.1976,-4.2626,-4.317,0.0,-4.2626,-4.3185,-4.2851,-4.2641,-4.32,-4.329,-4.329,-4.329,-4.329,-4.329,-4.329,-4.329,-4.3529,-4.4167,-4.4272,-4.4825,-4.601,-4.6145,-4.6516,-4.7174,-4.7219,-4.7249,-4.7309,-4.7309,-4.7309,-4.7309,-4.7309,-4.7309,-4.7309,-4.7309,-4.7309,-4.7309,-4.7309,-4.7309,-4.7309,-4.7309,-4.7309,-4.7309,-4.7309,-4.7309,-4.7309,-4.7309,-4.7309,-4.7309,-4.7309,-4.7309,-4.7309,-4.7309,-4.7309,-4.7309,-4.7309,-4.7309,-4.7309,-4.7309,-4.7309,-4.7309,-4.7309,-4.7309,-4.7309,-4.7309,-4.7309,-4.7309,-4.7309,-4.7309,-4.7309,-4.7309,-4.7309,-4.7309,-4.7309,-4.7309,-4.7309,-4.7309,-4.5718,-4.4406,-4.4312,-4.3497,-4.2612,-4.1683,-4.2382,-4.2937,-4.2937,-4.2065,-4.1938,-4.3034,-4.195,-4.0939,-4.0211,-3.9839,-3.9697,-3.9697,-3.9697,-3.9697,-3.9697,-3.9697,-3.9697,-3.9697,-3.9697,-3.9697,-3.9697,-3.9697,-3.9697,-3.1001,-3.2781,0.0,0.0,-3.7749,-4.0038,-4.113,-4.2282,-4.3125,-4.326,-4.3185,-4.3125,-4.3275,-4.317,-4.3125,-4.3275,-4.329,-4.329,-4.329,-4.329,-4.329,-4.329,-4.329,-4.3349,-4.3484,-4.4003,-4.4436,-4.4721,-4.5229,-4.5813,-4.6501,-4.6531,-4.677,-4.7294,-4.7309,-4.7309,-4.7309,-4.7309,-4.7309,-4.7309,-4.7309,-4.7309,-4.7309,-4.7309,-4.7309,-4.7309,-4.7309,-4.7309,-4.7309,-4.7309,-4.7309,-4.7309,-4.7309,-4.7309,-4.7309,-4.7309,-4.7309,-4.7309,-4.7309,-4.7309,-4.7309,-4.7309,-4.7309,-4.7309,-4.7309,-4.7309,-4.7309,-4.7309,-4.7309,-4.7309,-4.7309,-4.7309,-4.7309,-4.7309,-4.7309,-4.7309,-4.7309,-4.7309,-4.7309,-4.7309,-4.7309,-4.7309,-4.7309,-4.627,-4.5235,-4.4406,-4.4125,-4.389,-4.3701,-4.3843,-4.3984,-4.3984,-4.33,-4.2568,-4.1781,-4.1106,-4.0415,-3.9854,-3.9737,-3.9697,-3.9697,-3.9697,-3.9697,-3.9697,-3.9697,-3.9697,-3.9697,-3.9697,-3.9697,-3.9697,-3.9697,-3.9788,-3.1599,0.0,0.0,-3.6088,0.0,-4.0487,-4.0831,-4.1923,-4.2865,-4.2865,-4.312,-4.329,-4.329,-4.329,-4.329,-4.329,-4.329,-4.329,-4.329,-4.329,-4.329,-4.329,-4.329,-4.329,-4.329,-4.3604,-4.3932,-4.4287,-4.4631,-4.5125,-4.5798,-4.5828,-4.5992,-4.6337,-4.6666,-4.683,-4.683,-4.7145,-4.7309,-4.7309,-4.7309,-4.7309,-4.7309,-4.7309,-4.7309,-4.7309,-4.7309,-4.7309,-4.7309,-4.7309,-4.7309,-4.7309,-4.7309,-4.7309,-4.7309,-4.7309,-4.7309,-4.7309,-4.7309,-4.7309,-4.7309,-4.7309,-4.7309,-4.7309,-4.7309,-4.7309,-4.7309,-4.7309,-4.7309,-4.7309,-4.7309,-4.7309,-4.7309,-4.7309,-4.7309,-4.7309,-4.7309,-4.7309,-4.7309,-4.7309,-4.7309,-4.7309,-4.7309,-4.6447,-4.5463,-4.4452,-4.4716,-4.4854,-4.4359,-4.4716,-4.4992,-4.4992,-4.3982,-4.3121,-4.2793,-4.162,-4.0644,-4.0121,-4.0083,-4.0096,-4.0096,-3.9942,-3.9839,-3.9697,-3.9697,-3.9697,-3.9697,-3.9697,-3.9697,-3.9697,-3.9697,-3.9839,-3.1884,0.0,-3.5262,-3.7109,-3.9078,0.0,-4.0434,-4.1324,-4.2231,-4.2231,-4.2806,-4.329,-4.329,-4.329,-4.329,-4.329,-4.329,-4.329,-4.329,-4.329,-4.329,-4.329,-4.329,-4.329,-4.329,-4.329,-4.3514,-4.4107,-4.4152,-4.4436,-4.5095,-4.5125,-4.517,-4.5289,-4.5843,-4.6142,-4.6142,-4.6681,-4.695,-4.695,-4.695,-4.7025,-4.713,-4.713,-4.7189,-4.7309,-4.7352,-4.7337,-4.7352,-4.7381,-4.7381,-4.7337,-4.7337,-4.7352,-4.7309,-4.7309,-4.7309,-4.7309,-4.7309,-4.7309,-4.7309,-4.7309,-4.7309,-4.7309,-4.7309,-4.7309,-4.7309,-4.7309,-4.7309,-4.7309,-4.7309,-4.7309,-4.7309,-4.7309,-4.7309,-4.7309,-4.7309,-4.7309,-4.7309,-4.7309,-4.7309,-4.7309,-4.7309,-4.6594,-4.5793,-4.4961,-4.5522,-4.5748,-4.4915,-4.5372,-4.5867,-4.6044,-4.48,-4.4228,-4.4791,-4.248,-4.0936,-4.0632,-4.0581,-4.0517,-4.0504,-4.0287,-4.0032,-3.9788,-3.9749,-3.9697,-3.9697,-3.9697,-3.9697,-3.9697,-3.9736,-3.9929,0.0,0.0,-3.6552,0.0,-3.9784,-4.1107,0.0,0.0,-4.1504,0.0,-4.2491,-4.329,-4.329,-4.329,-4.329,-4.329,-4.329,-4.329,-4.329,-4.329,-4.329,-4.329,-4.329,-4.329,-4.329,-4.329,-4.3334,-4.3424,-4.3424,-4.3708,-4.4407,-4.4451,-4.4706,-4.5274,-4.5394,-4.5424,-4.5424,-4.5514,-4.5559,-4.5559,-4.5559,-4.5873,-4.6414,-4.6414,-4.677,-4.7309,-4.7467,-4.7538,-4.7596,-4.7794,-4.7752,-4.7538,-4.7538,-4.7467,-4.7309,-4.7309,-4.7309,-4.7309,-4.7309,-4.7309,-4.7309,-4.7309,-4.7309,-4.7309,-4.7309,-4.7309,-4.7309,-4.7309,-4.7309,-4.7309,-4.7309,-4.7309,-4.7309,-4.7309,-4.7309,-4.7309,-4.7309,-4.7309,-4.7309,-4.7309,-4.7309,-4.7309,-4.7309,-4.7207,-4.7062,-4.6931,-4.7019,-4.7062,-4.6931,-4.6255,-4.6148,-4.699,-4.6897,-4.6781,-4.6908,-4.2595,-4.0273,-4.1143,-4.09,-4.0682,-4.0504,-4.0453,-4.0338,-4.0032,-3.9839,-3.9697,-3.9697,-3.9697,-3.9697,-3.9697,-3.9929,-4.0185,-3.0,-3.304,-3.5871,0.0,-3.9062,-3.9748,-3.9826,0.0,-4.0831,-4.0831,-4.1579,-4.2357,-4.2716,-4.309,-4.329,-4.329,-4.329,-4.329,-4.329,-4.329,-4.329,-4.329,-4.329,-4.329,-4.329,-4.329,-4.329,-4.329,-4.329,-4.3424,-4.3708,-4.3723,-4.3858,-4.4182,-4.4556,-4.4751,-4.4751,-4.511,-4.5289,-4.5289,-4.5413,-4.5605,-4.5905,-4.603,-4.6575,-4.7467,-4.7538,-4.7666,-4.7837,-4.7964,-4.7922,-4.7837,-4.7837,-4.7681,-4.7467,-4.7467,-4.7381,-4.7309,-4.7309,-4.7309,-4.7309,-4.7309,-4.7309,-4.7309,-4.7309,-4.7309,-4.7309,-4.7309,-4.7309,-4.7309,-4.7309,-4.7309,-4.7309,-4.7309,-4.7309,-4.7309,-4.7309,-4.7309,-4.7309,-4.7309,-4.7309,-4.7309,-4.7309,-4.7309,-4.7309,-4.7309,-4.7309,-4.7309,-4.7309,-4.6916,-4.683,-4.7258,-4.731,-4.73,-4.729,-4.3162,-4.0824,-4.1264,-4.1185,-4.1049,-4.0959,-4.0795,-4.0593,-4.0338,-4.0032,-3.9839,-3.9697,-3.9839,-3.9929,-3.9929,-4.0185,-4.0491,0.0,0.0,-3.5019,-3.7104,-3.8272,-3.8951,0.0,0.0,-4.0157,0.0,-4.0666,-4.128,-4.1811,-4.2402,-4.2836,-4.2836,-4.297,-4.309,-4.309,-4.3185,-4.329,-4.329,-4.329,-4.329,-4.329,-4.329,-4.329,-4.329,-4.329,-4.329,-4.329,-4.329,-4.329,-4.329,-4.3768,-4.4062,-4.4062,-4.4541,-4.4796,-4.4796,-4.5,-4.5197,-4.5348,-4.5581,-4.6273,-4.7295,-4.7477,-4.7713,-4.8091,-4.8133,-4.8133,-4.8091,-4.8091,-4.7922,-4.7709,-4.7709,-4.7538,-4.7396,-4.7396,-4.7337,-4.7309,-4.7309,-4.7309,-4.7309,-4.7309,-4.7309,-4.7309,-4.7309,-4.7309,-4.7309,-4.7309,-4.7309,-4.7309,-4.7309,-4.7309,-4.7309,-4.7309,-4.7309,-4.7309,-4.7309,-4.7309,-4.7309,-4.7309,-4.7309,-4.7309,-4.7309,-4.7309,-4.7309,-4.7309,-4.7017,-4.6916,-4.7256,-4.6371,-4.6198,-4.7232,-4.456,-4.2685,-4.2328,-4.1985,-4.1773,-4.1683,-4.1235,-4.0896,-4.0605,-4.0389,-4.0134,-3.9788,-4.0083,-4.0185,-4.0236,-4.0491,-4.0694,0.0,-3.2384,0.0,-3.5392,0.0,0.0,0.0,0.0,-3.9433,-3.9433,-3.9993,-4.0457,-4.0502,-4.104,-4.1489,-4.1489,-4.2051,-4.2455,-4.2455,-4.294,-4.329,-4.329,-4.329,-4.329,-4.329,-4.329,-4.329,-4.329,-4.329,-4.329,-4.329,-4.329,-4.329,-4.329,-4.3319,-4.3349,-4.3349,-4.3379,-4.3394,-4.3394,-4.3662,-4.4097,-4.467,-4.494,-4.5534,-4.6381,-4.7023,-4.7664,-4.8286,-4.8495,-4.8453,-4.8286,-4.8286,-4.8175,-4.7964,-4.7964,-4.7794,-4.7581,-4.7581,-4.7467,-4.7309,-4.7309,-4.7309,-4.7309,-4.7309,-4.7309,-4.7309,-4.7309,-4.7309,-4.7309,-4.7309,-4.7309,-4.7309,-4.7309,-4.7309,-4.7309,-4.7309,-4.7309,-4.7309,-4.7309,-4.7309,-4.7309,-4.7309,-4.7309,-4.7309,-4.7309,-4.7309,-4.7309,-4.7309,-4.6197,-4.5883,-4.7183,-4.3874,-4.3171,-4.6969,-4.7131,-4.6472,-4.5194,-4.391,-4.3052,-4.2757,-4.1769,-4.1147,-4.0883,-4.0883,-4.058,-4.007,-4.0351,-4.0453,-4.0504,-4.0732,-4.0883,0.0,0.0,0.0,-3.4657,-3.5981,-3.6806,-3.7545,-3.8235,-3.8751,-3.8751,-3.929,-3.9768,-3.9768,-4.0651,-4.1422,-4.1422,-4.1617,-4.1916,-4.2336,-4.2605,-4.2865,-4.3245,-4.329,-4.329,-4.329,-4.329,-4.329,-4.329,-4.329,-4.329,-4.329,-4.329,-4.329,-4.329,-4.329,-4.3384,-4.3557,-4.3557,-4.3636,-4.3738,-4.3972,-4.421,-4.4439,-4.4633,-4.5156,-4.5839,-4.6085,-4.6576,-4.7205,-4.7286,-4.7532,-4.785,-4.785,-4.7987,-4.8202,-4.8202,-4.8049,-4.7837,-4.7681,-4.7538,-4.7467,-4.7337,-4.7309,-4.7309,-4.7309,-4.7309,-4.7309,-4.7309,-4.7309,-4.7309,-4.7309,-4.7309,-4.7309,-4.7309,-4.7309,-4.7309,-4.7309,-4.7309,-4.7309,-4.7309,-4.7309,-4.7309,-4.7309,-4.7309,-4.7309,-4.7309,-4.7309,-4.7309,-4.7309,-4.6872,-4.6785,-4.7242,-4.5991,-4.471,-4.3567,-4.3435,-4.3252,-4.2767,-4.2279,-4.1984,-4.1819,-4.1498,-4.1147,-4.0896,-4.1047,-4.0896,-4.0351,-4.0643,-4.0744,-4.0744,-4.1047,-4.1161,-2.7489,0.0,0.0,0.0,0.0,-3.4924,-3.6645,0.0,-3.7868,-3.8302,-3.8751,-3.914,-3.9379,-4.0127,-4.0726,-4.0726,-4.0905,-4.128,-4.1976,-4.2261,-4.2635,-4.3215,-4.329,-4.329,-4.329,-4.329,-4.329,-4.329,-4.329,-4.329,-4.329,-4.329,-4.3329,-4.3423,-4.3503,-4.3621,-4.3808,-4.3808,-4.3871,-4.3988,-4.4205,-4.4281,-4.432,-4.4511,-4.4856,-4.5249,-4.5249,-4.5757,-4.6603,-4.6603,-4.6865,-4.7296,-4.7511,-4.7799,-4.8105,-4.8335,-4.8244,-4.8049,-4.7837,-4.7681,-4.7596,-4.7396,-4.7309,-4.7309,-4.7309,-4.7309,-4.7309,-4.7309,-4.7309,-4.7309,-4.7309,-4.7309,-4.7309,-4.7309,-4.7309,-4.7309,-4.7309,-4.7309,-4.7309,-4.7309,-4.7309,-4.7309,-4.7309,-4.7309,-4.7309,-4.7309,-4.7309,-4.7309,-4.7309,-4.7309,-4.7309,-4.7309,-4.7309,-4.621,-4.3553,-4.2884,-4.2713,-4.2818,-4.2194,-4.1819,-4.1819,-4.1498,-4.1211,-4.1047,-4.1211,-4.111,-4.0757,-4.0959,-4.1047,-4.1047,-4.1211,-4.1311,0.0,0.0,0.0,0.0,0.0,0.0,-3.606,0.0,-3.6761,-3.8048,-3.8332,-3.8571,-3.926,-3.9373,-3.9388,-3.9388,-3.9963,-4.0591,-4.1265,-4.1961,-4.262,-4.3185,-4.329,-4.329,-4.329,-4.329,-4.329,-4.329,-4.329,-4.329,-4.329,-4.329,-4.3423,-4.369,-4.3871,-4.3988,-4.3988,-4.4026,-4.4026,-4.4026,-4.4205,-4.432,-4.432,-4.4511,-4.461,-4.461,-4.461,-4.5326,-4.6542,-4.6542,-4.6542,-4.6634,-4.7311,-4.7588,-4.7681,-4.8373,-4.8453,-4.8244,-4.8049,-4.7837,-4.7596,-4.7396,-4.7309,-4.7309,-4.7309,-4.7309,-4.7309,-4.7309,-4.7309,-4.7309,-4.7309,-4.7309,-4.7309,-4.7309,-4.7309,-4.7309,-4.7309,-4.7309,-4.7309,-4.7309,-4.7309,-4.7309,-4.7309,-4.7309,-4.7309,-4.7309,-4.7309,-4.7309,-4.7309,-4.7309,-4.7309,-4.7309,-4.7309,-4.7266,-4.7222,-4.599,-4.5351,-4.5629,-4.3815,-4.2744,-4.2744,-4.1819,-4.1311,-4.1311,-4.1311,-4.1311,-4.1311,-4.1311,-4.1311,-4.1311,-4.1311,-4.1311,-2.6853,0.0,0.0,0.0,0.0,0.0,0.0,0.0,-3.4696,-3.6028,-3.7045,-3.7883,-3.8556,-3.908,-3.9388,-3.9388,-3.9574,-3.9918,-4.0576,-4.1235,-4.1931,-4.259,-4.3045,-4.329,-4.329,-4.329,-4.329,-4.329,-4.329,-4.329,-4.329,-4.329,-4.3329,-4.3423,-4.3636,-4.3832,-4.3988,-4.4127,-4.4281,-4.4435,-4.4511,-4.4511,-4.4511,-4.4572,-4.461,-4.461,-4.461,-4.4825,-4.5126,-4.5126,-4.5418,-4.5926,-4.6603,-4.7092,-4.7492,-4.8275,-4.837,-4.8091,-4.8007,-4.7837,-4.7596,-4.7396,-4.7309,-4.7309,-4.7309,-4.7309,-4.7309,-4.7309,-4.7309,-4.7309,-4.7309,-4.7309,-4.7309,-4.7309,-4.7309,-4.7309,-4.7309,-4.7309,-4.7309,-4.7309,-4.7309,-4.7309,-4.7309,-4.7309,-4.7309,-4.7309,-4.7309,-4.7309,-4.7309,-4.7309,-4.7309,-4.7309,-4.7309,-4.6697,-4.5235,-4.4355,-4.3476,-4.2598,-4.2016,-4.1733,-4.1733,-4.1448,-4.1311,-4.1311,-4.1311,-4.1311,-4.1311,-4.1311,-4.1311,-4.1311,-4.1311,-4.1311,-2.789,-2.8382,-2.9525,-3.013,0.0,0.0,-3.3084,-3.3378,-3.3711,0.0,-3.6691,-3.7225,-3.7853,-3.8542,-3.899,-3.899,-3.923,-3.9649,-4.0307,-4.0726,-4.1324,-4.2291,-4.2701,-4.303,-4.3275,-4.329,-4.329,-4.329,-4.329,-4.329,-4.329,-4.3423,-4.3463,-4.3463,-4.3714,-4.391,-4.4127,-4.4243,-4.4396,-4.461,-4.461,-4.461,-4.461,-4.461,-4.461,-4.461,-4.461,-4.461,-4.461,-4.461,-4.4841,-4.5234,-4.5832,-4.6429,-4.7063,-4.7696,-4.7832,-4.7665,-4.7497,-4.7314,-4.7159,-4.6933,-4.7085,-4.7309,-4.7309,-4.7309,-4.7309,-4.7309,-4.7309,-4.7309,-4.7309,-4.7309,-4.7309,-4.7309,-4.7309,-4.7309,-4.7309,-4.7309,-4.7309,-4.7309,-4.7309,-4.7309,-4.7309,-4.7309,-4.7309,-4.7309,-4.7309,-4.7309,-4.7309,-4.7309,-4.7309,-4.7309,-4.7309,-4.6844,-4.5658,-4.4408,-4.3399,-4.2612,-4.1782,-4.1311,-4.1311,-4.1311,-4.1311,-4.1311,-4.1311,-4.1311,-4.1311,-4.1311,-4.1311,-4.1311,-4.1311,-4.1311,-2.9466,-2.9858,-3.0836,-3.1271,-3.0987,0.0,-3.4222,-3.3561,-3.3231,0.0,-3.6483,-3.6372,-3.706,-3.7734,-3.8197,-3.8272,-3.8856,-3.9529,-4.0187,-4.0352,-4.0861,-4.2141,-4.2351,-4.2626,-4.323,-4.329,-4.329,-4.329,-4.329,-4.329,-4.329,-4.3518,-4.369,-4.369,-4.3871,-4.405,-4.4281,-4.4281,-4.4396,-4.461,-4.461,-4.461,-4.461,-4.461,-4.461,-4.461,-4.461,-4.461,-4.461,-4.461,-4.461,-4.4649,-4.5132,-4.576,-4.6453,-4.6819,-4.698,-4.7006,-4.6618,-4.6493,-4.6451,-4.6244,-4.6606,-4.71,-4.7174,-4.7189,-4.7204,-4.7279,-4.7309,-4.7309,-4.7309,-4.7309,-4.7309,-4.7309,-4.7309,-4.7309,-4.7309,-4.7309,-4.7309,-4.7309,-4.7309,-4.7309,-4.7309,-4.7309,-4.7309,-4.7309,-4.7309,-4.7309,-4.7309,-4.7309,-4.7309,-4.7309,-4.7309,-4.7193,-4.6872,-4.5267,-4.4219,-4.3984,-4.2297,-4.1311,-4.1311,-4.1311,-4.1311,-4.1311,-4.1311,-4.1311,-4.1311,-4.1311,-4.1311,-4.1311,-4.1311,-4.1311,-3.1967,-3.1923,-3.1898,-3.0941,-3.0987,0.0,-3.1441,-3.1581,-3.2018,0.0,-3.3786,-3.4442,-3.5654,-3.6417,-3.7015,-3.7524,-3.8153,-3.8826,-3.9514,-4.0068,-4.0696,-4.1512,-4.2081,-4.2626,-4.323,-4.329,-4.329,-4.329,-4.329,-4.329,-4.329,-4.3344,-4.3463,-4.369,-4.3729,-4.3949,-4.4281,-4.4281,-4.4396,-4.461,-4.461,-4.461,-4.461,-4.461,-4.461,-4.461,-4.461,-4.461,-4.461,-4.461,-4.461,-4.4649,-4.5287,-4.5445,-4.5407,-4.6158,-4.6117,-4.5706,-4.583,-4.5748,-4.5567,-4.5499,-4.5589,-4.5783,-4.6352,-4.6516,-4.6636,-4.716,-4.7309,-4.7309,-4.7309,-4.7309,-4.7309,-4.7309,-4.7309,-4.7309,-4.7309,-4.7309,-4.7309,-4.7309,-4.7309,-4.7309,-4.7309,-4.7309,-4.7309,-4.7309,-4.7309,-4.7309,-4.7309,-4.7309,-4.7309,-4.7309,-4.7309,-4.6432,-4.4242,-4.4204,-4.3606,-4.1967,-4.1511,-4.1311,-4.1311,-4.1311,-4.1311,-4.1311,-4.1311,-4.1311,-4.1311,-4.1311,-4.1311,-4.1311,-4.1311,-4.1311,-3.3767,-3.3541,-3.326,-3.2243,-3.2258,0.0,0.0,-3.2447,-3.2451,-3.4122,-3.3924,-3.3799,-3.4816,-3.5549,-3.6103,-3.6402,-3.7539,-3.8392,-3.8407,-3.9275,-4.0157,-4.0816,-4.119,-4.1639,-4.2297,-4.2656,-4.2985,-4.3275,-4.329,-4.329,-4.329,-4.329,-4.3384,-4.3518,-4.3636,-4.3832,-4.4127,-4.4243,-4.4396,-4.461,-4.461,-4.461,-4.461,-4.461,-4.461,-4.461,-4.461,-4.461,-4.461,-4.461,-4.461,-4.4603,-4.488,-4.5101,-4.5321,-4.5403,-4.5339,-4.5152,-4.503,-4.4892,-4.4811,-4.4811,-4.5035,-4.5364,-4.5708,-4.6052,-4.6456,-4.7115,-4.7309,-4.7309,-4.7309,-4.7309,-4.7309,-4.7309,-4.7309,-4.7309,-4.7309,-4.7309,-4.7309,-4.7309,-4.7309,-4.7309,-4.7309,-4.7309,-4.7309,-4.7309,-4.7309,-4.7309,-4.7309,-4.7309,-4.7309,-4.7309,-4.7309,-4.6564,-4.4704,-4.4847,-4.4205,-4.2199,-4.2052,-4.1819,-4.1311,-4.1311,-4.1311,-4.1311,-4.1311,-4.1311,-4.1311,-4.1311,-4.1311,-4.1311,-4.1311,-4.1311,-3.535,-3.517,-3.4841,-3.3904,-3.3982,-3.4409,0.0,0.0,0.0,-3.5431,-3.459,0.0,0.0,0.0,0.0,0.0,0.0,0.0,0.0,-3.8093,0.0,-4.0113,-4.0322,-4.0651,-4.1309,-4.1677,-4.2117,-4.2895,-4.2796,-4.2841,-4.3095,-4.323,-4.3329,-4.3384,-4.3596,-4.3808,-4.4065,-4.4205,-4.4396,-4.461,-4.461,-4.461,-4.461,-4.461,-4.461,-4.461,-4.461,-4.461,-4.461,-4.461,-4.461,-4.4572,-4.4435,-4.4757,-4.5271,-4.4747,-4.4643,-4.4713,-4.4298,-4.4163,-4.4122,-4.4122,-4.4571,-4.511,-4.511,-4.5589,-4.6232,-4.677,-4.701,-4.7115,-4.7115,-4.7204,-4.7309,-4.7309,-4.7309,-4.7309,-4.7309,-4.7309,-4.7309,-4.7309,-4.7309,-4.7309,-4.7309,-4.7309,-4.7309,-4.7309,-4.7309,-4.7309,-4.7309,-4.7309,-4.7309,-4.7309,-4.7309,-4.6873,-4.5869,-4.5644,-4.4762,-4.2923,-4.2598,-4.215,-4.1311,-4.1311,-4.1311,-4.1311,-4.1206,-4.1141,-4.1141,-4.1036,-4.1102,-4.1311,-4.1193,-4.1141,-3.703,-3.7216,-3.6719,-3.4841,-3.5747,-3.6473,-3.4211,0.0,-3.4189,-3.3876,0.0,0.0,0.0,0.0,0.0,0.0,0.0,0.0,-3.5729,-3.6357,-3.7494,-3.932,-4.0053,-4.0651,-4.1309,-4.0382,-4.0262,-4.1504,-4.107,-4.125,-4.2455,-4.3015,-4.3423,-4.3651,-4.369,-4.3871,-4.4243,-4.4281,-4.4396,-4.461,-4.461,-4.461,-4.461,-4.461,-4.461,-4.461,-4.461,-4.461,-4.461,-4.461,-4.461,-4.461,-4.4572,-4.4519,-4.4442,-4.435,-4.4133,-4.3835,-4.3796,-4.3623,-4.3409,-4.3409,-4.3883,-4.4421,-4.4421,-4.4885,-4.5424,-4.5514,-4.5963,-4.6384,-4.6384,-4.686,-4.7309,-4.7309,-4.7309,-4.7309,-4.7309,-4.7309,-4.7309,-4.7309,-4.7309,-4.7309,-4.7309,-4.7309,-4.7309,-4.7309,-4.7309,-4.7309,-4.7309,-4.7309,-4.7309,-4.7309,-4.7309,-4.6873,-4.5869,-4.4992,-4.397,-4.2889,-4.1954,-4.1411,-4.1311,-4.1311,-4.1311,-4.1311,-4.0788,-4.0514,-4.0514,-4.003,-4.0331,-4.1311,-4.0762,-4.0514,-3.8133,-3.7961,-3.7248,-3.6029,-3.6312,-3.6511,-3.5,-3.4562,-3.4548,-3.4637,0.0,0.0,0.0,0.0,0.0,0.0,-3.4472,0.0,0.0,0.0,-3.6507,0.0,0.0,0.0,-4.0113,-3.9379,-3.9529,-4.1287,-4.0412,-4.0561,-4.2306,-4.2626,-4.2995,-4.3448,-4.3596,-4.3847,-4.4127,-4.4243,-4.4396,-4.461,-4.461,-4.461,-4.461,-4.461,-4.461,-4.461,-4.461,-4.461,-4.461,-4.461,-4.461,-4.461,-4.461,-4.4549,-4.4473,-4.4358,-4.4205,-4.4026,-4.3754,-4.3636,-4.3518,-4.3344,-4.3484,-4.3768,-4.4197,-4.4511,-4.4811,-4.5185,-4.5783,-4.6279,-4.6279,-4.6815,-4.7309,-4.7309,-4.7309,-4.7309,-4.7309,-4.7309,-4.7309,-4.7309,-4.7309,-4.7309,-4.7309,-4.7309,-4.7309,-4.7309,-4.7309,-4.7309,-4.7309,-4.7309,-4.7309,-4.7309,-4.7309,-4.6653,-4.5052,-4.5098,-4.4252,-4.2052,-4.1547,-4.1311,-4.1311,-4.1311,-4.1154,-4.0801,-4.054,-4.0265,-3.9952,-3.9716,-3.986,-4.0318,-4.0069,-3.9952,-3.8343,-3.8134,-3.7652,-3.6583,-3.654,-3.6547,-3.5687,-3.5265,-3.5115,-3.5444,-3.4876,0.0,0.0,0.0,-3.3709,-3.3529,0.0,-3.3978,0.0,-3.4068,0.0,0.0,0.0,0.0,0.0,-3.7928,-3.8212,-4.0397,-3.9349,-3.9559,-4.1752,-4.2201,-4.262,-4.3045,-4.3545,-4.3832,-4.3988,-4.4243,-4.4473,-4.461,-4.461,-4.461,-4.461,-4.461,-4.461,-4.461,-4.461,-4.461,-4.461,-4.461,-4.4572,-4.4534,-4.4587,-4.4534,-4.4435,-4.4396,-4.432,-4.4181,-4.3871,-4.369,-4.3557,-4.3384,-4.329,-4.3379,-4.3898,-4.4047,-4.4182,-4.484,-4.5514,-4.6082,-4.6234,-4.6815,-4.7249,-4.7085,-4.704,-4.704,-4.704,-4.704,-4.7085,-4.7264,-4.7309,-4.7309,-4.7309,-4.7309,-4.7309,-4.7309,-4.7309,-4.7309,-4.7309,-4.7309,-4.7309,-4.7309,-4.7309,-4.6697,-4.525,-4.5553,-4.4624,-4.1868,-4.1448,-4.1311,-4.1311,-4.1311,-4.1036,-4.0422,-4.0278,-3.9926,-3.9364,-3.922,-3.9141,-3.9141,-3.9298,-3.9364,-3.7371,-3.7826,-3.8237,-3.6064,-3.6508,-3.7118,-3.5802,-3.5983,-3.6252,-3.5624,-3.5968,-3.6207,-3.5579,-3.4906,-3.4264,-3.3604,-3.3514,0.0,0.0,0.0,0.0,0.0,0.0,0.0,0.0,-3.5729,-3.5716,-3.8287,-3.73,-3.7719,-4.0322,-4.1707,-4.241,-4.2425,-4.3445,-4.3988,-4.3988,-4.4396,-4.4572,-4.461,-4.461,-4.461,-4.461,-4.461,-4.461,-4.461,-4.461,-4.461,-4.461,-4.461,-4.4511,-4.432,-4.4534,-4.4358,-4.4065,-4.4473,-4.4358,-4.4026,-4.3988,-4.3699,-4.329,-4.329,-4.329,-4.329,-4.3319,-4.3319,-4.3469,-4.4152,-4.4811,-4.5484,-4.6157,-4.6815,-4.7145,-4.6516,-4.6309,-4.6309,-4.6309,-4.6309,-4.6503,-4.7174,-4.7309,-4.7309,-4.7309,-4.7309,-4.7309,-4.7309,-4.7309,-4.7309,-4.7309,-4.7309,-4.7309,-4.7309,-4.7309,-4.7266,-4.7207,-4.6344,-4.4932,-4.2889,-4.1819,-4.1311,-4.1311,-4.1311,-4.1036,-4.0422,-3.9899,-3.9337,-3.8736,-3.8214,-3.7952,-3.7965,-3.8501,-3.8736,-3.9946,-3.9733,-3.926,-3.7526,-3.7357,-3.7258,-3.5809,-3.6013,-3.6297,-3.5639,-3.6028,-3.6297,-3.5624,-3.4936,-3.4444,-3.4219,-3.341,-3.2766,0.0,0.0,0.0,0.0,0.0,0.0,0.0,0.0,-3.5878,-3.7614,-3.6971,-3.7629,-4.0262,-4.0965,-4.1686,-4.2588,-4.2607,-4.2925,-4.3533,-4.3662,-4.3813,-4.3947,-4.4409,-4.461,-4.461,-4.461,-4.461,-4.461,-4.461,-4.461,-4.461,-4.461,-4.4572,-4.4511,-4.4572,-4.4435,-4.4205,-4.4358,-4.4243,-4.3988,-4.3832,-4.3581,-4.329,-4.329,-4.329,-4.329,-4.329,-4.329,-4.3424,-4.4122,-4.4781,-4.5454,-4.6142,-4.6486,-4.6591,-4.6324,-4.5978,-4.5648,-4.5648,-4.6007,-4.6396,-4.6563,-4.701,-4.7309,-4.7309,-4.7309,-4.7309,-4.7309,-4.7309,-4.7309,-4.7309,-4.7309,-4.7309,-4.7309,-4.7309,-4.7019,-4.6358,-4.4762,-4.3531,-4.284,-4.1868,-4.1311,-4.1311,-4.1311,-4.1036,-4.0422,-3.9886,-3.9311,-3.871,-3.8161,-3.79,-3.79,-3.8096,-3.8174,-4.0812,-4.0212,-3.9517,-3.8239,-3.7859,-3.7488,-3.6205,-3.6442,-3.6742,-3.6067,-3.6244,-3.6465,-3.6289,-3.5477,-3.4788,-3.4548,-3.3559,-3.2706,0.0,-3.2138,0.0,0.0,0.0,0.0,0.0,0.0,-3.5175,-3.6941,-3.6492,0.0,0.0,-4.0274,-4.1009,-4.1957,-4.1948,-4.2241,-4.2958,-4.3011,-4.3245,-4.3608,-4.4055,-4.4379,-4.461,-4.461,-4.461,-4.461,-4.461,-4.461,-4.461,-4.461,-4.4549,-4.4496,-4.4572,-4.4435,-4.4205,-4.4281,-4.4143,-4.3871,-4.3636,-4.3423,-4.329,-4.329,-4.329,-4.329,-4.329,-4.329,-4.3424,-4.4122,-4.4616,-4.511,-4.5783,-4.5963,-4.5903,-4.5663,-4.5274,-4.4945,-4.4945,-4.5289,-4.5711,-4.619,-4.6666,-4.704,-4.7264,-4.7309,-4.7309,-4.7309,-4.7309,-4.7309,-4.7309,-4.7309,-4.7309,-4.7309,-4.7309,-4.7019,-4.6403,-4.4808,-4.3862,-4.3862,-4.2937,-4.2346,-4.2346,-4.2016,-4.1541,-4.0945,-4.0079,-3.9311,-3.871,-3.8161,-3.79,-3.79,-3.79,-3.79]},{"header":{"parameterUnit":"m.s-1","parameterCategory":1,"la1":30.6,"la2":29.2853,"lo1":-89.7004,"lo2":-87.6739,"dy":0.0162,"dx":0.0183,"nx":112,"ny":82,"refTime":"2024-07-06T06:00:00:Z","depth":0,"parameterNumber":3,"parameterNumberName":"V-component_of_WINDS"},"data":[0.0,0.0,0.0,0.0,0.0,0.0,0.0,0.0,0.0,0.0,0.0,0.0,0.0,0.0,0.0,0.0,0.0,0.0,0.0,0.0,0.0,0.0,0.0,0.0,0.0,0.0,0.0,0.0,0.0,0.0,0.0,0.0,0.0,0.0,0.0,0.0,0.0,0.0,0.0,0.0,0.0,0.0,0.0,0.0,0.0,0.0,0.0,0.0,0.0,0.0,0.0,0.0,0.0,0.0,0.0,0.0,0.0,0.0,0.0,0.0,0.0,0.0,0.0,0.0,0.0,0.0,0.0,0.0,0.0,0.0,0.0,0.0,0.0,0.0,0.0,0.0,0.0,0.0,0.0,0.0,0.0,0.0,0.0,0.0,0.0,0.0,0.0,0.0,0.0,0.0,-2.6422,-2.7499,-2.8919,-2.9591,-2.9063,-2.8863,-2.7433,-2.4318,0.0,0.0,0.0,0.0,0.0,0.0,0.0,0.0,0.0,0.0,0.0,0.0,0.0,0.0,0.0,0.0,0.0,0.0,0.0,0.0,0.0,0.0,0.0,0.0,0.0,0.0,0.0,0.0,0.0,0.0,0.0,0.0,0.0,0.0,0.0,0.0,0.0,0.0,0.0,0.0,0.0,0.0,0.0,0.0,0.0,0.0,0.0,0.0,0.0,0.0,0.0,0.0,0.0,0.0,0.0,0.0,0.0,0.0,0.0,0.0,0.0,0.0,0.0,0.0,0.0,0.0,0.0,0.0,0.0,0.0,0.0,0.0,0.0,0.0,0.0,0.0,0.0,0.0,0.0,0.0,0.0,0.0,0.0,0.0,0.0,0.0,0.0,0.0,0.0,0.0,0.0,0.0,0.0,0.0,0.0,0.0,0.0,0.0,0.0,0.0,0.0,0.0,0.0,0.0,-2.6614,-2.8466,-2.9366,-2.9754,-2.9666,-2.8787,-2.7218,-2.4813,0.0,0.0,0.0,0.0,0.0,0.0,0.0,0.0,0.0,0.0,0.0,0.0,0.0,0.0,0.0,0.0,0.0,0.0,0.0,0.0,0.0,0.0,0.0,0.0,0.0,0.0,0.0,0.0,0.0,0.0,0.0,0.0,0.0,0.0,0.0,0.0,0.0,0.0,0.0,0.0,0.0,0.0,0.0,0.0,0.0,0.0,0.0,0.0,0.0,0.0,0.0,0.0,0.0,0.0,0.0,0.0,0.0,0.0,0.0,0.0,0.0,0.0,0.0,0.0,0.0,0.0,0.0,0.0,0.0,0.0,0.0,0.0,0.0,0.0,0.0,0.0,0.0,0.0,0.0,0.0,0.0,0.0,0.0,0.0,0.0,0.0,0.0,0.0,0.0,0.0,0.0,0.0,0.0,0.0,0.0,0.0,0.0,0.0,0.0,0.0,0.0,0.0,0.0,-2.6532,-2.7459,-2.9352,-2.9705,-2.9792,-2.9792,-2.8762,-2.7168,-2.4926,-2.3973,0.0,0.0,0.0,0.0,0.0,0.0,0.0,0.0,0.0,0.0,0.0,0.0,0.0,0.0,0.0,0.0,0.0,0.0,0.0,0.0,0.0,0.0,0.0,0.0,0.0,0.0,0.0,0.0,0.0,0.0,0.0,0.0,0.0,0.0,0.0,0.0,0.0,0.0,0.0,0.0,0.0,0.0,0.0,0.0,0.0,0.0,0.0,0.0,0.0,0.0,0.0,0.0,0.0,0.0,0.0,0.0,0.0,0.0,0.0,0.0,0.0,0.0,0.0,0.0,0.0,0.0,0.0,0.0,0.0,0.0,0.0,0.0,0.0,0.0,0.0,0.0,0.0,0.0,0.0,0.0,0.0,0.0,0.0,0.0,0.0,0.0,0.0,0.0,0.0,0.0,0.0,0.0,0.0,0.0,0.0,0.0,0.0,0.0,0.0,0.0,0.0,0.0,-2.802,-2.8421,-2.9948,-2.9934,-2.9792,-2.9792,-2.8511,-2.6892,-2.4913,-2.3606,0.0,0.0,0.0,0.0,0.0,0.0,0.0,0.0,0.0,0.0,0.0,0.0,0.0,0.0,0.0,0.0,0.0,0.0,0.0,0.0,0.0,0.0,0.0,0.0,0.0,0.0,0.0,0.0,0.0,0.0,0.0,0.0,0.0,0.0,0.0,0.0,0.0,0.0,0.0,0.0,0.0,0.0,0.0,0.0,0.0,0.0,0.0,0.0,0.0,0.0,0.0,0.0,0.0,0.0,0.0,0.0,0.0,0.0,0.0,0.0,0.0,0.0,0.0,0.0,0.0,0.0,0.0,0.0,0.0,0.0,0.0,0.0,0.0,0.0,0.0,0.0,0.0,0.0,0.0,0.0,0.0,0.0,0.0,0.0,0.0,0.0,0.0,0.0,0.0,0.0,0.0,0.0,0.0,0.0,0.0,0.0,0.0,0.0,0.0,0.0,0.0,0.0,-2.825,-2.9339,-3.0037,-2.9934,-2.9792,-2.9792,-2.7857,-2.6076,-2.4863,-2.3257,0.0,0.0,0.0,0.0,0.0,0.0,0.0,0.0,0.0,0.0,0.0,0.0,0.0,0.0,0.0,0.0,0.0,0.0,0.0,0.0,0.0,0.0,0.0,0.0,0.0,0.0,0.0,0.0,0.0,0.0,0.0,0.0,0.0,0.0,0.0,0.0,0.0,0.0,0.0,0.0,0.0,0.0,0.0,0.0,0.0,0.0,0.0,0.0,0.0,0.0,0.0,0.0,0.0,0.0,0.0,0.0,0.0,0.0,0.0,0.0,0.0,0.0,0.0,0.0,0.0,0.0,0.0,0.0,0.0,0.0,0.0,0.0,0.0,0.0,0.0,0.0,0.0,0.0,0.0,0.0,0.0,0.0,0.0,0.0,0.0,0.0,0.0,0.0,0.0,0.0,0.0,0.0,0.0,0.0,0.0,0.0,0.0,0.0,0.0,0.0,0.0,0.0,-2.8027,-2.9101,-3.0012,-2.9934,-2.9792,-2.9792,-2.8373,-2.6728,-2.4901,0.0,0.0,0.0,0.0,0.0,0.0,0.0,0.0,0.0,0.0,0.0,0.0,0.0,0.0,0.0,0.0,0.0,0.0,0.0,0.0,0.0,0.0,0.0,0.0,0.0,0.0,0.0,0.0,0.0,0.0,0.0,0.0,0.0,0.0,0.0,0.0,0.0,0.0,0.0,0.0,0.0,0.0,0.0,0.0,0.0,0.0,0.0,0.0,0.0,0.0,0.0,0.0,0.0,0.0,0.0,0.0,0.0,0.0,0.0,0.0,0.0,0.0,0.0,0.0,0.0,0.0,0.0,0.0,0.0,0.0,0.0,0.0,0.0,0.0,0.0,0.0,0.0,0.0,0.0,0.0,0.0,0.0,0.0,0.0,0.0,0.0,0.0,0.0,0.0,0.0,0.0,0.0,0.0,0.0,0.0,0.0,0.0,0.0,0.0,0.0,0.0,0.0,-2.7041,-2.8463,-2.965,-3.0139,-2.9972,-2.9792,-2.9792,-2.8436,-2.6861,-2.5147,0.0,0.0,0.0,0.0,0.0,0.0,0.0,0.0,0.0,0.0,0.0,0.0,0.0,0.0,0.0,0.0,0.0,0.0,0.0,0.0,0.0,0.0,0.0,0.0,0.0,0.0,0.0,0.0,0.0,0.0,0.0,0.0,0.0,0.0,0.0,0.0,0.0,0.0,0.0,0.0,0.0,0.0,0.0,0.0,0.0,0.0,0.0,0.0,0.0,0.0,0.0,0.0,0.0,0.0,0.0,0.0,0.0,0.0,0.0,0.0,0.0,0.0,0.0,0.0,0.0,0.0,0.0,0.0,0.0,0.0,0.0,0.0,0.0,0.0,0.0,0.0,0.0,0.0,0.0,0.0,0.0,0.0,0.0,0.0,0.0,0.0,0.0,0.0,0.0,0.0,0.0,0.0,0.0,0.0,0.0,0.0,0.0,0.0,0.0,0.0,0.0,0.0,-2.7384,-2.9761,-3.122,-3.047,-3.0049,-2.9792,-2.9792,-2.7794,-2.6257,0.0,0.0,0.0,0.0,0.0,0.0,0.0,0.0,0.0,0.0,0.0,0.0,0.0,0.0,0.0,0.0,0.0,0.0,0.0,0.0,0.0,0.0,0.0,0.0,0.0,0.0,0.0,0.0,0.0,0.0,0.0,0.0,0.0,0.0,0.0,0.0,0.0,0.0,0.0,0.0,0.0,0.0,0.0,0.0,0.0,0.0,0.0,0.0,0.0,0.0,0.0,0.0,0.0,0.0,0.0,0.0,0.0,0.0,0.0,0.0,0.0,0.0,0.0,0.0,0.0,0.0,0.0,0.0,0.0,0.0,0.0,0.0,0.0,0.0,0.0,0.0,0.0,0.0,0.0,0.0,0.0,0.0,0.0,0.0,0.0,0.0,0.0,0.0,0.0,0.0,0.0,0.0,0.0,0.0,0.0,0.0,0.0,0.0,0.0,0.0,0.0,0.0,0.0,-2.7177,-2.9557,-3.1009,-3.0254,-2.9972,-2.9792,-2.9792,-2.8461,-2.7047,-2.5682,0.0,0.0,0.0,0.0,0.0,0.0,0.0,0.0,0.0,0.0,0.0,0.0,0.0,0.0,0.0,0.0,0.0,0.0,0.0,0.0,0.0,0.0,0.0,0.0,0.0,0.0,0.0,0.0,0.0,0.0,0.0,0.0,0.0,0.0,0.0,0.0,0.0,0.0,0.0,0.0,0.0,0.0,0.0,0.0,0.0,0.0,0.0,0.0,0.0,0.0,0.0,0.0,0.0,0.0,0.0,0.0,0.0,0.0,0.0,0.0,0.0,0.0,0.0,0.0,0.0,0.0,0.0,0.0,0.0,0.0,0.0,0.0,0.0,0.0,0.0,0.0,0.0,0.0,0.0,0.0,0.0,0.0,0.0,0.0,0.0,0.0,0.0,0.0,0.0,0.0,0.0,0.0,0.0,0.0,0.0,0.0,0.0,0.0,0.0,0.0,0.0,0.0,-2.8044,-3.0187,-3.1502,-3.0722,-3.0152,-2.9934,-3.0203,-2.9157,-2.7884,-2.6509,0.0,0.0,0.0,0.0,0.0,0.0,0.0,0.0,0.0,0.0,0.0,0.0,0.0,0.0,0.0,0.0,0.0,0.0,0.0,0.0,0.0,0.0,0.0,0.0,0.0,0.0,0.0,0.0,0.0,0.0,0.0,0.0,0.0,0.0,0.0,0.0,0.0,0.0,0.0,0.0,0.0,0.0,0.0,0.0,0.0,0.0,0.0,0.0,0.0,0.0,0.0,0.0,0.0,0.0,0.0,0.0,0.0,0.0,0.0,0.0,0.0,0.0,0.0,0.0,0.0,0.0,0.0,0.0,0.0,0.0,0.0,0.0,0.0,0.0,0.0,0.0,0.0,0.0,0.0,0.0,0.0,0.0,0.0,0.0,0.0,0.0,0.0,0.0,0.0,0.0,0.0,0.0,0.0,0.0,0.0,0.0,0.0,0.0,0.0,0.0,0.0,0.0,-2.9406,-3.1241,-3.2335,-3.1663,-3.0659,-3.0279,-3.097,-2.9961,-2.8873,-2.7823,0.0,0.0,0.0,0.0,0.0,0.0,0.0,0.0,0.0,0.0,0.0,0.0,0.0,0.0,0.0,0.0,0.0,0.0,0.0,0.0,0.0,0.0,0.0,0.0,0.0,0.0,0.0,0.0,0.0,0.0,0.0,0.0,0.0,0.0,0.0,0.0,0.0,0.0,0.0,0.0,0.0,0.0,0.0,0.0,0.0,0.0,0.0,0.0,0.0,0.0,0.0,0.0,0.0,0.0,0.0,0.0,0.0,0.0,0.0,0.0,-2.7801,-2.6737,0.0,0.0,0.0,0.0,0.0,0.0,0.0,0.0,0.0,0.0,0.0,0.0,0.0,0.0,0.0,0.0,0.0,0.0,0.0,0.0,0.0,0.0,0.0,0.0,0.0,0.0,0.0,0.0,0.0,0.0,0.0,0.0,0.0,0.0,0.0,0.0,0.0,0.0,0.0,0.0,-2.9187,-3.1132,-3.239,-3.2223,-3.1846,-3.1686,-3.1819,-3.1209,-3.031,-2.9101,-2.7291,0.0,0.0,0.0,0.0,0.0,0.0,0.0,0.0,0.0,0.0,0.0,0.0,0.0,0.0,0.0,0.0,0.0,0.0,0.0,0.0,0.0,0.0,0.0,0.0,0.0,0.0,0.0,0.0,0.0,0.0,0.0,0.0,0.0,0.0,0.0,0.0,0.0,0.0,0.0,0.0,0.0,0.0,0.0,0.0,0.0,0.0,0.0,0.0,0.0,0.0,0.0,0.0,0.0,0.0,0.0,0.0,0.0,0.0,0.0,-2.9601,-2.8699,0.0,0.0,0.0,0.0,0.0,0.0,0.0,0.0,0.0,0.0,0.0,0.0,0.0,0.0,0.0,0.0,0.0,0.0,0.0,0.0,0.0,0.0,0.0,0.0,0.0,0.0,0.0,0.0,0.0,0.0,0.0,0.0,0.0,0.0,0.0,0.0,0.0,0.0,0.0,0.0,-3.0483,-3.2061,-3.303,-3.2925,-3.2448,-3.2218,-3.2613,-3.2096,-3.1396,-3.0516,-2.8988,0.0,0.0,0.0,0.0,0.0,0.0,0.0,0.0,0.0,0.0,0.0,0.0,0.0,0.0,0.0,0.0,0.0,0.0,0.0,0.0,0.0,0.0,0.0,0.0,0.0,0.0,0.0,0.0,0.0,0.0,0.0,0.0,0.0,0.0,0.0,0.0,0.0,0.0,0.0,0.0,0.0,0.0,0.0,0.0,0.0,0.0,0.0,0.0,0.0,0.0,0.0,0.0,0.0,-3.1391,-3.169,-3.1734,-3.2214,-3.2766,-3.3259,-3.1781,-3.1131,-3.1028,-3.0213,0.0,0.0,0.0,0.0,0.0,0.0,0.0,0.0,0.0,0.0,0.0,0.0,0.0,0.0,0.0,0.0,0.0,0.0,0.0,0.0,0.0,0.0,-2.8951,-2.8778,-2.8579,-2.8087,-2.6813,0.0,0.0,0.0,0.0,0.0,0.0,0.0,0.0,0.0,0.0,0.0,-3.2109,-3.3191,-3.3748,-3.3659,-3.2981,-3.2769,-3.3367,-3.2936,-3.2452,-3.1976,-3.0771,-2.903,0.0,0.0,0.0,0.0,0.0,0.0,0.0,0.0,0.0,0.0,0.0,0.0,0.0,0.0,0.0,0.0,0.0,0.0,0.0,0.0,0.0,0.0,0.0,0.0,0.0,0.0,0.0,0.0,0.0,0.0,0.0,0.0,-2.5375,-2.6896,0.0,0.0,0.0,0.0,0.0,0.0,0.0,0.0,0.0,0.0,0.0,0.0,0.0,-3.2677,-3.3845,-3.5028,-3.5579,-3.5579,-3.6089,-3.6388,-3.6473,-3.6293,-3.6329,-3.6539,-3.5967,0.0,-3.2273,-3.2139,0.0,0.0,0.0,0.0,0.0,0.0,0.0,0.0,0.0,0.0,0.0,0.0,0.0,0.0,0.0,0.0,0.0,0.0,0.0,0.0,0.0,0.0,-3.1818,-3.0713,-3.086,-3.085,-2.9359,-2.7966,-2.6994,-2.6827,-2.6496,-2.6315,0.0,0.0,0.0,0.0,0.0,0.0,-3.259,-3.3415,-3.3914,-3.4264,-3.4162,-3.4128,-3.423,-3.4192,-3.3874,-3.327,-3.2553,-3.1203,-2.9204,-2.8522,0.0,0.0,0.0,0.0,0.0,0.0,0.0,0.0,0.0,0.0,0.0,0.0,0.0,0.0,0.0,0.0,0.0,0.0,0.0,0.0,0.0,0.0,0.0,0.0,0.0,0.0,0.0,0.0,0.0,-2.4911,-2.7066,-2.8064,-2.8498,-2.8364,0.0,0.0,0.0,0.0,0.0,0.0,0.0,0.0,0.0,-3.4262,-3.4592,-3.519,-3.6118,-3.6701,-3.7,-3.7,-3.7216,-3.7351,-3.7419,-3.7233,-3.7248,-3.7316,-3.7109,-3.6361,-3.5173,-3.425,-3.3025,-3.1663,0.0,0.0,0.0,0.0,-3.0986,-3.0896,-3.2392,-3.2662,-3.2182,-3.1046,0.0,0.0,0.0,0.0,0.0,0.0,0.0,-3.0878,-3.0897,-3.1673,-3.2284,-3.168,-3.1329,-3.1044,-3.0474,-2.966,-2.8771,-2.7736,-2.7782,-2.7803,-2.7328,-2.7204,0.0,0.0,0.0,-3.1736,-3.3343,-3.4069,-3.4404,-3.4414,-3.4414,-3.4414,-3.4414,-3.4414,-3.4298,-3.4008,-3.3398,-3.2513,-3.1277,-2.9943,-2.8376,0.0,0.0,0.0,0.0,0.0,0.0,0.0,0.0,0.0,0.0,0.0,0.0,0.0,0.0,0.0,0.0,0.0,0.0,0.0,0.0,0.0,0.0,0.0,0.0,0.0,0.0,0.0,0.0,-2.7186,-2.8663,-2.9505,-3.0178,-3.0193,0.0,0.0,0.0,0.0,0.0,0.0,-3.3694,-3.4397,-3.5594,-3.7434,-3.7494,-3.7793,-3.8422,-3.8422,-3.8422,-3.8422,-3.8422,-3.8422,-3.8422,-3.8422,-3.8422,-3.8422,-3.8366,-3.8366,-3.8197,-3.6338,-3.4894,-3.3853,-3.324,-3.2348,-3.1574,-3.3169,-3.3424,-3.3289,-3.531,-3.5654,-3.4966,-3.3335,-3.2751,-3.2422,-3.0642,0.0,0.0,0.0,0.0,-3.2034,-3.2487,-3.2768,-3.2884,-3.2609,-3.2019,-3.1494,-3.1418,-3.1494,-3.0915,-2.8939,-2.8987,-2.9153,-2.8524,-2.871,0.0,-3.1275,-3.2228,-3.3108,-3.4115,-3.4625,-3.4769,-3.4448,-3.4414,-3.4414,-3.4414,-3.4414,-3.4414,-3.4414,-3.3978,-3.3427,-3.2788,-3.138,-3.0074,-2.8942,0.0,0.0,0.0,0.0,0.0,0.0,0.0,0.0,0.0,0.0,0.0,0.0,0.0,0.0,0.0,0.0,0.0,0.0,0.0,0.0,0.0,0.0,0.0,0.0,0.0,0.0,0.0,0.0,0.0,-3.2168,-3.2901,0.0,0.0,0.0,0.0,-3.2317,-3.4143,-3.5818,-3.7105,-3.7778,-3.8781,-4.0157,-4.0202,-4.0516,-4.1175,-4.1212,-4.1212,-4.1212,-4.1212,-4.1212,-4.1212,-4.1212,-4.1212,-4.119,-4.1001,-4.0901,-4.0731,-3.8286,-3.7236,-3.7176,-3.7101,-3.7075,-3.6996,-3.712,-3.7135,-3.7135,-3.727,-3.7285,-3.715,-3.6462,-3.4981,-3.3529,-3.4054,-3.2859,0.0,0.0,-3.4186,-3.357,-3.5544,-3.5511,-3.4771,-3.3984,-3.3707,-3.3465,-3.2752,-3.322,-3.3138,-3.1213,-3.0398,-3.0449,-3.1708,0.0,-3.1222,-3.3912,-3.3799,-3.3794,-3.4714,-3.4872,-3.4769,-3.4448,-3.4414,-3.4414,-3.4414,-3.4414,-3.4414,-3.4414,-3.4385,-3.408,-3.3474,-3.3358,-3.2106,-2.9595,-2.8826,0.0,0.0,0.0,0.0,0.0,0.0,0.0,0.0,0.0,0.0,0.0,0.0,0.0,0.0,0.0,0.0,0.0,0.0,0.0,0.0,0.0,0.0,0.0,0.0,0.0,0.0,0.0,0.0,-3.3664,-3.4756,0.0,-3.3829,-3.4891,-3.5669,-3.5669,-3.7135,-3.8407,-3.929,-3.9559,-4.0098,-4.0995,-4.1025,-4.1145,-4.1422,-4.1422,-4.1422,-4.1422,-4.1422,-4.1422,-4.1422,-4.1422,-4.1422,-4.1384,-4.1308,-4.127,-4.1234,-4.033,-3.9309,-3.8275,-3.8092,-3.7724,-3.7228,-3.6801,-3.6976,-3.7267,-3.6157,-3.6491,-3.7375,-3.715,-3.6245,-3.5394,-3.6149,-3.548,-3.469,-3.5712,-3.5575,-3.531,-3.6106,-3.6079,-3.5776,-3.5508,-3.5054,-3.4621,-3.4358,-3.4533,-3.4506,-3.3831,-3.3064,-3.2495,-3.2399,-3.2969,-3.3782,-3.4801,-3.5548,-3.606,-3.6178,-3.5819,-3.5419,-3.5092,-3.4661,-3.4414,-3.4414,-3.4414,-3.4414,-3.4414,-3.4414,-3.4312,-3.4095,-3.3721,-3.2846,-3.148,-3.0045,-2.7911,0.0,0.0,0.0,0.0,0.0,0.0,0.0,0.0,0.0,0.0,0.0,0.0,0.0,0.0,0.0,0.0,0.0,0.0,0.0,0.0,0.0,0.0,0.0,0.0,0.0,-3.2587,-3.4189,-3.5087,-3.6327,-3.6866,-3.6207,-3.7524,-3.8422,-3.8422,-3.9454,-4.0367,-4.1025,-4.1055,-4.1369,-4.2028,-4.2043,-4.2043,-4.2043,-4.2043,-4.2043,-4.2043,-4.2043,-4.2043,-4.2043,-4.2043,-4.2043,-4.2043,-4.1718,-4.1587,-4.1587,-4.1258,-4.0324,-3.9059,-3.8981,-3.8407,-3.7623,-3.7164,-3.7242,-3.7368,-3.6042,-3.6162,-3.6883,-3.6883,-3.6381,-3.587,-3.637,-3.6207,-3.587,-3.6107,-3.6164,-3.6295,-3.6816,-3.6714,-3.659,-3.6874,-3.6333,-3.5784,-3.5784,-3.5985,-3.6148,-3.5822,-3.4998,-3.4207,-3.3845,-3.4727,-3.5611,-3.5901,-3.6763,-3.7316,-3.7035,-3.6547,-3.6143,-3.5831,-3.5145,-3.4733,-3.4733,-3.453,-3.4414,-3.4414,-3.4414,-3.4414,-3.4414,-3.3804,-3.3166,-3.2495,-3.0581,-2.8681,-2.6777,0.0,0.0,0.0,0.0,0.0,0.0,0.0,0.0,0.0,0.0,0.0,0.0,0.0,0.0,0.0,0.0,0.0,0.0,0.0,0.0,0.0,0.0,0.0,-3.3529,-3.4174,-3.5117,-3.6417,-3.7689,-3.8177,-3.755,-3.9233,-4.0382,-4.0382,-4.1032,-4.1728,-4.2387,-4.2455,-4.2731,-4.3334,-4.3349,-4.3349,-4.3349,-4.3334,-4.3319,-4.3319,-4.3305,-4.329,-4.329,-4.329,-4.329,-4.325,-4.2374,-4.199,-4.1949,-4.0986,-4.0196,-3.9606,-3.9868,-3.9424,-3.8599,-3.8558,-3.8235,-3.766,-3.7122,-3.649,-3.5871,-3.5947,-3.5503,-3.4924,-3.4962,-3.5064,-3.5241,-3.5803,-3.6061,-3.6458,-3.7878,-3.7615,-3.7204,-3.8037,-3.7577,-3.6958,-3.6958,-3.7615,-3.8,-3.7127,-3.6076,-3.5528,-3.6194,-3.6351,-3.6599,-3.7327,-3.7445,0.0,-3.7287,-3.7079,-3.6869,-3.6643,-3.5918,-3.5421,-3.5392,-3.4791,-3.4428,-3.4414,-3.4414,-3.4414,-3.4414,-3.3819,-3.3195,-3.2524,-3.061,-2.9363,-2.8767,0.0,0.0,0.0,0.0,0.0,0.0,0.0,0.0,0.0,0.0,0.0,0.0,0.0,0.0,0.0,0.0,0.0,0.0,0.0,0.0,0.0,-3.2086,-3.351,-3.414,-3.6031,-3.7629,-3.8512,-3.8745,-3.8946,-3.9238,-3.9625,-3.9839,-3.9839,-4.105,-4.2125,-4.2811,-4.3426,-4.4077,-4.4736,-4.4751,-4.4751,-4.4751,-4.4287,-4.4047,-4.4007,-4.3529,-4.329,-4.329,-4.329,-4.329,-4.325,-4.2374,-4.199,-4.1949,-4.0986,-4.0105,-3.9335,-3.962,-3.928,-3.8517,-3.7964,-3.7238,-3.671,-3.7785,-3.6962,-3.568,-3.6855,-3.6478,-3.5588,-3.6182,-3.5978,-3.58,-3.7177,-3.713,-3.7044,-3.8642,-3.8907,-3.8782,-3.8995,-3.887,-3.8708,-3.8708,-3.8907,-3.8995,-3.8745,-3.8451,-3.7908,-3.6921,-3.7264,-3.7739,-3.7974,-3.8498,-3.8799,-3.8606,-3.8026,-3.7531,-3.7337,-3.6574,-3.5865,-3.5436,-3.5232,-3.4907,-3.4443,-3.4414,-3.4414,-3.4414,-3.424,-3.3862,-3.3256,-3.1308,-3.0293,0.0,0.0,0.0,0.0,0.0,0.0,0.0,0.0,0.0,0.0,0.0,0.0,0.0,0.0,0.0,0.0,0.0,0.0,0.0,0.0,0.0,0.0,-3.3456,-3.4998,-3.5427,-3.6771,-3.7988,-3.8658,-3.9038,-3.9396,-3.9793,-4.0153,-4.0377,-4.0377,-4.1469,-4.2495,-4.3311,-4.382,-4.4457,-4.5274,-4.5289,-4.5289,-4.5289,-4.4915,-4.4721,-4.4721,-4.4332,-4.4152,-4.4152,-4.4152,-4.3801,-4.3097,-4.2201,-4.1454,-4.0774,-3.9839,-3.9162,-3.8734,0.0,0.0,0.0,0.0,-3.6915,-3.6568,-3.7315,-3.6721,-3.5798,-3.6764,-3.6358,-3.5612,-3.6076,-3.598,-3.583,-3.6452,-3.6531,-3.6621,-3.7615,-3.8084,-3.8435,-3.8797,-3.9156,-3.9388,-3.9388,-3.9388,-3.9388,-3.9388,-3.9388,0.0,-3.8107,-3.836,-3.8701,-3.8701,-3.9119,-3.9337,-3.9141,-3.8633,-3.8179,-3.7996,-3.7208,-3.6577,-3.6249,-3.5712,0.0,0.0,0.0,-3.4298,-3.4022,-3.4008,0.0,0.0,0.0,0.0,0.0,0.0,0.0,0.0,-3.0881,-3.0999,0.0,0.0,0.0,0.0,0.0,0.0,0.0,0.0,0.0,0.0,0.0,0.0,0.0,0.0,0.0,0.0,-3.4981,-3.6953,-3.6761,-3.677,-3.7125,-3.791,-3.8851,-3.9522,-3.962,-4.0596,-4.119,-4.126,-4.1912,-4.265,-4.3544,-4.3762,0.0,0.0,0.0,-4.5347,-4.5347,-4.5397,-4.5367,-4.5227,-4.5153,-4.5066,-4.4983,-4.4983,-4.4223,-4.2866,-4.185,-4.0639,-3.9216,-3.8298,-3.79,-3.7992,-3.876,-3.8594,-3.7848,-3.7299,-3.7103,-3.7024,-3.6488,0.0,0.0,-3.6201,-3.5835,-3.5391,-3.5391,-3.5546,-3.5574,-3.4835,-3.5261,-3.5926,-3.5977,-3.6615,-3.7441,-3.8266,-3.8988,-3.9493,-3.9493,-3.9433,-3.9388,-3.9388,-3.9388,-3.9388,-3.9388,-3.9388,-3.9388,-3.9388,-3.9388,-3.9337,-3.9141,-3.8907,-3.8723,-3.8516,-3.7834,0.0,-3.7317,-3.6243,-3.5581,-3.5508,-3.4936,-3.437,-3.3852,-3.3823,-3.3823,-3.3823,-3.3823,-3.4066,-3.4617,-3.4617,-3.4922,-3.5421,-3.2323,-3.2107,0.0,0.0,0.0,0.0,0.0,0.0,0.0,0.0,0.0,0.0,0.0,0.0,0.0,0.0,0.0,-3.3908,-3.5065,-3.594,-3.6199,-3.6641,-3.7537,-3.9061,-3.8848,-3.8953,-3.9909,-3.9556,-3.9442,-3.9946,-4.1329,-4.2185,-4.2255,-4.3579,-4.4405,-4.4485,-4.5282,-4.5683,-4.5683,-4.5968,-4.57,-4.4909,-4.4355,0.0,-4.2874,-4.2874,-4.2715,-4.2366,-4.1,-4.0187,-3.9839,-3.847,-3.79,-3.79,-3.807,-3.807,-3.7887,-3.7769,-3.773,-3.7717,-3.7599,-3.7233,-3.6828,-3.6828,-3.6436,-3.5953,-3.5953,-3.5991,0.0,-3.6067,-3.6588,-3.7153,-3.7593,-3.8568,-3.9513,-3.9898,-4.0092,-4.0217,-4.0217,-3.9798,-3.9388,-3.9388,-3.9388,-3.9388,-3.9388,-3.9388,-3.9388,-3.9388,-3.9388,-3.9337,-3.9141,-3.8907,-3.8723,-3.8516,-3.8227,-3.7839,-3.7346,-3.707,-3.6693,-3.6156,-3.6011,-3.588,-3.5764,-3.5764,-3.5764,-3.5764,-3.5764,-3.5822,-3.5938,-3.5938,-3.5996,-3.6098,-3.4937,-3.5112,0.0,0.0,0.0,0.0,0.0,0.0,0.0,0.0,0.0,0.0,0.0,-3.0015,-3.124,0.0,-3.4014,-3.4446,-3.5586,-3.6471,-3.6524,-3.6815,-3.7342,-3.8225,-3.8412,-3.8698,-3.9144,-3.941,-3.9594,-3.981,-4.0978,-4.1917,-4.2331,-4.3664,-4.4601,-4.5038,-4.6032,-4.6535,-4.6535,-4.6226,-4.6064,-4.6005,-4.467,-4.4051,-4.4036,-4.3553,-4.2883,-4.2072,-4.1322,-4.0541,-3.9748,-3.8727,-3.8148,-3.79,-3.79,-3.79,-3.79,-3.79,-3.79,-3.79,-3.79,-3.7704,-3.7456,-3.7456,-3.6948,-3.6363,-3.6509,-3.627,-3.5983,-3.6217,-3.6521,-3.6815,-3.7071,-3.7934,-3.8855,-3.9473,-3.992,-4.0317,-4.0801,-4.0636,-4.036,-4.0263,-3.998,-3.972,-3.9609,-3.9327,-3.9141,-3.9228,-3.9141,-3.9031,-3.8811,-3.8701,-3.8575,-3.8366,-3.824,-3.8086,-3.7781,-3.7476,-3.7012,-3.6344,-3.6301,-3.6301,-3.6301,-3.6301,-3.6301,-3.6301,-3.6301,-3.6301,-3.6301,-3.6301,-3.6475,-3.6794,-3.6475,-3.6683,0.0,0.0,0.0,0.0,0.0,0.0,0.0,0.0,-2.9132,-3.0355,-3.1018,-3.1746,-3.2879,-3.4471,-3.5437,-3.4981,-3.6279,-3.7277,-3.7179,-3.7168,-3.7168,-3.7168,-3.8083,-3.8621,-3.8407,-3.9615,-4.0327,-4.0098,-4.0987,-4.1769,-4.2404,-4.3355,-4.4252,-4.49,-4.5883,-4.6506,-4.6741,-4.6121,-4.6211,-4.6975,-4.5144,-4.4624,-4.5175,-4.4158,-4.3012,-4.18,-4.1679,-4.0853,-3.956,-3.8958,-3.8402,-3.8011,-3.7847,-3.7808,-3.7762,-3.7854,-3.79,-3.79,-3.79,-3.79,-3.79,-3.79,-3.7423,-3.6884,-3.7123,-3.6688,-3.6165,-3.6186,-3.6257,-3.6296,-3.628,-3.6964,-3.7913,-3.8768,-3.9461,-4.0155,-4.1074,-4.1139,-4.1065,-4.1095,-4.0611,-4.0203,-4.0066,-3.9431,-3.8981,-3.9046,-3.8907,-3.8723,-3.8516,-3.8478,-3.8404,-3.8202,-3.8202,-3.8202,-3.8202,-3.7752,-3.7244,-3.6707,-3.6678,-3.6678,-3.6678,-3.6678,-3.6678,-3.6678,-3.6678,-3.6678,-3.6678,-3.6678,-3.6954,-3.7476,-3.7513,-3.766,-2.8113,-2.7898,-2.7654,-2.8089,-2.77,-2.7904,0.0,0.0,-3.0802,-3.2156,-3.2712,-3.319,-3.4061,-3.4824,-3.565,-3.6554,-3.6904,-3.7206,-3.7717,-3.7808,-3.7808,-3.7808,-3.8344,-3.8717,-3.8743,-3.9751,-4.0385,-4.0426,-4.1568,-4.194,-4.1172,-4.2075,-4.2368,-4.1832,-4.2806,-4.3735,-4.4638,-4.5417,-4.5869,-4.5973,-4.4808,-4.3876,-4.3115,-4.2101,-4.1558,-4.133,-4.0792,-4.0206,-3.956,-3.8958,-3.8543,-3.8298,-3.7759,-3.7413,-3.7261,-3.7703,-3.79,-3.79,-3.79,-3.79,-3.79,-3.79,-3.7848,-3.775,-3.7795,-3.756,-3.7208,-3.6664,-3.6747,-3.6948,-3.6913,-3.7813,-3.8868,-3.9382,-3.9578,-3.9868,-4.0634,-4.0322,-4.0128,-4.0926,-4.0829,-4.0693,-4.0914,-4.0109,-3.9287,-3.887,-3.8819,-3.8723,-3.8516,-3.8478,-3.8404,-3.8202,-3.8202,-3.8202,-3.8202,-3.8144,-3.8072,-3.7984,-3.7984,-3.7984,-3.7984,-3.7984,-3.7984,-3.7984,-3.7984,-3.7984,-3.7984,-3.7984,-3.8028,-3.8101,-3.8264,-3.8473,-3.0999,-3.0199,-2.9283,0.0,-3.0428,-3.0025,-3.2003,-3.2069,-3.1901,-3.2665,-3.3256,-3.3866,-3.4549,-3.5436,-3.6259,0.0,-3.7299,-3.7567,-3.7664,-3.7808,-3.7762,-3.7459,-3.8342,-3.8929,-3.8787,-4.0115,-4.0787,-4.0529,-4.1121,-4.1358,-4.0933,-4.1842,-4.2271,-4.1954,-4.3081,-4.4158,-4.5175,-4.4992,-4.5235,-4.5779,-4.4205,-4.3211,-4.2744,-4.1782,-4.1311,-4.1298,-4.105,-4.0618,-4.0008,-3.9615,-3.9038,-3.8368,-3.7887,-3.745,-3.7108,-3.7353,-3.7413,-3.7413,-3.7413,-3.7413,-3.7413,-3.7413,-3.7307,-3.7214,-3.74,-3.7261,-3.701,-3.6919,-3.6975,-3.7086,-3.7053,-3.7456,-3.803,-3.8766,-3.9397,-3.9997,-4.0854,-4.1259,-4.1544,-4.1787,-4.1464,-4.1121,-4.1096,-4.0383,-3.9765,-3.958,-3.8931,-3.8427,-3.8329,-3.8329,-3.8277,-3.8202,-3.8202,-3.8202,-3.8202,-3.8202,-3.8202,-3.8202,-3.8202,-3.8202,-3.8202,-3.8202,-3.8202,-3.8202,-3.8202,-3.8202,-3.8202,-3.8202,-3.8202,-3.8202,-3.8277,-3.8501,-3.2283,-3.1613,0.0,-3.2359,-3.1988,-3.1652,-3.2791,-3.2722,-3.2579,-3.3186,-3.3766,-3.4362,-3.509,-3.6041,-3.6812,-3.7175,-3.7612,-3.7854,-3.7657,-3.7703,-3.7657,-3.7261,-3.8183,-3.8839,-3.8715,-4.015,-4.0858,-4.03,-4.0643,-4.0883,-4.0795,-4.1558,-4.2173,-4.2501,-4.3081,-4.4003,-4.5372,-4.4392,-4.4392,-4.5372,-4.364,-4.2792,-4.2744,-4.167,-4.1211,-4.1211,-4.111,-4.0813,-4.0398,-4.0057,-3.9416,-3.8621,-3.8201,-3.7648,-3.7104,-3.7104,-3.7109,-3.7108,-3.7108,-3.7108,-3.7108,-3.7108,-3.6968,-3.6862,-3.7062,-3.6909,-3.6722,-3.6956,-3.6968,-3.6922,-3.6968,-3.7015,-3.7222,-3.8251,-3.881,-3.9505,-4.0916,-4.1576,-4.1978,-4.2336,-4.1956,-4.1554,-4.1488,-4.0855,-4.0379,-4.0379,-3.9421,-3.8667,-3.8507,-3.8318,-3.8202,-3.8202,-3.8202,-3.8202,-3.8202,-3.8202,-3.8202,-3.8202,-3.8202,-3.8202,-3.8202,-3.8202,-3.8202,-3.8202,-3.8202,-3.8202,-3.8202,-3.8202,-3.8327,-3.8553,-3.8629,-3.8942,0.0,0.0,-3.2042,-3.052,-3.0887,-3.1891,-3.2726,-3.2702,-3.2867,-3.4087,-3.446,-3.4868,-3.5891,-3.658,-3.7194,-3.7782,-3.79,-3.79,-3.79,-3.7657,-3.7505,-3.7505,-3.7801,-3.8127,-3.8371,-3.9687,-4.03,-3.9736,-4.044,-4.0795,-4.0555,-4.0795,-4.1508,-4.2744,-4.1644,-4.2075,-4.4298,-4.3355,-4.3355,-4.4359,-4.3307,-4.2792,-4.2744,-4.1508,-4.0883,-4.0896,-4.0656,-4.0491,-4.044,-3.9863,-3.9483,-3.9232,-3.8612,-3.7895,-3.7209,-3.7209,-3.7156,-3.7108,-3.7108,-3.7108,-3.7108,-3.7108,-3.7108,-3.7108,-3.7108,-3.6909,-3.6709,-3.6709,-3.6581,-3.6452,-3.6675,-3.6709,-3.7036,-3.8192,-3.7808,-3.79,-4.0474,-4.0301,-4.0215,-4.2049,-4.2228,-4.2146,-4.2322,-4.166,-4.1062,-4.1062,-4.0481,-3.9828,-3.9247,-3.8609,-3.8202,-3.8202,-3.8202,-3.8202,-3.8202,-3.8202,-3.8202,-3.8202,-3.8202,-3.8202,-3.8202,-3.8202,-3.8202,-3.8202,-3.8202,-3.8202,-3.8202,-3.8202,-3.8635,-3.949,-3.9642,-4.0222,-3.2537,0.0,-3.2395,-3.203,-3.2097,-3.2476,-3.3106,-3.3275,-3.3369,-3.3687,-3.42,-3.4735,-3.5219,-3.608,-3.6871,-3.7227,-3.7768,-3.7992,-3.7451,-3.7917,-3.8027,-3.7105,-3.8046,-3.8674,-3.8434,-3.9355,0.0,-3.9955,-4.0224,-4.0326,-4.0236,-4.0326,-4.063,-4.1259,-4.1034,-4.1644,-4.3307,-4.2985,-4.2985,-4.3307,-4.2297,-4.172,-4.1508,-4.1071,-4.0795,-4.0643,-4.0555,-4.0504,-4.0491,-4.0071,-3.9689,-3.9271,-3.8868,-3.8328,-3.7726,-3.7726,-3.7711,-3.7592,-3.6893,-3.664,-3.664,-3.664,-3.664,-3.664,-3.664,-3.6593,-3.6499,-3.6499,-3.6452,-3.6405,-3.6499,-3.6499,-3.6769,-3.7795,-3.8283,-3.8899,-4.0389,-4.1001,-4.1465,-4.2078,-4.2133,-4.2133,-4.2216,-4.1945,-4.1758,-4.1758,-4.08,-4.0017,-3.9813,-3.9596,-3.9305,-3.8913,-3.887,-3.8681,-3.8246,-3.8202,-3.8202,-3.8202,-3.8202,-3.8202,-3.8202,-3.8202,-3.8202,-3.8202,-3.8202,-3.842,-3.887,-3.887,-3.9319,-4.0193,-4.0231,-4.058,-3.3424,-3.3315,-3.3186,-3.2966,-3.288,-3.3038,-3.3522,-3.3598,-3.359,-3.3482,-3.3823,-3.4165,-3.4377,-3.5128,-3.5937,-3.6562,-3.7423,-3.7877,-3.7582,-3.8271,-3.8447,-3.7407,-3.8184,-3.8741,0.0,0.0,0.0,-3.9943,-4.0032,-4.007,-4.007,-4.007,-4.0377,-4.1021,-4.0769,-4.1259,-4.2647,-4.2319,-4.2124,-4.2124,-4.1484,-4.101,-4.0744,-4.0643,-4.0529,-4.0338,-4.0249,-4.0198,-4.0198,-4.0044,-3.9727,-3.9436,-3.9272,-3.8818,-3.8316,-3.8316,-3.8191,-3.7877,-3.6973,-3.6707,-3.6669,-3.6468,-3.6405,-3.6405,-3.6405,-3.6405,-3.6405,-3.6405,-3.6405,-3.6405,-3.6405,-3.6405,-3.664,-3.7592,-3.8251,-3.9033,-4.0332,-4.1113,-4.1675,-4.2051,-4.2092,-4.2092,-4.2092,-4.2092,-4.2092,-4.2092,-4.1366,-4.0728,-4.0481,-4.0249,-3.9944,-3.9567,-3.9523,-3.9349,-3.8913,-3.8884,-3.8884,-3.8884,-3.8884,-3.8884,-3.8884,-3.8884,-3.8884,-3.8884,-3.8884,-3.914,-3.9668,-3.9668,-4.0144,-4.1062,-4.1062,-4.1375,-3.341,-3.3739,-3.4295,-3.3201,-3.3161,-3.3513,-3.3953,-3.37,-3.342,-3.3543,-3.3331,-3.3237,-3.3507,0.0,-3.4549,-3.5844,-3.6877,-3.7738,-3.8187,-3.8589,-3.8704,0.0,0.0,0.0,0.0,0.0,0.0,-3.9647,0.0,-4.007,-4.007,-4.007,-4.0655,-4.1838,-4.0743,-4.0807,-4.2271,-4.1358,-4.0883,-4.0883,-4.0883,-4.0744,-4.0453,-4.0236,-4.007,-4.0083,-3.9788,-3.9697,-3.9697,-3.9697,-3.9697,-3.9697,-3.9697,-3.9371,-3.8957,-3.8957,-3.8567,-3.8015,-3.7462,-3.7236,-3.7098,-3.6619,-3.643,-3.6405,-3.6405,-3.6405,-3.6405,-3.6405,-3.6405,-3.6405,-3.6405,-3.6405,-3.664,-3.7592,-3.7808,-3.8283,-4.0116,-4.0546,-4.0873,-4.1814,-4.2051,-4.2092,-4.2092,-4.2092,-4.2092,-4.2092,-4.2092,-4.186,-4.1221,-4.0597,-4.0191,-4.0147,-4.0147,-4.0133,-4.0104,-4.0104,-4.0104,-4.0104,-4.0104,-4.0104,-4.0104,-4.0104,-4.0104,-4.0104,-4.0104,-4.0251,-4.0534,-4.0534,-4.1092,-4.2119,-4.2158,-4.2564,-3.4826,-3.4542,-3.4033,-3.3591,-3.3568,-3.3538,-3.3267,-3.3206,-3.3163,-3.277,-3.2533,-3.2492,-3.2841,-3.3944,0.0,-3.5185,-3.7044,0.0,-3.7814,-3.874,0.0,-3.8202,0.0,-3.9157,-3.8944,-3.9245,0.0,0.0,-3.9736,-3.9788,-3.9788,-3.9788,-4.0032,-4.0554,-4.0262,-4.0377,-4.0984,-4.0744,-4.0605,-4.0605,-4.0605,-4.044,-4.0185,-4.0134,-3.9981,-3.9788,-3.9749,-3.9697,-3.9697,-3.9697,-3.9697,-3.9697,-3.9697,-3.9609,-3.9484,-3.9484,-3.9396,-3.9182,-3.863,-3.7889,-3.7161,-3.7023,-3.6744,-3.6405,-3.6405,-3.6405,-3.6405,-3.6405,-3.6405,-3.6405,-3.6405,-3.6405,-3.664,-3.7592,-3.7808,-3.8115,-3.9285,-4.0116,-4.0689,-4.0916,-4.1577,-4.2092,-4.2092,-4.2092,-4.2092,-4.2092,-4.2092,-4.2034,-4.186,-4.17,-4.1395,-4.0902,-4.0844,-4.0641,-4.0133,-4.0104,-4.0104,-4.0104,-4.0104,-4.0104,-4.0104,-4.0104,-4.0104,-4.0104,-4.0104,-4.039,-4.0939,-4.1084,-4.1645,-4.2533,-4.2683,-4.2971,-3.5573,-3.5172,-3.4593,-3.3875,-3.3575,-3.336,-3.2969,-3.2795,-3.2518,-3.1824,-3.1692,-3.1589,-3.1136,-3.2417,0.0,0.0,0.0,0.0,-3.7927,-3.9032,-3.96,0.0,-3.9308,0.0,-3.927,-3.9509,-3.9697,0.0,-3.9697,-3.9697,-3.9697,-3.9697,-3.9788,-3.9929,-3.9929,-4.0032,-4.0338,-4.0453,-4.0453,-4.0338,-4.0338,-4.0185,-3.9929,-3.9929,-3.9839,-3.9697,-3.9697,-3.9697,-3.9697,-3.9697,-3.9697,-3.9697,-3.9697,-3.9697,-3.9697,-3.9697,-3.9697,-3.9647,-3.9346,-3.8655,-3.7877,-3.7626,-3.7174,-3.6769,-3.6769,-3.6606,-3.6405,-3.6405,-3.6405,-3.6405,-3.6405,-3.6405,-3.6546,-3.7036,-3.75,-3.7946,-3.8464,-3.9329,-4.0116,-4.0504,-4.1395,-4.2092,-4.2092,-4.2092,-4.2092,-4.2092,-4.2092,-4.2092,-4.2092,-4.2092,-4.1961,-4.157,-4.1541,-4.1381,-4.1004,-4.0974,-4.0974,-4.0974,-4.0974,-4.0974,-4.0974,-4.0974,-4.0974,-4.0974,-4.104,-4.1336,-4.1796,-4.2008,-4.24,-4.297,-4.308,-4.32,-3.5798,-3.5526,-3.5182,-3.4008,-3.3441,-3.3127,-3.2872,-3.2344,-3.1639,-3.0725,0.0,-3.0483,-2.929,-3.0484,-3.1945,-3.2838,0.0,-3.7111,-3.8195,-3.9259,-3.9905,-3.9736,-3.9697,-3.9697,-3.9697,-3.9697,-3.9697,-3.9697,-3.9697,-3.9697,-3.9697,-3.9697,-3.9697,-3.9697,-3.9697,-3.9788,-4.0032,-4.03,-4.03,-4.0032,-4.0032,-3.9929,-3.9697,-3.9697,-3.9697,-3.9697,-3.9697,-3.9697,-3.9697,-3.9697,-3.9697,-3.9697,-3.9697,-3.9697,-3.9697,-3.9697,-3.9697,-3.9697,-3.9697,-3.9383,-3.8881,-3.8304,-3.7751,-3.7274,-3.7211,-3.6895,-3.6505,-3.643,-3.6405,-3.6405,-3.6405,-3.6405,-3.6405,-3.6405,-3.7036,-3.7651,-3.7683,-3.8448,-3.9424,-4.0389,-4.1296,-4.1953,-4.2092,-4.2092,-4.2092,-4.2092,-4.2092,-4.2092,-4.2092,-4.2092,-4.2092,-4.2092,-4.2092,-4.2092,-4.2092,-4.2092,-4.2092,-4.2092,-4.2092,-4.2092,-4.2092,-4.2092,-4.2092,-4.2092,-4.2284,-4.2474,-4.2648,-4.2875,-4.3076,-4.3265,-4.3305,-4.329,-3.5303,-3.4898,-3.4272,-3.3797,-3.3441,-3.3036,-3.2369,-3.1564,0.0,0.0,-2.9258,-2.898,-2.9343,-3.0484,-3.1787,-3.3089,0.0,0.0,0.0,0.0,-3.9284,0.0,0.0,0.0,-3.9697,-3.9697,0.0,0.0,-3.9697,-3.9697,-3.9697,-3.9697,-3.9697,-3.9697,-3.9697,-3.9749,-3.9788,-3.98,-3.98,-3.9788,-3.9788,-3.9736,-3.9697,-3.9697,-3.9697,-3.9697,-3.9697,-3.9697,-3.9697,-3.9697,-3.9697,-3.9697,-3.9697,-3.9697,-3.9697,-3.9697,-3.9697,-3.9697,-3.9697,-3.9634,-3.9459,-3.8894,-3.8329,-3.7776,-3.7324,-3.7123,-3.6996,-3.6531,-3.6405,-3.6405,-3.6405,-3.6405,-3.6405,-3.6405,-3.6546,-3.6754,-3.7222,-3.8058,-3.9082,-4.0343,-4.0731,-4.1113,-4.1953,-4.2092,-4.2092,-4.2092,-4.2092,-4.2092,-4.2092,-4.2092,-4.2092,-4.2092,-4.2092,-4.2092,-4.2092,-4.2092,-4.2092,-4.2092,-4.2092,-4.2092,-4.2092,-4.2092,-4.2092,-4.2092,-4.2284,-4.2433,-4.2474,-4.2795,-4.3025,-4.307,-4.3225,-4.329,-3.5184,-3.469,-3.4034,-3.3768,-3.3251,-3.2559,-3.1685,0.0,0.0,0.0,-2.816,-2.7873,-2.8038,0.0,0.0,0.0,0.0,0.0,0.0,0.0,0.0,0.0,0.0,0.0,0.0,-3.9697,-3.9697,-3.9697,-3.9697,-3.9697,-3.9697,-3.9697,-3.9697,-3.9697,-3.9697,-3.9697,-3.9697,-3.9697,-3.9697,-3.9697,-3.9697,-3.9697,-3.9697,-3.9697,-3.9697,-3.9697,-3.9697,-3.9697,-3.9697,-3.9697,-3.9697,-3.9697,-3.9697,-3.9697,-3.9697,-3.9697,-3.9697,-3.9697,-3.9697,-3.9697,-3.9647,-3.9383,-3.8919,-3.8404,-3.814,-3.7651,-3.7123,-3.6908,-3.6631,-3.6468,-3.6757,-3.6832,-3.6908,-3.7149,-3.7211,-3.7287,-3.755,-3.8133,-3.8799,-3.9456,-4.012,-4.0731,-4.1254,-4.1758,-4.2092,-4.2092,-4.2092,-4.2092,-4.2092,-4.2092,-4.2092,-4.2092,-4.2092,-4.2092,-4.2092,-4.2092,-4.2092,-4.2092,-4.2092,-4.2092,-4.2092,-4.2092,-4.2092,-4.2092,-4.2392,-4.2541,-4.2541,-4.297,-4.3145,-4.3175,-4.3265,-4.329,-3.4807,-3.4487,-3.4008,-3.3669,-3.3008,-3.2133,-3.1044,-2.9616,0.0,0.0,-2.7211,-2.6901,-2.6839,0.0,0.0,0.0,0.0,0.0,0.0,0.0,0.0,0.0,0.0,0.0,0.0,-3.9697,0.0,-3.9697,-3.9697,-3.9697,-3.9697,-3.9697,-3.9697,-3.9697,-3.9697,-3.9697,-3.9697,-3.9697,-3.9697,-3.9697,-3.9697,-3.9697,-3.9697,-3.9697,-3.9697,-3.9697,-3.9697,-3.9697,-3.9697,-3.9697,-3.9697,-3.9697,-3.9697,-3.9697,-3.9697,-3.9697,-3.9697,-3.9697,-3.9697,-3.9697,-3.9697,-3.9697,-3.9396,-3.9032,-3.8957,-3.8241,-3.7525,-3.74,-3.7048,-3.6857,-3.7249,-3.7362,-3.7475,-3.7902,-3.8103,-3.8153,-3.804,-3.8324,-3.864,-3.8616,-3.9622,-4.0485,-4.0575,-4.1437,-4.2092,-4.2092,-4.2092,-4.2092,-4.2092,-4.2092,-4.2092,-4.2092,-4.2092,-4.2092,-4.2092,-4.2092,-4.2092,-4.2092,-4.2092,-4.2092,-4.2092,-4.2092,-4.2133,-4.2175,-4.25,-4.2743,-4.2758,-4.313,-4.329,-4.329,-4.329,-4.329,-3.345,-3.3729,-3.3946,-3.34,-3.2806,-3.2056,-3.0727,0.0,0.0,-2.74,-2.6499,-2.605,-2.7065,-2.7533,0.0,0.0,0.0,0.0,0.0,0.0,0.0,0.0,0.0,0.0,0.0,-3.9697,-3.9697,-3.9697,-3.9697,-3.9697,-3.9697,-3.9697,-3.9697,-3.9697,-3.9697,-3.9697,-3.9697,-3.9697,-3.9697,-3.9697,-3.9697,-3.9697,-3.9697,-3.9697,-3.9697,-3.9697,-3.9697,-3.9697,-3.9697,-3.9697,-3.9697,-3.9697,-3.9697,-3.9697,-3.9697,-3.9697,-3.9697,-3.9697,-3.9697,-3.9697,-3.9697,-3.9697,-3.9659,-3.9521,-3.907,-3.8844,-3.8605,-3.8078,-3.7889,-3.7864,-3.7914,-3.7939,-3.7939,-3.8002,-3.8417,-3.8642,-3.8115,-3.8479,-3.8839,-3.8644,-3.9381,-4.0193,-4.0516,-4.1437,-4.2092,-4.2092,-4.2092,-4.2092,-4.2092,-4.2092,-4.2092,-4.2092,-4.2092,-4.2092,-4.2092,-4.2092,-4.2092,-4.2092,-4.2092,-4.2092,-4.2092,-4.2092,-4.2175,-4.2351,-4.2581,-4.2799,-4.2964,-4.32,-4.329,-4.329,-4.329,-4.329,-3.3185,-3.3649,-3.3933,-3.3199,-3.2605,-3.1768,-3.0139,0.0,-2.7532,-2.6924,-2.6185,-2.5837,-2.6675,-2.716,-2.779,0.0,-2.9604,-3.104,-3.4004,0.0,0.0,0.0,0.0,0.0,0.0,0.0,-3.9697,-3.9697,-3.9697,-3.9697,-3.9697,-3.9697,-3.9697,-3.9697,-3.9697,-3.9697,-3.9697,-3.9697,-3.9697,-3.9697,-3.9697,-3.9697,-3.9697,-3.9697,-3.9697,-3.9697,-3.9697,-3.9697,-3.9697,-3.9697,-3.9697,-3.9697,-3.9697,-3.9697,-3.9697,-3.9697,-3.9697,-3.9697,-3.9697,-3.9697,-3.9697,-3.9697,-3.9697,-3.9647,-3.9433,-3.9132,-3.8869,-3.8592,-3.8278,-3.809,-3.8442,-3.8768,-3.9019,-3.9019,-3.9195,-3.9308,-3.9069,-3.8944,-3.8881,-3.881,-3.9749,-4.0658,-4.0835,-4.1851,-4.2774,-4.3181,-4.289,-4.2774,-4.3181,-4.3239,-4.3079,-4.2673,-4.231,-4.2092,-4.2092,-4.2092,-4.2092,-4.2092,-4.2092,-4.2092,-4.2092,-4.2092,-4.2201,-4.2392,-4.2581,-4.2799,-4.3004,-4.32,-4.329,-4.329,-4.329,-4.329,-3.2494,-3.3021,-3.3276,-3.2562,-3.2058,-3.1262,0.0,-2.8272,-2.7386,-2.6634,-2.6034,-2.5774,-2.6386,-2.6813,-2.7268,0.0,-2.8712,-3.0156,-3.293,0.0,0.0,0.0,0.0,-3.8831,0.0,-3.9597,-3.9697,-3.9697,-3.9697,-3.9697,-3.9697,-3.9697,-3.9697,-3.9697,-3.9697,-3.9697,-3.9697,-3.9697,-3.9697,-3.9697,-3.9697,-3.9697,-3.9697,-3.9697,-3.9697,-3.9697,-3.9697,-3.9697,-3.9697,-3.9697,-3.9697,-3.9697,-3.9697,-3.9697,-3.9697,-3.9697,-3.9697,-3.9697,-3.9697,-3.9697,-3.9697,-3.9697,-3.9697,-3.9697,-3.9697,-3.9421,-3.912,-3.912,-3.8818,-3.8605,-3.9007,-3.9408,-3.9697,-3.9697,-3.9697,-3.9697,-3.9697,-3.9383,-3.9069,-3.8957,-4.0153,-4.1172,-4.1055,-4.2268,-4.3442,-4.3921,-4.3587,-4.3456,-4.3935,-4.3993,-4.3819,-4.334,-4.2919,-4.2513,-4.2121,-4.2092,-4.2092,-4.2092,-4.2092,-4.2092,-4.2092,-4.2092,-4.2201,-4.2392,-4.2611,-4.2799,-4.301,-4.321,-4.329,-4.329,-4.329,-4.329,-3.1073,-3.1518,-3.1731,-3.1328,-3.107,-3.0468,0.0,-2.798,-2.7386,-2.6634,-2.6034,-2.5774,-2.6386,-2.6499,-2.6864,-2.7921,-2.9051,-3.0746,-3.3508,-3.4793,0.0,0.0,0.0,-3.8241,-3.8831,-3.9371,-3.9697,-3.9697,-3.9697,0.0,-3.9697,-3.9697,-3.9697,-3.9697,-3.9697,-3.9697,-3.9697,-3.9697,-3.9697,-3.9697,-3.9697,-3.9697,-3.9697,-3.9697,-3.9697,-3.9697,-3.9697,-3.9697,-3.9697,-3.9697,-3.9697,-3.9697,-3.9697,-3.9697,-3.9697,-3.9697,-3.9697,-3.9697,-3.9697,-3.9697,-3.9697,-3.9697,-3.9697,-3.9697,-3.9697,-3.9697,-3.9685,-3.9685,-3.9685,-3.9672,-3.9685,-3.9685,-3.9697,-3.9697,-3.9697,-3.9697,-3.9697,-3.9685,-3.9521,-3.8981,-4.0455,-4.1619,-4.1063,-4.2679,-4.3979,-4.3993,-4.3979,-4.3979,-4.3993,-4.3993,-4.3993,-4.3979,-4.3979,-4.3471,-4.2208,-4.2092,-4.2092,-4.2092,-4.2092,-4.2092,-4.2092,-4.2092,-4.2201,-4.2392,-4.2588,-4.2813,-4.3006,-4.319,-4.329,-4.329,-4.329,-4.329,-2.9846,-3.0637,-3.1147,-2.9909,-3.0011,-2.9859,-2.8066,-2.7803,-2.7689,-2.6688,-2.6348,-2.6273,-2.6461,-2.6499,-2.7115,-2.895,-2.9553,0.0,0.0,0.0,0.0,0.0,-3.8454,-3.9233,0.0,0.0,-3.9697,-3.9697,-3.9697,-3.9697,-3.9697,-3.9697,-3.9697,-3.9697,-3.9697,-3.9697,-3.9697,-3.9697,-3.9697,-3.9697,-3.9697,-3.9697,-3.9697,-3.9697,-3.9697,-3.9697,-3.9697,-3.9697,-3.9697,-3.9697,-3.9697,-3.9697,-3.9697,-3.9697,-3.9697,-3.9697,-3.9697,-3.9697,-3.9697,-3.9697,-3.9697,-3.9697,-3.9697,-3.9697,-3.9697,-3.9697,-3.9697,-3.9697,-3.9697,-3.9697,-3.9697,-3.9697,-3.9697,-3.9697,-3.9697,-3.9697,-3.9697,-3.9697,-3.9647,-3.9471,-4.0472,-4.1568,-4.2119,-4.2972,-4.3965,-4.5124,-4.4893,-4.4763,-4.5227,-4.5285,-4.5111,-4.4647,-4.4603,-4.4095,-4.2818,-4.2716,-4.2528,-4.2121,-4.2092,-4.2092,-4.2092,-4.2092,-4.2272,-4.2602,-4.2658,-4.3071,-4.3887,-4.3508,-4.329,-4.329,-4.329,-4.3544,0.0,-2.9263,-2.9834,-2.8837,-2.895,-2.8999,-2.7605,-2.7544,-2.7544,-2.6675,-2.6499,-2.6499,-2.6499,-2.6499,-2.709,-2.8863,-2.9515,0.0,0.0,0.0,0.0,-3.7337,0.0,0.0,0.0,-3.9572,-3.9697,-3.9697,-3.9697,-3.9697,-3.9697,-3.9697,-3.9697,-3.9697,-3.9697,-3.9697,-3.9697,-3.9697,-3.9697,-3.9697,-3.9697,-3.9697,-3.9697,-3.9697,-3.9697,-3.9697,-3.9697,-3.9697,0.0,-3.9697,-3.9697,-3.9697,-3.9697,-3.9697,-3.9697,-3.9697,-3.9697,-3.9697,-3.9697,-3.9697,-3.9697,-3.9697,-3.9697,-3.9697,-3.9697,-3.9697,-3.9697,-3.9697,-3.9697,-3.9697,-3.9697,-3.9697,-3.9697,-3.9697,-3.9697,-3.9697,-3.9697,-3.9697,-3.9697,-3.9697,-4.0503,-4.1568,-4.2647,-4.3335,-4.4213,-4.5673,-4.5532,-4.5416,-4.5837,-4.588,-4.5721,-4.53,-4.5271,-4.4835,-4.379,-4.3268,-4.2731,-4.2136,-4.2092,-4.2092,-4.2092,-4.2092,-4.2359,-4.2949,-4.3048,-4.3558,-4.4549,-4.3964,-4.3534,-4.3305,-4.3544,-4.3888,0.0,-2.7469,-2.7921,-2.7883,-2.7896,-2.7795,-2.7281,-2.7228,0.0,-2.66,-2.6499,-2.6512,-2.66,-2.6575,-2.6952,-2.8147,-2.9214,0.0,0.0,-3.465,0.0,0.0,-3.8605,0.0,-3.8982,-3.9396,-3.9697,-3.9697,-3.9697,-3.9697,-3.9697,-3.9697,-3.9697,-3.9697,-3.9697,-3.9697,-3.9697,-3.9697,-3.9697,-3.9697,-3.9697,-3.9697,-3.9697,-3.9697,-3.9697,-3.9697,-3.9697,-3.9697,-3.9697,-3.9697,-3.9697,-3.9697,-3.9697,-3.9697,-3.9697,-3.9697,-3.9697,-3.9697,-3.9697,-3.9697,-3.9697,-3.9697,-3.9697,-3.9697,-3.9697,-3.9697,-3.9697,-3.9697,-3.9697,-3.9697,-3.9697,-3.9697,-3.9697,-3.9697,-3.9697,-3.9697,-3.9697,-3.9697,-3.9697,-3.9697,-4.0453,-4.1468,-4.2598,-4.3545,-4.4559,-4.573,-4.588,-4.588,-4.588,-4.588,-4.588,-4.588,-4.588,-4.5619,-4.4937,-4.3805,-4.2876,-4.2266,-4.2179,-4.2165,-4.2165,-4.2136,-4.2561,-4.3375,-4.3708,-4.4246,-4.4936,-4.4563,-4.4041,-4.3379,-4.3992,-4.4362,-2.4669,0.0,-2.6088,-2.5699,-2.5887,-2.6151,0.0,-2.6373,-2.665,-2.6524,-2.6499,-2.6751,-2.7557,-2.7369,-2.7858,-3.0231,0.0,0.0,-3.4022,0.0,0.0,-3.9145,-3.9421,-3.9496,-3.9496,-3.9622,-3.9697,-3.9697,-3.9697,-3.9697,-3.9697,-3.9697,-3.9697,-3.9697,-3.9697,-3.9697,-3.9697,-3.9697,-3.9697,-3.9697,-3.9697,-3.9697,-3.9697,-3.9697,-3.9697,-3.9697,-3.9697,-3.9697,-3.9697,-3.9697,-3.9697,-3.9697,-3.9697,-3.9697,-3.9697,-3.9697,-3.9697,-3.9697,-3.9697,-3.9697,-3.9697,-3.9697,-3.9697,-3.9697,-3.9697,-3.9697,-3.9697,-3.9697,-3.9697,-3.9697,-3.9697,-3.9697,-3.9697,-3.9697,-3.9697,-3.9697,-3.9697,-3.9697,-3.9697,-3.9697,-3.989,-4.0655,-4.2501,-4.2985,-4.3796,-4.564,-4.588,-4.588,-4.588,-4.588,-4.588,-4.588,-4.588,-4.5619,-4.4937,-4.4618,-4.4182,-4.3587,-4.3065,-4.2774,-4.2774,-4.2794,-4.3062,-4.3629,-4.5014,-4.5257,-4.4474,-4.4881,-4.4713,-4.4092,-4.4242,-4.487,-2.3602,-2.477,-2.5925,-2.5636,-2.5975,-2.6377,-2.6377,0.0,0.0,0.0,0.0,-2.6751,-2.757,-2.7695,-2.8323,0.0,-3.1286,0.0,0.0,0.0,-3.8429,-3.9559,-3.9697,-3.9697,0.0,-3.9697,-3.9697,-3.9697,-3.9697,-3.9697,-3.9697,-3.9697,-3.9697,-3.9697,-3.9697,-3.9697,-3.9697,-3.9697,-3.9697,-3.9697,-3.9697,-3.9697,-3.9697,-3.9697,-3.9697,-3.9697,-3.9697,-3.9697,-3.9697,-3.9697,-3.9697,-3.9697,-3.9697,-3.9697,-3.9697,-3.9697,-3.9697,-3.9697,-3.9697,-3.9697,-3.9697,-3.9697,-3.9697,-3.9697,-3.9697,-3.9697,-3.9697,-3.9697,-3.9697,-3.9697,-3.9697,-3.9697,-3.9697,-3.9697,-3.9697,-3.9697,-3.9697,-3.9697,-3.9697,-3.9697,-3.9697,-4.0377,-4.2452,-4.2792,-4.3511,-4.5595,-4.588,-4.588,-4.588,-4.588,-4.588,-4.588,-4.588,-4.5735,-4.5372,-4.5343,-4.4966,-4.4052,-4.3645,-4.3442,-4.3442,-4.3566,-4.3937,-4.475,-4.5758,-4.5806,-4.4758,-4.5132,-4.4952,-4.4332,-4.4945,-4.5633,-2.3296,-2.4895,-2.6436,-2.6185,-2.6663,-2.719,-2.719,0.0,0.0,0.0,0.0,0.0,-2.7593,-2.8122,0.0,0.0,0.0,0.0,-3.6747,-3.7663,-3.8429,-3.9559,-3.9697,0.0,-3.9697,-3.9697,-3.9697,-3.9697,-3.9697,-3.9697,-3.9697,-3.9697,-3.9697,-3.9697,-3.9697,-3.9697,-3.9697,-3.9697,-3.9697,-3.9697,-3.9697,-3.9697,-3.9697,-3.9697,-3.9697,-3.9697,-3.9697,-3.9697,-3.9697,-3.9697,-3.9697,-3.9697,-3.9697,-3.9697,-3.9697,-3.9697,-3.9697,-3.9697,-3.9697,-3.9697,-3.9697,-3.9697,-3.9697,-3.9697,-3.9697,-3.9697,-3.9697,-3.9697,-3.9697,-3.9697,-3.9697,-3.9697,-3.9697,-3.9697,-3.9697,-3.9697,-3.9697,-3.9697,-3.9697,-3.9697,-3.9697,-4.0326,-4.2208,-4.2695,-4.3464,-4.5353,-4.579,-4.588,-4.588,-4.588,-4.588,-4.588,-4.588,-4.588,-4.588,-4.588,-4.543,-4.4342,-4.4182,-4.4167,-4.4182,-4.4411,-4.4973,-4.599,-4.6199,-4.5984,-4.5289,-4.5316,-4.5076,-4.4646,-4.5756,-4.6324,-2.4148,-2.5485,-2.616,-2.4732,-2.5519,-2.6612,-2.6612,0.0,0.0,0.0,0.0,0.0,0.0,-2.9854,-3.0583,0.0,0.0,-3.5002,0.0,0.0,-3.8429,-3.9559,0.0,-3.9697,-3.9697,-3.9697,-3.9697,-3.9697,-3.9697,-3.9697,-3.9697,-3.9697,-3.9697,-3.9697,-3.9697,-3.9697,-3.9697,-3.9697,-3.9697,-3.9697,-3.9697,-3.9697,-3.9697,-3.9697,-3.9697,-3.9697,-3.9697,-3.9697,-3.9697,-3.9697,-3.9697,-3.9697,-3.9697,-3.9697,-3.9697,-3.9697,-3.9697,-3.9697,-3.9697,-3.9697,-3.9697,-3.9697,-3.9697,-3.9697,-3.9697,-3.9697,-3.9697,-3.9697,-3.9697,-3.9697,-3.9697,-3.9697,-3.9697,-3.9697,-3.9697,-3.9697,-3.9697,-3.9697,-3.9697,-3.9697,-3.9697,-4.0083,-4.1219,-4.2195,-4.3225,-4.4359,-4.5293,-4.588,-4.588,-4.588,-4.588,-4.588,-4.588,-4.588,-4.588,-4.588,-4.5808,-4.5605,-4.5068,-4.488,-4.5082,-4.5293,-4.5573,-4.6007,-4.6222,-4.5973,-4.5289,-4.5278,-4.5533,-4.6022,-4.619,-4.6621,-2.3221,-2.4933,-2.6235,-2.5134,-2.6339,-2.7795,-2.7795,-2.7758,0.0,0.0,0.0,0.0,0.0,0.0,-3.1687,-3.364,0.0,-3.5696,-3.74,-3.7852,-3.8429,0.0,0.0,-3.9697,-3.9697,-3.9697,-3.9697,-3.9697,-3.9697,-3.9697,-3.9697,-3.9697,-3.9697,-3.9697,-3.9697,-3.9697,-3.9697,-3.9697,-3.9697,-3.9697,-3.9697,-3.9697,-3.9697,-3.9697,-3.9697,-3.9697,-3.9697,-3.9697,-3.9697,-3.9697,-3.9697,-3.9697,-3.9697,-3.9697,-3.9697,-3.9697,-3.9697,-3.9697,-3.9697,-3.9697,-3.9697,-3.9697,-3.9697,-3.9697,-3.9697,-3.9697,-3.9697,-3.9697,-3.9697,-3.9697,-3.9697,-3.9697,-3.9697,-3.9697,-3.9697,-3.9697,-3.9697,-3.9697,-3.9697,-3.9697,-3.9697,-4.0032,-4.1032,-4.1617,-4.2474,-4.4064,-4.4712,-4.5233,-4.5835,-4.588,-4.588,-4.588,-4.588,-4.588,-4.588,-4.588,-4.588,-4.588,-4.5693,-4.5711,-4.6006,-4.6194,-4.6407,-4.6704,-4.6446,-4.6164,-4.5858,-4.5852,-4.599,-4.6294,-4.6696,-4.701,-2.2786,-2.4544,-2.6248,-2.6038,-2.7469,-2.8925,-2.9063,-2.88,-2.8574,0.0,0.0,0.0,0.0,-3.116,0.0,-3.5107,-3.5608,-3.6172,-3.7613,-3.7927,-3.8379,-3.9383,-3.9609,-3.9697,-3.9697,-3.9697,-3.9697,-3.9697,-3.9697,-3.9697,-3.9697,-3.9697,-3.9697,-3.9697,-3.9697,-3.9697,-3.9697,-3.9697,-3.9697,-3.9697,-3.9697,-3.9697,-3.9697,-3.9697,-3.9697,-3.9697,-3.9697,-3.9697,-3.9697,-3.9697,-3.9697,-3.9697,-3.9697,-3.9697,-3.9697,-3.9697,-3.9697,-3.9697,-3.9697,-3.9697,-3.9697,-3.9697,-3.9697,-3.9697,-3.9697,-3.9697,-3.9697,-3.9697,-3.9697,-3.9697,-3.9697,-3.9697,-3.9697,-3.9697,-3.9697,-3.9697,-3.9697,-3.9697,-3.9697,-3.9697,-3.9697,-3.9929,-4.0693,-4.1032,-4.1851,-4.3687,-4.4172,-4.4698,-4.5745,-4.588,-4.588,-4.588,-4.588,-4.588,-4.588,-4.588,-4.5925,-4.597,-4.6117,-4.6325,-4.6578,-4.6771,-4.6974,-4.7045,-4.6548,-4.6307,-4.6279,-4.6279,-4.6396,-4.6576,-4.707,-4.7309,-2.4186,-2.5146,-2.59,-2.6904,-2.8059,-2.9026,-2.9616,-2.9704,0.0,-3.0947,0.0,0.0,0.0,-3.2616,-3.4123,-3.5307,-3.5968,-3.6568,-3.7149,0.0,-3.8241,-3.8856,-3.9383,-3.9697,-3.9697,-3.9697,-3.9697,-3.9697,-3.9697,-3.9697,-3.9697,-3.9697,-3.9697,-3.9697,-3.9697,-3.9697,-3.9697,-3.9697,-3.9697,-3.9697,-3.9697,-3.9697,-3.9697,-3.9697,-3.9697,-3.9697,-3.9697,-3.9697,-3.9697,-3.9697,-3.9697,-3.9697,-3.9697,-3.9697,-3.9697,-3.9697,-3.9697,-3.9697,-3.9697,-3.9697,-3.9697,-3.9697,-3.9697,-3.9697,-3.9697,-3.9697,-3.9697,-3.9697,-3.9697,-3.9697,-3.9697,-3.9697,-3.9697,-3.9697,-3.9697,-3.9697,-3.9697,-3.9697,-3.9697,-3.9697,-3.9697,-3.9749,-3.9788,-4.0605,-4.1617,-4.2744,-4.3687,-4.4698,-4.5745,-4.588,-4.588,-4.588,-4.588,-4.588,-4.588,-4.588,-4.597,-4.6165,-4.6207,-4.6338,-4.6574,-4.6771,-4.6721,-4.6383,-4.6339,-4.6316,-4.6279,-4.6279,-4.6636,-4.7234,-4.7279,-4.7309,-2.3058,-2.4669,-2.6273,-2.67,-2.7858,0.0,0.0,-3.0306,-3.0997,-3.175,-3.1901,0.0,0.0,0.0,-3.4663,-3.537,-3.6006,-3.6606,-3.7111,-3.7362,-3.7839,-3.8806,-3.9108,-3.932,-3.9659,-3.9697,-3.9697,-3.9697,-3.9697,-3.9697,-3.9697,-3.9697,-3.9697,-3.9697,-3.9697,-3.9697,-3.9697,-3.9697,-3.9697,-3.9697,-3.9697,-3.9697,-3.9697,-3.9697,-3.9697,-3.9697,-3.9697,-3.9697,-3.9697,-3.9697,-3.9697,-3.9697,-3.9697,-3.9697,-3.9697,-3.9697,-3.9697,-3.9697,-3.9697,-3.9697,-3.9697,-3.9697,-3.9697,-3.9697,-3.9697,-3.9697,-3.9697,-3.9697,-3.9697,-3.9697,-3.9697,-3.9697,-3.9697,-3.9697,-3.9697,-3.9697,-3.9697,-3.9697,-3.9697,-3.9697,-3.9697,-3.9697,-3.9697,-4.0554,-4.1568,-4.2647,-4.364,-4.4698,-4.5745,-4.588,-4.588,-4.588,-4.588,-4.588,-4.588,-4.588,-4.5999,-4.6207,-4.6383,-4.6547,-4.6757,-4.7005,-4.7088,-4.6912,-4.6907,-4.6933,-4.6935,-4.6935,-4.7055,-4.7309,-4.7309,-4.7309,-2.2887,-2.4745,-2.6751,-2.6751,0.0,0.0,-3.0131,-3.0859,-3.165,-3.2554,-3.2742,-3.2918,-3.3495,0.0,0.0,0.0,-3.6006,-3.6543,-3.692,-3.7073,-3.7475,-3.8241,-3.8492,-3.8818,-3.9383,-3.9433,-3.9509,-3.9685,-3.9697,-3.9697,-3.9697,-3.9697,-3.9697,-3.9697,-3.9697,-3.9697,-3.9697,-3.9697,-3.9697,-3.9697,-3.9697,-3.9697,-3.9697,-3.9697,-3.9697,-3.9697,-3.9697,-3.9697,-3.9697,-3.9697,-3.9697,-3.9697,-3.9697,-3.9697,-3.9697,-3.9697,-3.9697,-3.9697,-3.9697,-3.9697,-3.9697,-3.9697,-3.9697,-3.9697,-3.9697,-3.9697,-3.9697,-3.9697,-3.9697,-3.9697,-3.9697,-3.9697,-3.9697,-3.9697,-3.9697,-3.9697,-3.9697,-3.9697,-3.9697,-3.9697,-3.9697,-3.9697,-3.9697,-4.0554,-4.1568,-4.2647,-4.364,-4.4698,-4.5745,-4.588,-4.588,-4.588,-4.588,-4.588,-4.588,-4.5969,-4.6088,-4.6311,-4.6577,-4.6771,-4.6901,-4.7149,-4.7309,-4.7309,-4.7309,-4.7309,-4.7309,-4.7309,-4.7309,-4.7309,-4.7309,-4.7309,-2.4155,-2.5611,-2.7281,-2.7281,0.0,0.0,-3.1148,-3.1411,-3.1888,-3.3571,-3.3922,-3.4085,-3.4625,-3.468,0.0,-3.5408,-3.6006,-3.6405,-3.6405,-3.6883,-3.7174,-3.7186,-3.7663,-3.8228,-3.8806,-3.8919,-3.9094,-3.9647,-3.9697,-3.9697,-3.9697,-3.9697,-3.9697,-3.9697,-3.9697,-3.9697,-3.9697,-3.9697,-3.9697,-3.9697,-3.9697,-3.9697,-3.9697,-3.9697,-3.9697,-3.9697,-3.9697,-3.9697,-3.9697,-3.9697,-3.9697,-3.9697,-3.9697,-3.9697,-3.9697,-3.9697,-3.9697,-3.9697,-3.9697,-3.9697,-3.9697,-3.9697,-3.9697,-3.9697,-3.9697,-3.9697,-3.9697,-3.9697,-3.9697,-3.9697,-3.9697,-3.9697,-3.9697,-3.9697,-3.9697,-3.9697,-3.9697,-3.9697,-3.9697,-3.9697,-3.9697,-3.9697,-3.9697,-4.0554,-4.1568,-4.2647,-4.364,-4.4712,-4.5745,-4.588,-4.588,-4.588,-4.588,-4.588,-4.588,-4.6072,-4.6311,-4.6594,-4.6786,-4.6918,-4.6912,-4.7176,-4.7309,-4.7309,-4.7309,-4.7309,-4.7309,-4.7309,-4.7309,-4.7309,-4.7309,-4.7309,-2.4255,-2.5611,0.0,-2.7281,0.0,0.0,0.0,-3.2579,0.0,0.0,-3.5019,-3.4944,-3.4718,-3.4994,0.0,-3.547,-3.6006,-3.6405,-3.6405,-3.6556,-3.6795,-3.7136,-3.7324,-3.7651,-3.8203,-3.863,-3.8994,-3.9158,-3.9471,-3.9697,-3.9697,-3.9697,-3.9697,-3.9697,-3.9697,-3.9697,-3.9697,-3.9697,-3.9697,-3.9697,-3.9697,-3.9697,-3.9697,-3.9697,-3.9697,-3.9697,-3.9697,-3.9697,-3.9697,-3.9697,-3.9697,-3.9697,-3.9697,-3.9697,-3.9697,-3.9697,-3.9697,-3.9697,-3.9697,-3.9697,-3.9697,-3.9697,-3.9697,-3.9697,-3.9697,-3.9697,-3.9697,-3.9697,-3.9697,-3.9697,-3.9697,-3.9697,-3.9697,-3.9697,-3.9697,-3.9697,-3.9697,-3.9697,-3.9697,-3.9697,-3.9697,-3.9697,-3.9697,-4.1145,-4.2439,-4.2744,-4.428,-4.5535,-4.5835,-4.588,-4.588,-4.588,-4.588,-4.588,-4.588,-4.6072,-4.6311,-4.6594,-4.6771,-4.6976,-4.7148,-4.7236,-4.7309,-4.7309,-4.7309,-4.7309,-4.7309,-4.7309,-4.7309,-4.7309,-4.7309,-4.7309,-2.5347,-2.6753,0.0,-2.8549,-2.9767,-3.1323,-3.2855,0.0,0.0,0.0,-3.5658,-3.5458,-3.5391,-3.542,0.0,-3.583,-3.6144,-3.6405,-3.6405,-3.6405,-3.6531,-3.6857,-3.6908,-3.7073,-3.7626,-3.799,-3.8391,-3.8894,-3.9182,-3.9471,-3.9685,-3.9697,-3.9697,-3.9697,-3.9697,-3.9697,-3.9697,-3.9697,-3.9697,-3.9697,-3.9697,-3.9697,-3.9697,-3.9697,-3.9697,-3.9697,-3.9697,-3.9697,-3.9697,-3.9697,-3.9697,-3.9697,-3.9697,-3.9697,-3.9697,-3.9697,-3.9697,-3.9697,-3.9697,-3.9697,-3.9697,-3.9697,-3.9697,-3.9697,-3.9697,-3.9697,-3.9697,-3.9697,-3.9697,-3.9697,-3.9697,-3.9697,-3.9697,-3.9697,-3.9697,-3.9697,-3.9697,-3.9697,-3.9697,-3.9697,-3.9697,-3.9697,-3.9697,-4.1432,-4.2792,-4.2792,-4.4186,-4.5444,-4.5835,-4.5535,-4.5247,-4.5247,-4.564,-4.5788,-4.5465,-4.6007,-4.6474,-4.6697,-4.6917,-4.7135,-4.7309,-4.7309,-4.7309,-4.7309,-4.7309,-4.7309,-4.7309,-4.7309,-4.7309,-4.7309,-4.7309,-4.7309,-2.6866,-2.8398,0.0,-3.0407,-3.1085,0.0,-3.4248,-3.5144,-3.5768,-3.6304,0.0,-3.5768,-3.6317,-3.5956,-3.578,-3.6329,-3.6405,-3.6405,-3.6405,-3.6405,-3.6405,-3.6405,-3.6405,-3.6606,-3.7061,-3.7149,-3.7613,-3.8693,-3.8806,-3.9032,-3.9584,-3.9622,-3.9647,-3.9697,-3.9697,-3.9697,-3.9697,-3.9697,-3.9697,-3.9697,-3.9697,-3.9697,-3.9697,-3.9697,-3.9697,-3.9697,-3.9697,-3.9697,-3.9697,-3.9697,-3.9697,-3.9697,-3.9697,-3.9697,-3.9697,-3.9697,-3.9697,-3.9697,-3.9697,-3.9697,-3.9697,-3.9697,-3.9697,-3.9697,-3.9697,-3.9697,-3.9697,-3.9697,-3.9697,-3.9697,-3.9697,-3.9697,-3.9697,-3.9697,-3.9697,-3.9697,-3.9697,-3.9697,-3.9697,-3.9697,-3.9697,-3.9697,-3.9697,-4.1345,-4.2695,-4.2792,-4.3592,-4.4513,-4.5489,-4.4759,-4.4172,-4.4172,-4.511,-4.5468,-4.4758,-4.5881,-4.6682,-4.6873,-4.7164,-4.7309,-4.7309,-4.7309,-4.7309,-4.7309,-4.7309,-4.7309,-4.7309,-4.7309,-4.7309,-4.7309,-4.7309,-4.7309,-2.6013,-2.7507,0.0,0.0,-3.1675,-3.3596,-3.4512,-3.5479,-3.6267,-3.638,-3.6317,-3.6267,-3.6392,-3.6304,-3.6267,-3.6392,-3.6405,-3.6405,-3.6405,-3.6405,-3.6405,-3.6405,-3.6405,-3.6455,-3.6568,-3.6923,-3.7287,-3.7525,-3.7952,-3.8442,-3.9019,-3.9044,-3.9245,-3.9685,-3.9697,-3.9697,-3.9697,-3.9697,-3.9697,-3.9697,-3.9697,-3.9697,-3.9697,-3.9697,-3.9697,-3.9697,-3.9697,-3.9697,-3.9697,-3.9697,-3.9697,-3.9697,-3.9697,-3.9697,-3.9697,-3.9697,-3.9697,-3.9697,-3.9697,-3.9697,-3.9697,-3.9697,-3.9697,-3.9697,-3.9697,-3.9697,-3.9697,-3.9697,-3.9697,-3.9697,-3.9697,-3.9697,-3.9697,-3.9697,-3.9697,-3.9697,-3.9697,-3.9697,-3.9697,-3.9697,-3.9697,-3.9697,-3.9697,-4.0756,-4.1815,-4.2695,-4.2985,-4.3225,-4.3416,-4.3273,-4.3129,-4.3129,-4.4063,-4.4662,-4.4707,-4.5854,-4.6697,-4.687,-4.7148,-4.7309,-4.7309,-4.7309,-4.7309,-4.7309,-4.7309,-4.7309,-4.7309,-4.7309,-4.7309,-4.7309,-4.7309,-4.7207,-2.6515,0.0,0.0,-3.0281,0.0,-3.3972,-3.4261,-3.5177,-3.5968,-3.5968,-3.6182,-3.6405,-3.6405,-3.6405,-3.6405,-3.6405,-3.6405,-3.6405,-3.6405,-3.6405,-3.6405,-3.6405,-3.6405,-3.6405,-3.6405,-3.6669,-3.6945,-3.7161,-3.745,-3.7864,-3.8429,-3.8454,-3.8592,-3.8881,-3.9157,-3.9295,-3.9295,-3.9559,-3.9697,-3.9697,-3.9697,-3.9697,-3.9697,-3.9697,-3.9697,-3.9697,-3.9697,-3.9697,-3.9697,-3.9697,-3.9697,-3.9697,-3.9697,-3.9697,-3.9697,-3.9697,-3.9697,-3.9697,-3.9697,-3.9697,-3.9697,-3.9697,-3.9697,-3.9697,-3.9697,-3.9697,-3.9697,-3.9697,-3.9697,-3.9697,-3.9697,-3.9697,-3.9697,-3.9697,-3.9697,-3.9697,-3.9697,-3.9697,-3.9697,-3.9697,-3.9697,-3.9697,-3.9697,-4.0554,-4.1568,-4.2647,-4.2341,-4.2195,-4.2744,-4.2341,-4.2048,-4.2048,-4.341,-4.4265,-4.4121,-4.552,-4.655,-4.6873,-4.6931,-4.6946,-4.6946,-4.7077,-4.7164,-4.7309,-4.7309,-4.7309,-4.7309,-4.7309,-4.7309,-4.7309,-4.7309,-4.7164,-2.6753,0.0,-2.9197,-3.0795,-3.2429,0.0,-3.3853,-3.4675,-3.5357,-3.5357,-3.5918,-3.6405,-3.6405,-3.6405,-3.6405,-3.6405,-3.6405,-3.6405,-3.6405,-3.6405,-3.6405,-3.6405,-3.6405,-3.6405,-3.6405,-3.6405,-3.6593,-3.701,-3.7048,-3.7287,-3.7839,-3.7864,-3.7902,-3.8002,-3.8467,-3.8718,-3.8718,-3.917,-3.9396,-3.9396,-3.9396,-3.9459,-3.9546,-3.9546,-3.9597,-3.9697,-3.9645,-3.9633,-3.9645,-3.9581,-3.9581,-3.9633,-3.9633,-3.9645,-3.9697,-3.9697,-3.9697,-3.9697,-3.9697,-3.9697,-3.9697,-3.9697,-3.9697,-3.9697,-3.9697,-3.9697,-3.9697,-3.9697,-3.9697,-3.9697,-3.9697,-3.9697,-3.9697,-3.9697,-3.9697,-3.9697,-3.9697,-3.9697,-3.9697,-3.9697,-3.9697,-3.9697,-3.9697,-4.0415,-4.1232,-4.211,-4.1531,-4.1282,-4.2159,-4.1667,-4.1209,-4.1187,-4.3074,-4.4132,-4.3729,-4.5256,-4.6372,-4.6845,-4.6683,-4.6609,-4.6594,-4.6756,-4.6975,-4.7207,-4.7266,-4.7309,-4.7309,-4.7309,-4.7309,-4.7309,-4.7251,-4.7062,0.0,0.0,-2.8686,0.0,-3.1433,-3.2845,0.0,0.0,-3.4826,0.0,-3.5655,-3.6405,-3.6405,-3.6405,-3.6405,-3.6405,-3.6405,-3.6405,-3.6405,-3.6405,-3.6405,-3.6405,-3.6405,-3.6405,-3.6405,-3.6405,-3.6443,-3.6518,-3.6518,-3.6757,-3.7262,-3.7299,-3.7513,-3.799,-3.809,-3.8115,-3.8115,-3.8191,-3.8228,-3.8228,-3.8228,-3.8492,-3.9032,-3.9032,-3.9245,-3.9697,-3.9478,-3.9362,-3.9322,-3.905,-3.9102,-3.9362,-3.9362,-3.9478,-3.9697,-3.9697,-3.9697,-3.9697,-3.9697,-3.9697,-3.9697,-3.9697,-3.9697,-3.9697,-3.9697,-3.9697,-3.9697,-3.9697,-3.9697,-3.9697,-3.9697,-3.9697,-3.9697,-3.9697,-3.9697,-3.9697,-3.9697,-3.9697,-3.9697,-3.9697,-3.9697,-3.9697,-3.9697,-3.9788,-3.9929,-4.0083,-3.9981,-3.9929,-4.0083,-4.0743,-4.1188,-4.1209,-4.3067,-4.4393,-4.4514,-4.5577,-4.6329,-4.6606,-4.6637,-4.6594,-4.6594,-4.6639,-4.6712,-4.6975,-4.7164,-4.7309,-4.7309,-4.7309,-4.7309,-4.7309,-4.7062,-4.6844,-2.4186,-2.6577,-2.8854,0.0,-3.1211,-3.2476,-3.327,0.0,-3.4261,-3.4261,-3.4889,-3.5542,-3.5843,-3.6157,-3.6405,-3.6405,-3.6405,-3.6405,-3.6405,-3.6405,-3.6405,-3.6405,-3.6405,-3.6405,-3.6405,-3.6405,-3.6405,-3.6405,-3.6405,-3.6518,-3.6757,-3.6769,-3.6883,-3.7073,-3.7387,-3.755,-3.755,-3.7852,-3.8002,-3.8002,-3.7854,-3.7929,-3.8179,-3.8028,-3.8564,-3.9478,-3.9362,-3.9206,-3.8998,-3.8841,-3.8893,-3.8998,-3.8998,-3.9218,-3.9478,-3.9478,-3.9581,-3.9697,-3.9697,-3.9697,-3.9697,-3.9697,-3.9697,-3.9697,-3.9697,-3.9697,-3.9697,-3.9697,-3.9697,-3.9697,-3.9697,-3.9697,-3.9697,-3.9697,-3.9697,-3.9697,-3.9697,-3.9697,-3.9697,-3.9697,-3.9697,-3.9697,-3.9697,-3.9697,-3.9697,-3.9697,-3.9697,-3.9697,-3.9697,-4.007,-4.0351,-4.0362,-4.1673,-4.2682,-4.2955,-4.4307,-4.5241,-4.5528,-4.5941,-4.6194,-4.6194,-4.6314,-4.6491,-4.6712,-4.6975,-4.7164,-4.7309,-4.7164,-4.7062,-4.7062,-4.6844,-4.658,0.0,0.0,-2.8043,-2.9185,-3.0511,-3.1753,0.0,0.0,-3.3696,0.0,-3.4123,-3.4638,-3.5006,-3.5579,-3.5943,-3.5943,-3.6056,-3.6157,-3.6157,-3.6317,-3.6405,-3.6405,-3.6405,-3.6405,-3.6405,-3.6405,-3.6405,-3.6405,-3.6405,-3.6405,-3.6405,-3.6405,-3.6405,-3.6405,-3.6807,-3.6973,-3.6973,-3.7374,-3.7588,-3.7588,-3.7343,-3.7258,-3.7382,-3.7159,-3.7639,-3.8642,-3.879,-3.881,-3.8684,-3.8631,-3.8631,-3.8684,-3.8684,-3.8893,-3.9154,-3.9154,-3.9362,-3.9594,-3.9594,-3.9633,-3.9697,-3.9697,-3.9697,-3.9697,-3.9697,-3.9697,-3.9697,-3.9697,-3.9697,-3.9697,-3.9697,-3.9697,-3.9697,-3.9697,-3.9697,-3.9697,-3.9697,-3.9697,-3.9697,-3.9697,-3.9697,-3.9697,-3.9697,-3.9697,-3.9697,-3.9697,-3.9697,-3.9697,-3.9697,-3.9891,-4.007,-4.0093,-4.1025,-4.1688,-4.1879,-4.3125,-4.4009,-4.4216,-4.5024,-4.5487,-4.5489,-4.5896,-4.6225,-4.6506,-4.6668,-4.6887,-4.7207,-4.6931,-4.6844,-4.68,-4.658,-4.6403,0.0,-2.3313,0.0,-2.7219,0.0,0.0,0.0,0.0,-3.3162,-3.3162,-3.3558,-3.3947,-3.3985,-3.4437,-3.4813,-3.4813,-3.5207,-3.5545,-3.5545,-3.6031,-3.6405,-3.6405,-3.6405,-3.6405,-3.6405,-3.6405,-3.6405,-3.6405,-3.6405,-3.6405,-3.6405,-3.6405,-3.6405,-3.6405,-3.643,-3.6455,-3.6455,-3.648,-3.6493,-3.6493,-3.6233,-3.6351,-3.6823,-3.6554,-3.6627,-3.6976,-3.7487,-3.7999,-3.8409,-3.8145,-3.8198,-3.8409,-3.8409,-3.8579,-3.8841,-3.8841,-3.905,-3.931,-3.931,-3.9478,-3.9697,-3.9697,-3.9697,-3.9697,-3.9697,-3.9697,-3.9697,-3.9697,-3.9697,-3.9697,-3.9697,-3.9697,-3.9697,-3.9697,-3.9697,-3.9697,-3.9697,-3.9697,-3.9697,-3.9697,-3.9697,-3.9697,-3.9697,-3.9697,-3.9697,-3.9697,-3.9697,-3.9697,-3.9697,-4.0514,-4.1132,-4.1106,-4.2092,-4.2702,-4.2757,-4.2811,-4.2865,-4.2888,-4.3815,-4.4387,-4.4373,-4.5384,-4.6001,-4.621,-4.621,-4.6476,-4.6916,-4.6727,-4.6639,-4.6594,-4.6343,-4.621,0.0,0.0,0.0,-2.6056,-2.7734,-2.9342,-3.02,-3.1518,-3.2516,-3.2516,-3.2968,-3.337,-3.337,-3.411,-3.468,-3.468,-3.4843,-3.5094,-3.5445,-3.5671,-3.5968,-3.6367,-3.6405,-3.6405,-3.6405,-3.6405,-3.6405,-3.6405,-3.6405,-3.6405,-3.6405,-3.6405,-3.6405,-3.6405,-3.6405,-3.6323,-3.6146,-3.6146,-3.6051,-3.5895,-3.5608,-3.5562,-3.5746,-3.5503,-3.5598,-3.6056,-3.6249,-3.6635,-3.713,-3.7027,-3.722,-3.7638,-3.7638,-3.8,-3.8514,-3.8514,-3.8736,-3.8998,-3.9218,-3.9362,-3.9478,-3.9633,-3.9697,-3.9697,-3.9697,-3.9697,-3.9697,-3.9697,-3.9697,-3.9697,-3.9697,-3.9697,-3.9697,-3.9697,-3.9697,-3.9697,-3.9697,-3.9697,-3.9697,-3.9697,-3.9697,-3.9697,-3.9697,-3.9697,-3.9697,-3.9697,-3.9697,-3.9697,-3.9697,-4.0032,-4.0224,-4.026,-4.06,-4.1059,-4.1707,-4.2405,-4.3064,-4.371,-4.4748,-4.5319,-4.5338,-4.5685,-4.6001,-4.6225,-4.609,-4.6225,-4.6727,-4.6447,-4.6358,-4.6358,-4.609,-4.6015,-2.1188,0.0,0.0,0.0,0.0,-2.8471,-2.9542,0.0,-3.1775,-3.2139,-3.2516,-3.2842,-3.3043,-3.3671,-3.4173,-3.4173,-3.4324,-3.4638,-3.5144,-3.5382,-3.5696,-3.6342,-3.6405,-3.6405,-3.6405,-3.6405,-3.6405,-3.6405,-3.6405,-3.6405,-3.6405,-3.6405,-3.6358,-3.6275,-3.6181,-3.6038,-3.5872,-3.5872,-3.5764,-3.562,-3.532,-3.5223,-3.5175,-3.4932,-3.4967,-3.5352,-3.5352,-3.5749,-3.6411,-3.6411,-3.6615,-3.6952,-3.712,-3.7513,-3.8008,-3.819,-3.8461,-3.8736,-3.8998,-3.9218,-3.9322,-3.9594,-3.9697,-3.9697,-3.9697,-3.9697,-3.9697,-3.9697,-3.9697,-3.9697,-3.9697,-3.9697,-3.9697,-3.9697,-3.9697,-3.9697,-3.9697,-3.9697,-3.9697,-3.9697,-3.9697,-3.9697,-3.9697,-3.9697,-3.9697,-3.9697,-3.9697,-3.9697,-3.9697,-3.9697,-3.9697,-3.9697,-3.9697,-3.9993,-4.0613,-4.1684,-4.2527,-4.3194,-4.456,-4.5338,-4.5338,-4.5685,-4.597,-4.609,-4.597,-4.606,-4.6373,-4.6194,-4.609,-4.609,-4.597,-4.588,0.0,0.0,0.0,0.0,0.0,0.0,-2.9858,0.0,-3.0846,-3.1926,-3.2164,-3.2365,-3.2943,-3.3111,-3.3124,-3.3124,-3.3533,-3.406,-3.4625,-3.5132,-3.5683,-3.6317,-3.6405,-3.6405,-3.6405,-3.6405,-3.6405,-3.6405,-3.6405,-3.6405,-3.6405,-3.6405,-3.6275,-3.6015,-3.5764,-3.562,-3.562,-3.5572,-3.5572,-3.5572,-3.532,-3.5175,-3.5175,-3.4932,-3.4775,-3.4775,-3.4775,-3.5412,-3.6362,-3.6362,-3.6362,-3.6435,-3.6964,-3.718,-3.7252,-3.7793,-3.8198,-3.8461,-3.8736,-3.8998,-3.9322,-3.9594,-3.9697,-3.9697,-3.9697,-3.9697,-3.9697,-3.9697,-3.9697,-3.9697,-3.9697,-3.9697,-3.9697,-3.9697,-3.9697,-3.9697,-3.9697,-3.9697,-3.9697,-3.9697,-3.9697,-3.9697,-3.9697,-3.9697,-3.9697,-3.9697,-3.9697,-3.9697,-3.9697,-3.9697,-3.9697,-3.9697,-3.9697,-3.9749,-3.98,-4.0689,-4.1284,-4.1356,-4.3245,-4.4359,-4.4359,-4.5338,-4.588,-4.588,-4.588,-4.588,-4.588,-4.588,-4.588,-4.588,-4.588,-4.588,-2.1648,0.0,0.0,0.0,0.0,0.0,0.0,0.0,-2.9114,-3.0231,-3.1085,-3.1788,-3.2353,-3.2792,-3.3124,-3.3124,-3.3206,-3.3495,-3.4048,-3.46,-3.5107,-3.5658,-3.6119,-3.6405,-3.6405,-3.6405,-3.6405,-3.6405,-3.6405,-3.6405,-3.6405,-3.6405,-3.6358,-3.6275,-3.6051,-3.5812,-3.562,-3.5416,-3.5223,-3.503,-3.4932,-3.4932,-3.4932,-3.4823,-3.4775,-3.4775,-3.4775,-3.4943,-3.5256,-3.5256,-3.5485,-3.5881,-3.6411,-3.6958,-3.7524,-3.7887,-3.8303,-3.8684,-3.8788,-3.8998,-3.9322,-3.9594,-3.9697,-3.9697,-3.9697,-3.9697,-3.9697,-3.9697,-3.9697,-3.9697,-3.9697,-3.9697,-3.9697,-3.9697,-3.9697,-3.9697,-3.9697,-3.9697,-3.9697,-3.9697,-3.9697,-3.9697,-3.9697,-3.9697,-3.9697,-3.9697,-3.9697,-3.9697,-3.9697,-3.9697,-3.9697,-3.9697,-3.9697,-4.0326,-4.1815,-4.2183,-4.3005,-4.4499,-4.5155,-4.5444,-4.5444,-4.573,-4.588,-4.588,-4.588,-4.588,-4.588,-4.588,-4.588,-4.588,-4.588,-4.588,-2.2787,-2.3816,-2.4611,-2.4398,0.0,0.0,-2.6082,-2.7029,-2.81,0.0,-3.0381,-3.1235,-3.1763,-3.234,-3.2717,-3.2717,-3.2918,-3.3269,-3.3822,-3.4173,-3.4675,-3.5408,-3.583,-3.6107,-3.6392,-3.6405,-3.6405,-3.6405,-3.6405,-3.6405,-3.6405,-3.6275,-3.6228,-3.6228,-3.5955,-3.5716,-3.5416,-3.5271,-3.5078,-3.4775,-3.4775,-3.4775,-3.4775,-3.4775,-3.4775,-3.4775,-3.4775,-3.4775,-3.4775,-3.4775,-3.4955,-3.534,-3.5969,-3.6601,-3.7185,-3.777,-3.8132,-3.8341,-3.8548,-3.8743,-3.8961,-3.9294,-3.9509,-3.9697,-3.9697,-3.9697,-3.9697,-3.9697,-3.9697,-3.9697,-3.9697,-3.9697,-3.9697,-3.9697,-3.9697,-3.9697,-3.9697,-3.9697,-3.9697,-3.9697,-3.9697,-3.9697,-3.9697,-3.9697,-3.9697,-3.9697,-3.9697,-3.9697,-3.9697,-3.9697,-3.9697,-3.9697,-3.9697,-4.0185,-4.1382,-4.2326,-4.3304,-4.4513,-4.5398,-4.588,-4.588,-4.588,-4.588,-4.588,-4.588,-4.588,-4.588,-4.588,-4.588,-4.588,-4.588,-4.588,-2.3914,-2.4943,-2.5875,-2.6298,-2.6059,0.0,-2.71,-2.7299,-2.7577,0.0,-2.9742,-3.052,-3.1097,-3.1662,-3.2051,-3.2114,-3.2604,-3.3169,-3.3721,-3.3859,-3.4286,-3.5282,-3.5458,-3.5768,-3.6355,-3.6405,-3.6405,-3.6405,-3.6405,-3.6405,-3.6405,-3.6193,-3.6015,-3.6015,-3.5764,-3.5512,-3.5223,-3.5223,-3.5078,-3.4775,-3.4775,-3.4775,-3.4775,-3.4775,-3.4775,-3.4775,-3.4775,-3.4775,-3.4775,-3.4775,-3.4775,-3.4883,-3.5659,-3.6156,-3.6539,-3.7492,-3.779,-3.7726,-3.8174,-3.8326,-3.8377,-3.8718,-3.9107,-3.9521,-3.9584,-3.9597,-3.9609,-3.9672,-3.9697,-3.9697,-3.9697,-3.9697,-3.9697,-3.9697,-3.9697,-3.9697,-3.9697,-3.9697,-3.9697,-3.9697,-3.9697,-3.9697,-3.9697,-3.9697,-3.9697,-3.9697,-3.9697,-3.9697,-3.9697,-3.9697,-3.9697,-3.9697,-3.9697,-3.9775,-4.0032,-4.1752,-4.2889,-4.3129,-4.4865,-4.588,-4.588,-4.588,-4.588,-4.588,-4.588,-4.588,-4.588,-4.588,-4.588,-4.588,-4.588,-4.588,-2.4975,-2.5908,-2.6766,-2.5963,-2.6059,0.0,-2.6034,-2.6324,-2.6866,0.0,-2.8162,-2.89,-2.9917,-3.0557,-3.106,-3.1486,-3.2014,-3.2579,-3.3156,-3.3621,-3.4148,-3.4756,-3.5232,-3.5768,-3.6355,-3.6405,-3.6405,-3.6405,-3.6405,-3.6405,-3.6405,-3.637,-3.6228,-3.6015,-3.5968,-3.5668,-3.5223,-3.5223,-3.5078,-3.4775,-3.4775,-3.4775,-3.4775,-3.4775,-3.4775,-3.4775,-3.4775,-3.4775,-3.4775,-3.4775,-3.4775,-3.4883,-3.5462,-3.5987,-3.6443,-3.688,-3.7428,-3.7929,-3.7779,-3.7879,-3.8066,-3.8178,-3.8253,-3.8417,-3.8894,-3.9032,-3.9132,-3.9572,-3.9697,-3.9697,-3.9697,-3.9697,-3.9697,-3.9697,-3.9697,-3.9697,-3.9697,-3.9697,-3.9697,-3.9697,-3.9697,-3.9697,-3.9697,-3.9697,-3.9697,-3.9697,-3.9697,-3.9697,-3.9697,-3.9697,-3.9697,-3.9697,-3.9697,-4.0363,-4.2075,-4.2595,-4.3511,-4.5201,-4.57,-4.588,-4.588,-4.588,-4.588,-4.588,-4.588,-4.588,-4.588,-4.588,-4.588,-4.588,-4.588,-4.588,-2.5969,-2.692,-2.7908,-2.7055,-2.7067,0.0,0.0,-2.6748,-2.711,-2.7755,-2.8027,-2.836,-2.9214,-2.9829,-3.0294,-3.0545,-3.1499,-3.2215,-3.2227,-3.2955,-3.3696,-3.4248,-3.4562,-3.4939,-3.5491,-3.5793,-3.6069,-3.6392,-3.6405,-3.6405,-3.6405,-3.6405,-3.6323,-3.6193,-3.6051,-3.5812,-3.5416,-3.5271,-3.5078,-3.4775,-3.4775,-3.4775,-3.4775,-3.4775,-3.4775,-3.4775,-3.4775,-3.4775,-3.4775,-3.4775,-3.4775,-3.4847,-3.5222,-3.5635,-3.605,-3.6603,-3.6961,-3.722,-3.7368,-3.7503,-3.76,-3.76,-3.7789,-3.8065,-3.8354,-3.8642,-3.8981,-3.9534,-3.9697,-3.9697,-3.9697,-3.9697,-3.9697,-3.9697,-3.9697,-3.9697,-3.9697,-3.9697,-3.9697,-3.9697,-3.9697,-3.9697,-3.9697,-3.9697,-3.9697,-3.9697,-3.9697,-3.9697,-3.9697,-3.9697,-3.9697,-3.9697,-3.9697,-4.03,-4.187,-4.2003,-4.2875,-4.4957,-4.5095,-4.5338,-4.588,-4.588,-4.588,-4.588,-4.588,-4.588,-4.588,-4.588,-4.588,-4.588,-4.588,-4.588,-2.6759,-2.7726,-2.8849,-2.8386,-2.8263,-2.8176,0.0,0.0,0.0,-2.8309,-2.8262,0.0,0.0,0.0,0.0,0.0,0.0,0.0,0.0,-3.1964,0.0,-3.3658,-3.3834,-3.411,-3.4663,-3.4893,-3.5341,-3.5994,-3.599,-3.6028,-3.6241,-3.6355,-3.6358,-3.6323,-3.6098,-3.5872,-3.5524,-3.532,-3.5078,-3.4775,-3.4775,-3.4775,-3.4775,-3.4775,-3.4775,-3.4775,-3.4775,-3.4775,-3.4775,-3.4775,-3.4775,-3.4823,-3.503,-3.5283,-3.5609,-3.6235,-3.6394,-3.637,-3.6843,-3.6975,-3.7023,-3.7023,-3.74,-3.7852,-3.7852,-3.8253,-3.8793,-3.9245,-3.9446,-3.9534,-3.9534,-3.9609,-3.9697,-3.9697,-3.9697,-3.9697,-3.9697,-3.9697,-3.9697,-3.9697,-3.9697,-3.9697,-3.9697,-3.9697,-3.9697,-3.9697,-3.9697,-3.9697,-3.9697,-3.9697,-3.9697,-3.9697,-3.9697,-4.0121,-4.1119,-4.1369,-4.2293,-4.4158,-4.4499,-4.5003,-4.588,-4.588,-4.588,-4.588,-4.5764,-4.5692,-4.5692,-4.5576,-4.5648,-4.588,-4.575,-4.5692,-2.7152,-2.7917,-2.9012,-2.8849,-2.8883,-2.8818,-2.8201,0.0,-2.8624,-2.8237,0.0,0.0,0.0,0.0,0.0,0.0,0.0,0.0,-2.998,-3.0507,-3.1461,-3.2993,-3.3608,-3.411,-3.4663,-3.3884,-3.3784,-3.4826,-3.4462,-3.4613,-3.5545,-3.6094,-3.6275,-3.6063,-3.6015,-3.5764,-3.5271,-3.5223,-3.5078,-3.4775,-3.4775,-3.4775,-3.4775,-3.4775,-3.4775,-3.4775,-3.4775,-3.4775,-3.4775,-3.4775,-3.4775,-3.4775,-3.4823,-3.5017,-3.5272,-3.5357,-3.5658,-3.6055,-3.6102,-3.6281,-3.6505,-3.6505,-3.6822,-3.7274,-3.7274,-3.7663,-3.8115,-3.8191,-3.8567,-3.9007,-3.9007,-3.932,-3.9697,-3.9697,-3.9697,-3.9697,-3.9697,-3.9697,-3.9697,-3.9697,-3.9697,-3.9697,-3.9697,-3.9697,-3.9697,-3.9697,-3.9697,-3.9697,-3.9697,-3.9697,-3.9697,-3.9697,-3.9697,-4.0121,-4.1119,-4.2048,-4.3115,-4.4219,-4.5187,-4.579,-4.588,-4.588,-4.588,-4.588,-4.53,-4.4995,-4.4995,-4.4458,-4.4792,-4.588,-4.5271,-4.4995,-2.5964,-2.7265,-2.8906,-2.853,-2.9209,-2.9831,-2.9238,-2.9001,-2.8925,-2.9063,0.0,0.0,0.0,0.0,0.0,0.0,-2.8925,0.0,0.0,0.0,-3.0633,0.0,0.0,0.0,-3.3658,-3.3043,-3.3169,-3.4568,-3.3909,-3.4035,-3.542,-3.5768,-3.5997,-3.6216,-3.6098,-3.5824,-3.5416,-3.5271,-3.5078,-3.4775,-3.4775,-3.4775,-3.4775,-3.4775,-3.4775,-3.4775,-3.4775,-3.4775,-3.4775,-3.4775,-3.4775,-3.4775,-3.4775,-3.4884,-3.4981,-3.5126,-3.532,-3.5572,-3.5908,-3.6051,-3.6193,-3.637,-3.6568,-3.6807,-3.7086,-3.7349,-3.76,-3.7914,-3.8417,-3.8919,-3.8919,-3.9283,-3.9697,-3.9697,-3.9697,-3.9697,-3.9697,-3.9697,-3.9697,-3.9697,-3.9697,-3.9697,-3.9697,-3.9697,-3.9697,-3.9697,-3.9697,-3.9697,-3.9697,-3.9697,-3.9697,-3.9697,-3.9697,-4.0377,-4.2012,-4.1963,-4.2827,-4.5095,-4.564,-4.588,-4.588,-4.588,-4.5706,-4.5314,-4.5024,-4.4719,-4.4371,-4.411,-4.4269,-4.4777,-4.4501,-4.4371,-2.5863,-2.7326,-2.9022,-2.8646,-2.9392,-3.0127,-2.9878,-2.9591,-2.9465,-2.9741,-2.9264,0.0,0.0,0.0,-2.8285,-2.8134,0.0,-2.8511,0.0,-2.8586,0.0,0.0,0.0,0.0,0.0,-3.1825,-3.2064,-3.3897,-3.3018,-3.3194,-3.4956,-3.5332,-3.5683,-3.6119,-3.5976,-3.5812,-3.562,-3.5271,-3.4981,-3.4775,-3.4775,-3.4775,-3.4775,-3.4775,-3.4775,-3.4775,-3.4775,-3.4775,-3.4775,-3.4775,-3.4823,-3.4872,-3.4835,-3.4872,-3.503,-3.5078,-3.5175,-3.538,-3.5764,-3.6015,-3.6146,-3.6323,-3.6405,-3.648,-3.6835,-3.696,-3.7073,-3.7626,-3.8191,-3.8668,-3.8881,-3.9283,-3.9647,-3.9509,-3.9471,-3.9471,-3.9471,-3.9471,-3.9509,-3.9659,-3.9697,-3.9697,-3.9697,-3.9697,-3.9697,-3.9697,-3.9697,-3.9697,-3.9697,-3.9697,-3.9697,-3.9697,-3.9697,-4.0326,-4.1828,-4.1468,-4.2439,-4.5293,-4.573,-4.588,-4.588,-4.588,-4.5576,-4.4893,-4.4734,-4.4342,-4.3718,-4.3558,-4.3471,-4.3471,-4.3645,-4.3718,-2.7906,-2.8633,-2.9606,-2.9729,-2.9432,-2.9262,-2.971,-3.0193,-3.0419,-2.9892,-3.0181,-3.0382,-2.9854,-2.9289,-2.8687,-2.8197,-2.8122,0.0,0.0,0.0,0.0,0.0,0.0,0.0,0.0,-2.998,-2.9903,-3.2127,-3.1298,-3.165,-3.3834,-3.4919,-3.5508,-3.552,-3.5575,-3.562,-3.562,-3.5078,-3.4823,-3.4775,-3.4775,-3.4775,-3.4775,-3.4775,-3.4775,-3.4775,-3.4775,-3.4775,-3.4775,-3.4775,-3.4932,-3.5175,-3.4872,-3.5126,-3.5524,-3.4981,-3.5126,-3.5572,-3.562,-3.5943,-3.6405,-3.6405,-3.6405,-3.6405,-3.643,-3.643,-3.6556,-3.7048,-3.76,-3.8165,-3.873,-3.9283,-3.9559,-3.9032,-3.8944,-3.8944,-3.8944,-3.8944,-3.9108,-3.9584,-3.9697,-3.9697,-3.9697,-3.9697,-3.9697,-3.9697,-3.9697,-3.9697,-3.9697,-3.9697,-3.9697,-3.9697,-3.9697,-3.9749,-3.9788,-4.0642,-4.2084,-4.4219,-4.5338,-4.588,-4.588,-4.588,-4.5576,-4.4893,-4.4313,-4.3689,-4.3021,-4.244,-4.215,-4.2165,-4.276,-4.3021,-2.6628,-2.8145,-2.9652,-2.9121,-2.9715,-3.0306,-2.9914,-3.0218,-3.0457,-2.9905,-3.0231,-3.0457,-2.9892,-2.9315,-2.8838,-2.865,-2.8034,-2.7494,0.0,0.0,0.0,0.0,0.0,0.0,0.0,0.0,-3.0105,-3.1562,-3.1022,-3.1574,-3.3784,-3.407,-3.4516,-3.5264,-3.4811,-3.4605,-3.4783,-3.4653,-3.4462,-3.4258,-3.4619,-3.4775,-3.4775,-3.4775,-3.4775,-3.4775,-3.4775,-3.4775,-3.4775,-3.4775,-3.4823,-3.4932,-3.4823,-3.503,-3.532,-3.5126,-3.5271,-3.562,-3.5812,-3.6086,-3.6405,-3.6405,-3.6405,-3.6405,-3.6405,-3.6405,-3.6518,-3.7023,-3.7575,-3.814,-3.8718,-3.9007,-3.9094,-3.8957,-3.858,-3.8304,-3.8304,-3.8605,-3.8931,-3.9158,-3.9446,-3.9697,-3.9697,-3.9697,-3.9697,-3.9697,-3.9697,-3.9697,-3.9697,-3.9697,-3.9697,-3.9697,-3.9697,-3.9981,-4.0655,-4.2293,-4.3531,-4.4266,-4.5293,-4.588,-4.588,-4.588,-4.5576,-4.4893,-4.4298,-4.366,-4.2992,-4.2382,-4.2092,-4.2092,-4.231,-4.2397,-2.6949,-2.8617,-3.0185,-2.9541,-3.0182,-3.0766,-3.0111,-3.0376,-3.0626,-3.0063,-3.0278,-3.053,-3.0315,-2.9703,-2.9126,-2.8925,-2.816,-2.7444,0.0,-2.7027,0.0,0.0,0.0,0.0,0.0,0.0,-2.9515,-3.0997,-3.062,0.0,0.0,-3.3496,-3.3956,-3.4587,-3.4197,-3.4053,-3.4094,-3.4059,-3.4015,-3.3994,-3.4342,-3.4595,-3.4775,-3.4775,-3.4775,-3.4775,-3.4775,-3.4775,-3.4775,-3.4775,-3.4884,-3.492,-3.4823,-3.503,-3.532,-3.5223,-3.5428,-3.5764,-3.6051,-3.6275,-3.6405,-3.6405,-3.6405,-3.6405,-3.6405,-3.6405,-3.6518,-3.7023,-3.7437,-3.7852,-3.8417,-3.8567,-3.8517,-3.8316,-3.799,-3.7713,-3.7713,-3.8002,-3.8441,-3.8844,-3.9157,-3.9471,-3.9659,-3.9697,-3.9697,-3.9697,-3.9697,-3.9697,-3.9697,-3.9697,-3.9697,-3.9697,-3.9697,-3.9981,-4.0605,-4.2244,-4.3197,-4.3197,-4.4172,-4.4819,-4.4819,-4.5155,-4.5037,-4.4391,-4.4124,-4.366,-4.2992,-4.2382,-4.2092,-4.2092,-4.2092,-4.2092]}]]